     2              OBSERVATION DATA    GPS                 RINEX VERSION / TYPE
teqc 1997Jul24 19970902 21:13:12UTC                         PGM / RUN BY / DATE
                                                            COMMENT
BIT 2 OF LLI FLAGS DATA COLLECTED UNDER A-S CONDITION       COMMENT
BIT 2 OF LLI FLAGS DATA COLLECTED UNDER A-S CONDITION       COMMENT
Original Marker Name: 55455.SAND                            COMMENT
Campaign Name: Salt. Tr. Crust. Monit. May-Jun 1986         COMMENT
4-Character Station Name: SAND                              COMMENT
6-Character Antenna Code: TI4100                            COMMENT
Vertical Measurement Point: PAE                             COMMENT
Vertical Offset to Rinex Ref. Point: 0.0000                 COMMENT
Radial Measurement Point: RRP                               COMMENT
Radial Offset to Rinex Ref. Point: 0.0000                   COMMENT
Antenna Height from Field Measurement: 1.1940 m             COMMENT
Original XYZ: -2337013.7104 -4728587.9163 3573986.5301      COMMENT
New XYZ position is based on association with SCEC monument COMMENT
E1F2G8K4+0012. Position of that monument is believed to be  COMMENT
valid to within 1 m horizontally; vertical accuracy         COMMENT
should be no worse than 3-times this value.                 COMMENT
                                                            COMMENT
Revised Rinex header created by UCSD GPS archive for        COMMENT
GSAC on 14-Apr-1999 (1999:104) 17:39:45 GMT                 COMMENT
For assistance contact dagnew@ucsd.edu or hjohnson@ucsd.edu COMMENT
                                                            COMMENT
SAND HILL 1939 1981                                         MARKER NAME
5 NATIONAL GEODETIC SURVEY                                  OBSERVER / AGENCY
UT-16 TI 4100 1.0                                           REC # / TYPE / VERS
4011 TI 4100                                                ANT # / TYPE
 -2336820.0000 -4732587.0000  3570330.0000                  APPROX POSITION XYZ
        1.1940        0.0000        0.0000                  ANTENNA: DELTA H/E/N
     1     1     0                                          WAVELENGTH FACT L1/2
     4    P1    P2    L1    L2                              # / TYPES OF OBSERV
     6                                                      INTERVAL
  1986     6    13     1     8    5.000000                  TIME OF FIRST OBS
  1986     6    13     2    56   23.000000                  TIME OF LAST OBS
     0                                                      # OF SATELLITES
                                                            END OF HEADER
 86  6 13  1  8  5.0800000  0  4G 6G 8G 9G11
  20834793.300    20834795.140    38057819.776 9 -49503912.824 9
  24608957.427    24608959.835    58455457.537 8 -33643593.370 9
  20379337.649    20379339.788    22881561.395 9 -61211627.943 7
  21123119.438    21123119.706    38238802.550 9 -49337124.488 8
 86  6 13  1  8 11.0800000  0  4G 6G 8G 9G11
  20836583.999    20836585.773    38067232.962 9 -49496577.871 8
  24613187.535    24613188.550    58477683.498 8 -33626274.455 8
  20377721.608    20377720.038    22873062.109 9 -61218250.751 8
  21125097.046    21125099.395    38249198.543 9 -49329023.713 9
 86  6 13  1  8 17.0800000  0  4G 6G 8G 9G11
  20838379.377    20838381.123    38076667.365 9 -49489226.397 8
  24617415.080    24617418.399    58499908.917 8 -33608955.962 8
  20376108.096    20376107.218    22864582.067 9 -61224858.584 9
  21127078.032    21127080.461    38259609.895 9 -49320910.980 9
 86  6 13  1  8 23.0800000  0  4G 6G 8G 9G11
  20840178.212    20840180.093    38086122.993 9 -49481858.382 8
  24621645.302    24621648.228    58522133.761 8 -33591637.902 8
  20374496.518    20374498.215    22856121.367 9 -61231451.328 7
  21129063.141    21129064.528    38270036.594 9 -49312786.281 9
 86  6 13  1  8 29.0800000  0  4G 6G 8G 9G11
  20841981.200    20841984.034    38095599.811 9 -49474473.850 8
  24625875.043    24625877.013    58544357.980 8 -33574320.341 8
  20372890.578    20372891.519    22847680.047 9 -61238028.974 8
  21131049.947    21131051.131    38280478.585 9 -49304649.667 8
 86  6 13  1  8 35.0800000  0  4G 6G 8G 9G11
  20843790.252    20843791.657    38105097.814 9 -49467072.809 9
  24630103.589    24630105.698    58566581.495 8 -33557003.316 7
  20371288.398    20371288.865    22839258.081 9 -61244591.550 8
  21133038.979    21133041.539    38290935.822 9 -49296501.166 8
 86  6 13  1  8 41.0800000  0  4G 6G 8G 9G11
  20845600.652    20845603.346    38114617.058 9 -49459655.215 8
  24634331.923    24634334.833    58588804.392 8 -33539686.782 8
  20369689.164    20369690.471    22830855.511 9 -61251139.006 8
  21135031.493    21135034.369    38301408.298 9 -49288340.799 9
 86  6 13  1  8 47.0800000  0  4G 6G 8G 9G11
  20847415.970    20847418.480    38124157.568 9 -49452221.059 9
  24638561.032    24638563.047    58611026.671 8 -33522370.730 8
  20368094.070    20368094.662    22822472.315 8 -61257671.358 8
  21137028.332    21137030.096    38311896.026 9 -49280168.539 9
 86  6 13  1  8 53.0800000  0  4G 6G 8G 9G11
  20849236.244    20849238.347    38133719.232 9 -49444770.421 9
  24642789.325    24642792.902    58633248.264 9 -33505055.208 8
  20366502.793    20366503.248    22814108.562 9 -61264188.569 8
  21139026.184    21139029.140    38322398.989 9 -49271984.412 9
 86  6 13  1  8 59.0800000  0  4G 6G 8G 9G11
  20851058.836    20851060.424    38143302.094 8 -49437303.251 8
  24647017.887    24647021.080    58655469.094 9 -33487740.273 8
  20364915.084    20364915.122    22805764.211 8 -61270690.672 8
  21141028.407    21141029.720    38332917.103 9 -49263788.489 9
 86  6 13  1  9  5.0800000  0  4G 6G 8G 9G11
  20852886.831    20852887.994    38152906.197 9 -49429819.538 9
  24651246.908    24651249.294    58677689.270 8 -33470425.873 8
  20363329.855    20363330.593    22797439.338 9 -61277177.576 8
  21143032.490    21143034.271    38343450.403 9 -49255580.722 9
 86  6 13  1  9 11.0800000  0  3G 6G 9G11
  20854718.832    20854720.709    38162531.511 9 -49422319.297 9
  20361751.064    20361750.785    22789134.000 8 -61283649.264 8
  21145039.925    21145041.779    38353998.907 9 -49247361.116 8
 86  6 13  1  9 17.0800000  0  3G 6G 9G11
  20856553.697    20856557.161    38172177.978 9 -49414802.574 8
  20360173.440    20360174.039    22780848.121 9 -61290105.789 8
  21147049.480    21147051.991    38364562.546 9 -49239129.702 9
 86  6 13  1  9 23.0800000  0  3G 6G 9G11
  20858393.628    20858395.915    38181845.643 8 -49407269.330 8
  20358600.633    20358600.374    22772581.766 9 -61296547.102 9
  21149063.242    21149064.957    38375141.355 9 -49230886.476 9
 86  6 13  1  9 29.0800000  0  3G 6G 9G11
  20860239.712    20860240.633    38191534.513 9 -49399719.566 8
  20357030.999    20357031.034    22764334.902 8 -61302973.235 8
  21151078.776    21151079.829    38385735.256 8 -49222631.488 9
 86  6 13  1  9 35.0800000  0  3G 6G 9G11
  20862084.232    20862087.079    38201244.567 8 -49392153.293 8
  20355465.372    20355466.394    22756107.682 9 -61309384.045 7
  21153097.632    21153099.753    38396344.204 9 -49214364.778 8
 86  6 13  1  9 41.0800000  0  3G 6G 9G11
  20863937.366    20863939.747    38210975.830 9 -49384570.496 9
  20353903.003    20353904.224    22747900.007 9 -61315779.643 9
  21155119.769    21155121.299    38406968.262 9 -49206086.300 8
 86  6 13  1  9 47.0800000  0  3G 6G 9G11
  20865792.540    20865794.882    38220728.207 9 -49376971.247 8
  20352344.993    20352344.591    22739711.879 9 -61322159.996 8
  21157143.681    21157145.407    38417607.279 9 -49197796.151 8
 86  6 13  1  9 53.0800000  0  3G 6G 9G11
  20867652.464    20867654.642    38230501.873 9 -49369355.398 8
  20350790.788    20350791.572    22731543.435 9 -61328525.018 8
  21159170.130    21159173.741    38428261.445 9 -49189494.200 9
 86  6 13  1  9 59.0800000  0  3G 6G 9G11
  20869516.125    20869518.879    38240296.616 9 -49361723.135 8
  20349240.585    20349240.509    22723394.552 8 -61334874.786 8
  21161202.304    21161203.040    38438930.552 9 -49181180.616 9
 86  6 13  1 10  5.0800000  0  3G 6G 9G11
  20871385.111    20871386.188    38250112.626 9 -49354074.302 9
  20347693.849    20347692.927    22715265.463 9 -61341209.146 8
  21163235.649    21163236.560    38449614.750 9 -49172855.270 9
 86  6 13  1 10 11.0800000  0  3G 6G 9G11
  20873255.716    20873258.162    38259949.782 9 -49346408.986 8
  20346150.456    20346150.250    22707156.003 9 -61347528.210 8
  21165271.483    21165273.358    38460313.874 9 -49164518.290 6
 86  6 13  1 10 17.0800000  0  3G 6G 9G11
  20875131.629    20875136.168    38269808.140 9 -49338727.155 9
  20344610.611    20344611.512    22699066.230 9 -61353831.927 8
  21167309.265    21167311.110    38471027.977 9 -49156169.638 9
 86  6 13  1 10 23.0800000  0  3G 6G 9G11
  20877012.508    20877013.994    38279687.773 9 -49331028.745 9
  20343075.098    20343075.048    22690996.275 9 -61360120.212 8
  21169351.968    21169353.639    38481756.998 9 -49147809.370 9
 86  6 13  1 10 29.0800000  0  3G 6G 9G11
  20878896.841    20878898.141    38289588.500 9 -49323313.893 9
  20341542.436    20341543.720    22682945.873 9 -61366393.256 7
  21171396.029    21171397.076    38492500.893 9 -49139437.494 8
 86  6 13  1 10 35.0800000  0  3G 6G 9G11
  20880785.173    20880787.160    38299510.379 9 -49315582.568 8
  20340015.583    20340014.448    22674915.360 9 -61372650.787 8
  21173443.426    21173446.196    38503259.772 9 -49131053.964 9
 86  6 13  1 10 41.0800000  0  3G 6G 9G11
  20882675.967    20882678.045    38309453.403 8 -49307834.753 9
  20338490.825    20338489.347    22666904.698 9 -61378892.869 7
  21175493.822    21175494.658    38514033.468 9 -49122658.874 9
 86  6 13  1 10 47.0800000  0  3G 6G 9G11
  20884572.882    20884574.797    38319417.729 8 -49300070.348 8
  20336969.674    20336969.694    22658913.861 9 -61385119.484 8
  21177546.311    21177548.672    38524822.175 9 -49114252.090 9
 86  6 13  1 10 53.0800000  0  3G 6G 9G11
  20886473.806    20886475.636    38329403.126 9 -49292289.521 8
  20335452.985    20335453.406    22650942.740 8 -61391330.748 8
  21179602.256    21179603.437    38535625.611 9 -49105833.819 9
 86  6 13  1 10 59.0800000  0  3G 6G 9G11
  20888377.077    20888378.713    38339409.673 9 -49284492.227 9
  20333939.645    20333940.340    22642991.530 9 -61397526.494 8
  21181661.149    21181661.891    38546443.821 9 -49097404.053 9
 86  6 13  1 11  5.0800000  0  3G 6G 9G11
  20890285.861    20890286.843    38349437.415 9 -49276678.395 9
  20332429.907    20332431.652    22635060.187 9 -61403706.761 8
  21183722.035    21183724.367    38557276.773 9 -49088962.794 9
 86  6 13  1 11 11.0800000  0  3G 6G 9G11
  20892197.173    20892199.032    38359486.214 9 -49268848.170 9
  20330925.068    20330924.584    22627148.617 9 -61409871.622 9
  21185786.612    21185789.188    38568124.439 9 -49080510.069 9
 86  6 13  1 11 17.0800000  0  3G 6G 9G11
  20894114.097    20894115.725    38369556.239 8 -49261001.399 9
  20329422.769    20329424.529    22619257.093 9 -61416020.860 8
  21187853.758    21187854.753    38578986.932 9 -49072045.792 8
 86  6 13  1 11 23.0800000  0  3G 6G 9G11
  20896033.671    20896035.968    38379647.325 9 -49253138.221 9
  20327924.882    20327926.353    22611385.408 9 -61422154.634 7
  21189924.203    21189925.722    38589864.178 9 -49063570.019 9
 86  6 13  1 11 29.0800000  0  3G 6G 9G11
  20897958.458    20897961.519    38389759.606 9 -49245258.525 9
  20326431.692    20326431.974    22603533.644 9 -61428272.894 7
  21191996.574    21191998.853    38600756.228 9 -49055082.702 8
 86  6 13  1 11 35.0800000  0  3G 6G 9G11
  20899887.407    20899889.459    38399892.997 8 -49237362.390 9
  20324940.301    20324940.784    22595701.766 8 -61434375.652 9
  21194072.124    21194074.030    38611662.865 9 -49046584.036 8
 86  6 13  1 11 41.0800000  0  3G 6G 9G11
  20901819.746    20901820.164    38410047.597 9 -49229449.714 8
  20323454.175    20323455.444    22587889.934 9 -61440462.782 7
  21196149.893    21196152.420    38622584.247 9 -49038073.860 8
 86  6 13  1 11 47.0800000  0  3G 6G 9G11
  20903755.582    20903757.011    38420223.329 9 -49221520.568 8
  20321971.454    20321972.381    22580098.159 9 -61446534.304 8
  21198230.794    21198231.614    38633520.248 9 -49029552.309 8
 86  6 13  1 11 53.0800000  0  3G 6G 9G11
  20905696.049    20905698.122    38430420.141 8 -49213575.011 9
  20320492.232    20320492.679    22572326.397 8 -61452590.215 9
  21200314.365    21200316.300    38644470.854 9 -49021019.372 8
 86  6 13  1 11 59.0800000  0  3G 6G 9G11
  20907640.367    20907641.613    38440638.107 9 -49205612.957 9
  20319017.497    20319018.303    22564574.636 8 -61458630.551 9
  21202401.246    21202403.240    38655436.096 9 -49012475.024 8
 86  6 13  1 12  5.0800000  0  3G 6G 9G11
  20909589.568    20909590.736    38450877.167 8 -49197634.481 9
  20317545.279    20317546.862    22556842.897 9 -61464655.284 7
  21204491.504    21204491.680    38666415.878 8 -49003919.346 9
 86  6 13  1 12 11.0800000  0  3G 6G 9G11
  20911541.219    20911542.396    38461137.418 9 -49189639.477 8
  20316078.013    20316080.480    22549131.231 9 -61470664.377 8
  21206582.947    21206584.321    38677410.258 9 -48995352.313 8
 86  6 13  1 12 17.0800000  0  3G 6G 9G11
  20913497.806    20913499.304    38471418.736 9 -49181628.063 9
  20314615.467    20314616.670    22541439.617 9 -61476657.835 8
  21208678.461    21208679.433    38688419.194 9 -48986773.913 9
 86  6 13  1 12 23.0800000  0  3G 6G 9G11
  20915457.630    20915458.929    38481721.192 8 -49173600.181 9
  20313155.474    20313155.656    22533768.196 8 -61482635.558 8
  21210776.093    21210777.724    38699442.778 9 -48978184.112 9
 86  6 13  1 12 29.0800000  0  3G 6G 9G11
  20917422.022    20917424.865    38492044.730 9 -49165555.869 8
  20311699.341    20311700.270    22526116.805 9 -61488597.680 8
  21212876.397    21212878.075    38710480.808 9 -48969583.048 8
 86  6 13  1 12 35.0800000  0  3G 6G 9G11
  20919391.690    20919392.212    38502389.430 8 -49157495.081 9
  20310247.839    20310248.083    22518485.744 8 -61494543.955 8
  21214979.199    21214980.232    38721533.388 9 -48960970.648 8
 86  6 13  1 12 41.0800000  0  3G 6G 9G11
  20921364.704    20921364.271    38512755.254 9 -49149417.801 9
  20308798.493    20308800.217    22510874.861 9 -61500474.518 9
  21217085.971    21217086.933    38732600.447 9 -48952346.975 9
 86  6 13  1 12 47.0800000  0  3G 6G 9G11
  20923340.718    20923341.909    38523142.150 9 -49141324.130 8
  20307353.555    20307355.623    22503284.146 8 -61506389.357 8
  21219194.383    21219196.002    38743681.925 9 -48943712.054 9
 86  6 13  1 12 53.0800000  0  3G 6G 9G11
  20925320.927    20925323.645    38533550.206 8 -49133213.962 8
  20305912.897    20305914.359    22495713.633 9 -61512288.454 9
  21221305.656    21221307.849    38754777.898 9 -48935065.844 8
 86  6 13  1 12 59.0800000  0  3G 6G 9G11
  20927305.592    20927306.649    38543979.356 9 -49125087.351 7
  20304476.402    20304478.056    22488163.368 8 -61518171.776 9
  21223419.600    21223421.074    38765888.261 9 -48926408.417 9
 86  6 13  1 13  5.0800000  0  3G 6G 9G11
  20929295.288    20929295.277    38554429.640 9 -49116944.280 9
  20303043.649    20303044.260    22480633.408 9 -61524039.276 8
  21225536.866    21225538.405    38777013.093 9 -48917739.717 9
 86  6 13  1 13 11.0800000  0  3G 6G 9G11
  20931287.348    20931288.066    38564900.888 8 -49108784.868 8
  20301614.934    20301615.607    22473123.639 9 -61529891.045 8
  21227656.010    21227658.832    38788152.248 9 -48909059.872 8
 86  6 13  1 13 17.0800000  0  3G 6G 9G11
  20933283.540    20933284.239    38575393.295 9 -49100608.957 8
  20300189.941    20300190.923    22465634.200 8 -61535726.976 8
  21229778.731    21229781.290    38799305.819 9 -48900368.766 8
 86  6 13  1 13 23.0800000  0  3G 6G 9G11
  20935284.735    20935285.253    38585906.746 9 -49092416.662 9
  20298768.062    20298768.414    22458165.011 9 -61541547.117 9
  21231903.456    21231906.040    38810473.654 9 -48891666.561 9
 86  6 13  1 13 29.0800000  0  3G 6G 9G11
  20937288.668    20937289.730    38596441.323 8 -49084207.920 8
  20297352.048    20297352.306    22450716.159 8 -61547351.416 8
  21234031.709    21234033.788    38821655.895 9 -48882953.124 9
 86  6 13  1 13 35.0800000  0  3G 6G 9G11
  20939298.035    20939298.671    38606996.919 8 -49075982.778 8
  20295938.295    20295938.676    22443287.736 8 -61553139.804 8
  21236162.405    21236164.077    38832852.391 9 -48874228.583 8
 86  6 13  1 13 41.0800000  0  3G 6G 9G11
  20941311.247    20941311.002    38617573.612 8 -49067741.211 8
  20294527.781    20294528.248    22435879.598 8 -61558912.375 9
  21238296.077    21238298.266    38844063.140 9 -48865492.947 9
 86  6 13  1 13 47.0800000  0  3G 6G 9G11
  20943326.648    20943327.969    38628171.499 9 -49059483.109 8
  20293122.050    20293122.665    22428491.890 9 -61564669.033 8
  21240431.210    21240434.805    38855288.196 9 -48856746.141 9
 86  6 13  1 13 53.0800000  0  3G 6G 9G11
  20945349.190    20945348.769    38638790.292 8 -49051208.742 8
  20291720.665    20291720.034    22421124.478 9 -61570409.869 8
  21242570.645    21242573.047    38866527.439 9 -48847988.290 8
 86  6 13  1 13 59.0800000  0  3G 6G 9G11
  20947372.289    20947373.607    38649430.229 9 -49042917.878 8
  20290322.167    20290321.780    22413777.699 8 -61576134.632 9
  21244712.311    21244714.505    38877780.945 9 -48839219.335 9
 86  6 13  1 14  5.0800000  0  3G 6G 9G11
  20949400.947    20949401.574    38660091.173 8 -49034610.650 9
  20288926.648    20288927.390    22406451.259 8 -61581843.547 8
  21246856.246    21246858.807    38889048.570 9 -48830439.365 8
 86  6 13  1 14 11.0800000  0  3G 6G 9G11
  20951433.693    20951434.418    38670773.263 8 -49026286.952 9
  20287537.822    20287537.860    22399145.355 8 -61587536.458 8
  21249003.237    21249005.392    38900330.400 9 -48821648.333 8
 86  6 13  1 14 17.0800000  0  3G 6G 9G11
  20953471.881    20953471.198    38681476.251 9 -49017946.958 8
  20286150.491    20286151.874    22391859.802 8 -61593213.515 8
  21251153.117    21251154.523    38911626.331 9 -48812846.312 9
 86  6 13  1 14 23.0800000  0  3G 6G 9G11
  20955512.559    20955512.931    38692200.330 9 -49009590.535 8
  20284768.622    20284769.346    22384594.826 8 -61598874.535 8
  21253305.545    21253307.250    38922936.457 9 -48804033.223 9
 86  6 13  1 14 29.0800000  0  3G 6G 9G11
  20957556.149    20957557.771    38702945.434 8 -49001217.741 8
  20283389.561    20283389.929    22377350.318 8 -61604519.609 8
  21255459.840    21255461.924    38934260.701 9 -48795209.139 8
 86  6 13  1 14 35.0800000  0  3G 6G 9G11
  20959605.821    20959605.909    38713711.559 9 -48992828.561 8
  20282014.302    20282014.991    22370126.304 8 -61610148.710 7
  21257617.458    21257619.572    38945598.986 9 -48786374.119 8
 86  6 13  1 14 41.0800000  0  3G 6G 9G11
  20961657.072    20961658.454    38724498.861 8 -48984422.870 8
  20280644.028    20280644.521    22362922.969 8 -61615761.713 9
  21259777.659    21259780.577    38956951.419 8 -48777528.066 9
 86  6 13  1 14 47.0800000  0  3G 6G 9G11
  20963714.675    20963714.955    38735307.074 9 -48976000.889 7
  20279277.236    20279277.333    22355740.050 8 -61621358.779 8
  21261940.274    21261942.370    38968317.798 9 -48768671.149 9
 86  6 13  1 14 53.0800000  0  3G 6G 9G11
  20965774.902    20965775.557    38746136.375 8 -48967562.485 9
  20277914.604    20277915.827    22348577.842 9 -61626939.725 8
  21264106.380    21264108.016    38979698.334 9 -48759803.201 8
 86  6 13  1 14 59.0800000  0  3G 6G 9G11
  20967839.380    20967840.786    38756986.638 9 -48959107.732 8
  20276554.967    20276555.718    22341436.195 8 -61632504.650 7
  21266275.388    21266276.736    38991092.778 9 -48750924.419 8
 86  6 13  1 15  5.0800000  0  3G 6G 9G11
  20969909.340    20969909.872    38767857.930 8 -48950636.601 8
  20275200.091    20275200.732    22334315.177 9 -61638053.483 8
  21268445.595    21268447.646    39002501.291 9 -48742034.661 9
 86  6 13  1 15 11.0800000  0  3G 6G 9G11
  20971981.774    20971983.675    38778750.219 9 -48942149.111 7
  20273848.843    20273849.872    22327214.883 9 -61643586.195 8
  21270619.745    21270620.926    39013923.787 9 -48733134.018 7
 86  6 13  1 15 17.0800000  0  3G 6G 9G11
  20974058.470    20974059.302    38789663.508 8 -48933645.236 9
  20272501.862    20272503.070    22320135.196 8 -61649102.826 9
  21272796.439    21272797.526    39025360.262 9 -48724222.497 9
 86  6 13  1 15 23.0800000  0  3G 6G 9G11
  20976139.921    20976139.938    38800597.885 8 -48925124.956 8
  20271159.030    20271160.097    22313076.300 8 -61654603.266 8
  21274975.368    21274976.406    39036810.630 9 -48715300.123 9
 86  6 13  1 15 29.0800000  0  3G 6G 9G11
  20978224.859    20978224.216    38811553.189 9 -48916588.359 9
  20269817.882    20269819.925    22306037.948 8 -61660087.690 8
  21277156.394    21277158.505    39048274.860 9 -48706366.959 9
 86  6 13  1 15 35.0800000  0  3G 6G 9G11
  20980313.002    20980315.041    38822529.517 8 -48908035.390 8
  20268484.293    20268485.896    22299020.429 7 -61665555.884 9
  21279339.891    21279341.793    39059753.049 9 -48697422.914 8
 86  6 13  1 15 41.0800000  0  3G 6G 9G11
  20982405.459    20982405.859    38833526.827 8 -48899466.053 8
  20267151.793    20267153.825    22292023.611 8 -61671007.953 9
  21281527.384    21281529.765    39071245.153 9 -48688468.037 9
 86  6 13  1 15 47.0800000  0  3G 6G 9G11
  20984502.307    20984503.232    38844545.177 8 -48890880.336 9
  20265825.360    20265826.172    22285047.754 8 -61676443.692 7
  21283716.940    21283719.186    39082751.154 9 -48679502.328 8
 86  6 13  1 15 53.0800000  0  3G 6G 9G11
  20986603.063    20986604.085    38855584.434 8 -48882278.320 8
  20264501.929    20264503.070    22278092.545 8 -61681863.326 9
  21285909.547    21285910.536    39094270.916 8 -48670525.884 9
 86  6 13  1 15 59.0800000  0  3G 6G 9G11
  20988708.273    20988708.120    38866644.729 8 -48873659.903 9
  20263181.674    20263183.110    22271158.185 8 -61687266.723 8
  21288104.367    21288105.964    39105804.580 8 -48661538.619 9
 86  6 13  1 16  5.0800000  0  3G 6G 9G11
  20990815.965    20990817.202    38877725.994 8 -48865025.168 8
  20261866.410    20261867.840    22264244.688 8 -61692653.872 8
  21290300.981    21290304.033    39117352.032 9 -48652540.608 9
 86  6 13  1 16 11.0800000  0  3G 6G 9G11
  20992928.980    20992930.578    38888828.183 8 -48856374.117 9
  20260555.906    20260555.889    22257351.952 8 -61698024.826 8
  21292500.916    21292503.856    39128913.213 8 -48643531.904 9
 86  6 13  1 16 17.0800000  0  3G 6G 9G11
  20995045.937    20995045.339    38899951.378 9 -48847706.687 7
  20259247.677    20259249.193    22250480.121 8 -61703379.497 9
  21294703.281    21294706.484    39140488.207 9 -48634512.421 8
 86  6 13  1 16 23.0800000  0  3G 6G 9G11
  20997167.142    20997166.991    38911095.438 9 -48839023.012 8
  20257943.903    20257945.059    22243629.031 9 -61708718.018 8
  21296909.273    21296911.241    39152076.902 9 -48625482.275 9
 86  6 13  1 16 29.0800000  0  3G 6G 9G11
  20999291.495    20999292.731    38922260.504 9 -48830322.964 8
  20256643.949    20256644.729    22236798.951 8 -61714040.152 9
  21299117.143    21299118.775    39163679.326 9 -48616441.412 9
 86  6 13  1 16 35.0800000  0  3G 6G 9G11
  21001419.966    21001420.376    38933446.495 9 -48821606.611 8
  20255348.249    20255349.670    22229989.744 8 -61719346.024 8
  21301327.111    21301329.260    39175295.422 9 -48607389.923 8
 86  6 13  1 16 41.0800000  0  3G 6G 9G11
  21003552.710    21003553.109    38944653.533 7 -48812873.861 8
  20254055.643    20254057.368    22223201.527 8 -61724635.546 9
  21303541.812    21303543.534    39186925.284 9 -48598327.697 8
 86  6 13  1 16 47.0800000  0  3G 6G 9G11
  21005688.672    21005689.638    38955881.406 8 -48804124.871 8
  20252768.501    20252768.896    22216434.255 8 -61729908.751 9
  21305755.492    21305759.696    39198568.770 9 -48589254.854 9
 86  6 13  1 16 53.0800000  0  3G 6G 9G11
  21007830.967    21007830.716    38967130.202 8 -48795359.575 8
  20251484.623    20251486.790    22209687.863 8 -61735165.684 9
  21307975.287    21307975.906    39210225.875 9 -48580171.391 8
 86  6 13  1 16 59.0800000  0  3G 6G 9G11
  21009974.069    21009975.251    38978400.013 9 -48786577.928 9
  20250204.208    20250206.604    22202962.536 8 -61740406.190 8
  21310196.493    21310198.171    39221896.608 8 -48571077.318 9
 86  6 13  1 17  5.0800000  0  3G 6G 9G11
  21012123.107    21012123.577    38989690.710 9 -48777779.975 8
  20248928.566    20248931.071    22196258.185 8 -61745630.356 9
  21312418.598    21312420.350    39233580.902 9 -48561972.671 9
 86  6 13  1 17 11.0800000  0  3G 6G 9G11
  21014275.936    21014275.885    39001002.388 9 -48768965.691 8
  20247657.480    20247659.362    22189574.852 8 -61750838.146 9
  21314644.096    21314646.875    39245278.814 9 -48552857.428 9
 86  6 13  1 17 17.0800000  0  3G 6G 9G11
  21016431.959    21016431.828    39012334.861 9 -48760135.188 8
  20246389.661    20246390.770    22182912.497 8 -61756029.599 8
  21316872.857    21316874.550    39256990.200 9 -48543731.663 8
 86  6 13  1 17 23.0800000  0  3G 6G 9G11
  21018592.132    21018592.790    39023688.329 9 -48751288.344 8
  20245125.210    20245126.641    22176271.303 8 -61761204.547 8
  21319105.281    21319107.079    39268715.206 9 -48534595.293 9
 86  6 13  1 17 29.0800000  0  3G 6G 9G11
  21020757.040    21020758.001    39035062.564 8 -48742425.302 8
  20243866.464    20243867.669    22169651.165 8 -61766363.105 9
  21321338.824    21321340.458    39280453.651 9 -48525448.457 9
 86  6 13  1 17 35.0800000  0  3G 6G 9G11
  21022924.384    21022925.945    39046457.790 9 -48733545.909 8
  20242609.543    20242611.711    22163052.113 8 -61771505.219 9
  21323575.141    21323577.424    39292205.636 9 -48516291.064 9
 86  6 13  1 17 41.0800000  0  3G 6G 9G11
  21025097.336    21025097.377    39057873.830 9 -48724650.299 8
  20241357.795    20241359.241    22156474.080 8 -61776630.955 9
  21325813.517    21325816.245    39303971.085 9 -48507123.193 8
 86  6 13  1 17 47.0800000  0  3G 6G 9G11
  21027274.211    21027274.622    39069310.799 9 -48715738.380 8
  20240110.558    20240111.567    22149917.319 8 -61781740.121 8
  21328055.511    21328056.950    39315749.997 9 -48497944.821 9
 86  6 13  1 17 53.0800000  0  3G 6G 9G11
  21029453.735    21029454.095    39080768.645 9 -48706810.190 9
  20238866.508    20238868.472    22143381.682 7 -61786832.823 9
  21330299.556    21330301.831    39327542.402 9 -48488755.943 9
 86  6 13  1 17 59.0800000  0  3G 6G 9G11
  21031638.780    21031639.521    39092247.340 8 -48697865.763 8
  20237627.301    20237628.516    22136867.024 7 -61791909.183 8
  21332545.669    21332548.097    39339348.132 9 -48479556.666 8
 86  6 13  1 18  5.0800000  0  3G 6G 9G11
  21033827.036    21033828.416    39103746.949 9 -48688905.023 8
  20236391.334    20236392.284    22130373.723 9 -61796968.900 8
  21334794.540    21334797.291    39351167.339 8 -48470346.901 9
 86  6 13  1 18 11.0800000  0  3G 6G 9G11
  21036019.223    21036019.336    39115267.323 9 -48679928.114 8
  20235159.708    20235161.434    22123901.608 8 -61802012.112 8
  21337047.170    21337049.472    39362999.859 9 -48461126.758 8
 86  6 13  1 18 17.0800000  0  3G 6G 9G11
  21038216.303    21038215.802    39126808.641 9 -48670934.892 8
  20233932.555    20233934.091    22117450.763 8 -61807038.725 9
  21339300.524    21339303.706    39374845.784 9 -48451896.172 9
 86  6 13  1 18 23.0800000  0  3G 6G 9G11
  21040415.735    21040415.822    39138370.738 9 -48661925.466 8
  20232708.936    20232710.567    22111021.050 8 -61812048.897 8
  21341557.571    21341559.464    39386704.996 8 -48442655.221 8
 86  6 13  1 18 29.0800000  0  3G 6G 9G11
  21042620.649    21042620.343    39149953.717 9 -48652899.773 8
  20231489.745    20231491.248    22104612.682 8 -61817042.438 8
  21343816.209    21343819.485    39398577.572 9 -48433403.869 9
 86  6 13  1 18 35.0800000  0  3G 6G 9G11
  21044828.170    21044829.041    39161557.636 9 -48643857.766 9
  20230273.804    20230274.747    22098225.584 7 -61822019.391 9
  21346078.837    21346080.632    39410463.436 9 -48424142.152 9
 86  6 13  1 18 41.0800000  0  3G 6G 9G11
  21047040.189    21047042.072    39173182.316 9 -48634799.576 8
  20229061.765    20229064.487    22091859.775 7 -61826979.771 8
  21348342.704    21348344.845    39422362.509 9 -48414870.146 8
 86  6 13  1 18 47.0800000  0  3G 6G 9G11
  21049256.318    21049256.591    39184827.888 9 -48625725.107 8
  20227856.002    20227856.664    22085515.262 8 -61831923.536 9
  21350609.851    21350612.159    39434274.930 8 -48405587.746 8
 86  6 13  1 18 53.0800000  0  3G 6G 9G11
  21051476.129    21051477.390    39196494.175 8 -48616634.497 8
  20226652.890    20226654.047    22079192.036 8 -61836850.736 8
  21352878.031    21352881.393    39446200.524 9 -48396295.077 8
 86  6 13  1 18 59.0800000  0  3G 6G 9G11
  21053700.332    21053701.084    39208181.337 9 -48607527.619 9
  20225452.321    20225453.689    22072890.263 8 -61841761.195 8
  21355150.751    21355153.329    39458139.344 9 -48386992.105 9
 86  6 13  1 19  5.0800000  0  3G 6G 9G11
  21055928.336    21055929.853    39219889.307 9 -48598404.532 8
  20224257.380    20224258.894    22066609.826 8 -61846655.049 9
  21357425.607    21357428.196    39470091.292 9 -48377678.898 8
 86  6 13  1 19 11.0800000  0  3G 6G 9G11
  21058160.471    21058161.368    39231618.162 8 -48589265.172 9
  20223066.715    20223066.898    22060350.769 8 -61851532.225 8
  21359701.865    21359705.321    39482056.460 9 -48368355.389 8
 86  6 13  1 19 17.0800000  0  3G 6G 9G11
  21060395.955    21060395.535    39243367.716 9 -48580109.678 8
  20221879.278    20221879.893    22054113.042 8 -61856392.807 8
  21361982.141    21361984.739    39494034.737 9 -48359021.674 9
 86  6 13  1 19 23.0800000  0  3G 6G 9G11
  21062636.764    21062638.289    39255138.130 9 -48570937.946 9
  20220696.881    20220698.870    22047896.775 7 -61861236.644 8
  21364263.406    21364265.973    39506026.158 9 -48349677.706 8
 86  6 13  1 19 29.0800000  0  3G 6G 9G11
  21064879.972    21064879.447    39266929.328 9 -48561749.989 8
  20219517.034    20219518.431    22041702.028 8 -61866063.730 8
  21366547.594    21366550.107    39518030.788 9 -48340323.447 8
 86  6 13  1 19 35.0800000  0  3G 6G 9G11
  21067127.748    21067128.760    39278741.298 8 -48552545.865 8
  20218343.224    20218343.722    22035528.725 8 -61870874.098 8
  21368834.470    21368837.077    39530048.517 9 -48330958.986 8
 86  6 13  1 19 41.0800000  0  3G 6G 9G11
  21069379.420    21069379.480    39290574.098 9 -48543325.506 9
  20217171.637    20217173.869    22029376.899 7 -61875667.716 8
  21371123.425    21371125.700    39542079.448 9 -48321584.231 9
 86  6 13  1 19 47.0800000  0  3G 6G 9G11
  21071633.736    21071634.129    39302427.573 9 -48534089.034 8
  20216006.160    20216007.212    22023246.519 8 -61880444.646 8
  21373416.655    21373418.376    39554123.348 9 -48312199.368 9
 86  6 13  1 19 53.0800000  0  3G 6G 9G11
  21073894.459    21073895.531    39314301.907 8 -48524836.313 8
  20214843.989    20214845.680    22017137.643 8 -61885204.811 9
  21375710.867    21375712.908    39566180.309 8 -48302804.337 9
 86  6 13  1 19 59.0800000  0  3G 6G 9G11
  21076158.714    21076159.462    39326197.011 8 -48515567.407 8
  20213685.147    20213686.002    22011050.257 8 -61889948.218 8
  21378007.054    21378009.986    39578250.213 9 -48293399.229 8
 86  6 13  1 20  5.0800000  0  3G 6G 9G11
  21078425.407    21078426.125    39338112.881 9 -48506282.321 8
  20212531.224    20212531.502    22004984.456 9 -61894674.822 9
  21380306.617    21380309.617    39590333.139 9 -48283983.956 9
 86  6 13  1 20 11.0800000  0  3G 6G 9G11
  21080697.459    21080697.986    39350049.414 8 -48496981.129 7
  20211380.719    20211382.627    21998940.205 7 -61899384.613 7
  21382608.347    21382610.809    39602429.004 7 -48274558.612 8
 86  6 13  1 20 17.0800000  0  3G 6G 9G11
  21082972.529    21082973.222    39362006.731 9 -48487663.743 8
  20210234.889    20210235.274    21992917.450 7 -61904077.673 7
  21384911.972    21384914.541    39614537.768 9 -48265123.212 8
 86  6 13  1 20 23.0800000  0  4G 6G13G 9G11
  21085251.276    21085252.395    39373984.780 9 -48478330.190 8
                  21039759.911    -4346503.823 9
  20209092.501    20209094.946    21986916.381 8 -61908753.830 8
  21387218.868    21387221.707    39626659.483 9 -48255677.726 9
 86  6 13  1 20 29.0800000  0  4G 6G13G 9G11
  21087534.206    21087534.538    39385983.594 9 -48468980.474 8
                  21037442.486    -4358642.015 9
  20207954.406    20207956.347    21980936.989 8 -61913413.100 8
  21389527.900    21389530.270    39638794.122 9 -48246222.165 8
 86  6 13  1 20 35.0800000  0  4G 6G13G 9G11
  21089822.048    21089822.619    39398003.160 9 -48459614.584 8
                  21334959.545    -4370761.009 8
  20206821.432    20206822.458    21974979.245 8 -61918055.483 8
  21391840.311    21391841.985    39650941.716 9 -48236756.507 9
 86  6 13  1 20 41.0800000  0  4G 6G13G 9G11
  21092113.936    21092114.699    39410043.405 9 -48450232.584 8
  21332657.029    21332657.040    -4382861.384 9   5727842.753 8
  20205690.461    20205691.955    21969043.153 8 -61922681.020 8
  21394154.545    21394156.457    39663102.172 9 -48227280.827 9
 86  6 13  1 20 47.0800000  0  4G 6G13G 9G11
  21094408.889    21094408.779    39422104.336 8 -48440834.458 8
  21330357.557    21330359.832    -4394942.853 9   5718428.665 9
  20204566.416    20204566.793    21963128.698 8 -61927289.674 8
  21396469.690    21396472.813    39675275.509 9 -48217795.106 9
 86  6 13  1 20 53.0800000  0  4G 6G13G 9G11
  21096708.137    21096708.768    39434186.046 9 -48431420.144 8
  21328062.447    21328064.103    -4407005.350 9   5709029.303 9
  20203444.576    20203446.269    21957235.874 8 -61931881.486 9
  21398789.382    21398791.654    39687461.706 9 -48208299.367 9
 86  6 13  1 20 59.0800000  0  4G 6G13G 9G11
  21099011.172    21099011.953    39446288.414 9 -48421989.730 8
  21325769.963    21325773.880    -4419048.911 9   5699644.732 9
  20202326.485    20202328.921    21951364.848 8 -61936456.315 8
  21401111.192    21401113.893    39699660.781 9 -48198793.596 9
 86  6 13  1 21  5.0800000  0  4G 6G13G 9G11
  21101317.180    21101317.627    39458411.523 8 -48412543.159 8
  21323481.995    21323484.675    -4431073.474 9   5690274.941 8
  20201214.482    20201216.082    21945515.496 8 -61941014.255 9
  21403435.134    21403436.729    39711872.642 9 -48189277.862 8
 86  6 13  1 21 11.0800000  0  4G 6G13G 9G11
  21103627.635    21103629.409    39470555.308 8 -48403080.471 8
  21321197.490    21321199.412    -4443079.045 9   5680919.962 9
  20200104.806    20200106.889    21939687.911 8 -61945555.225 9
  21405760.980    21405762.957    39724097.250 9 -48179752.194 8
 86  6 13  1 21 17.0800000  0  4G 6G13G 9G11
  21105942.655    21105945.043    39482719.725 9 -48393601.703 8
  21318915.369    21318919.405    -4455065.576 9   5671579.809 8
  20198999.332    20199002.147    21933882.059 8 -61950079.268 9
  21408089.476    21408091.759    39736334.590 9 -48170216.603 9
 86  6 13  1 21 23.0800000  0  4G 6G13G 9G11
  21108260.793    21108262.901    39494904.801 9 -48384106.848 8
  21316639.230    21316641.620    -4467033.158 9   5662254.432 9
  20197899.955    20197900.984    21928098.043 8 -61954586.279 8
  21410420.482    21410422.787    39748584.690 9 -48160671.069 8
 86  6 13  1 21 29.0800000  0  4G 6G13G 9G11
  21110583.709    21110585.867    39507110.586 9 -48374595.851 8
  21314365.713    21314367.508    -4478981.783 9   5652943.814 8
  20196803.701    20196804.992    21922335.717 7 -61959076.414 9
  21412754.768    21412757.001    39760847.506 9 -48151115.630 9
 86  6 13  1 21 35.0800000  0  4G 6G13G 9G11
  21112910.576    21112912.107    39519337.037 9 -48365068.746 8
  21312094.750    21312097.030    -4490911.509 9   5643647.939 8
  20195711.682    20195712.187    21916595.217 7 -61963549.522 8
  21415090.805    21415091.962    39773122.988 9 -48141550.321 9
 86  6 13  1 21 41.0800000  0  4G 6G13G 9G11
  21115241.023    21115242.474    39531584.183 9 -48355525.524 8
  21309828.684    21309831.332    -4502822.174 9   5634366.899 8
  20194623.182    20194624.872    21910876.581 8 -61968005.608 8
  21417428.532    21417431.213    39785411.084 9 -48131975.186 8
 86  6 13  1 21 47.0800000  0  4G 6G13G 9G11
  21117576.041    21117578.557    39543851.964 9 -48345966.229 8
  21307565.585    21307568.429    -4514713.867 9   5625100.667 8
  20193538.569    20193540.410    21905179.813 8 -61972444.643 8
  21419769.449    21419772.618    39797711.823 8 -48122390.192 9
 86  6 13  1 21 53.0800000  0  4G 6G13G 9G11
  21119914.101    21119916.142    39556140.315 9 -48336390.888 8
  21305305.674    21305308.082    -4526586.620 9   5615849.168 8
  20192459.340    20192459.826    21899504.880 8 -61976866.654 8
  21422112.770    21422114.096    39810025.216 9 -48112795.342 9
 86  6 13  1 21 59.0800000  0  4G 6G13G 9G11
  21122256.989    21122257.961    39568449.349 9 -48326799.428 9
  21303050.607    21303052.629    -4538440.362 8   5606612.481 9
  20191383.139    20191384.372    21893851.817 8 -61981271.642 8
  21424458.460    21424459.737    39822351.225 9 -48103190.660 9
 86  6 13  1 22  5.0800000  0  4G 6G13G 9G11
  21124602.776    21124603.729    39580779.030 9 -48317191.897 8
  21300799.099    21300801.442    -4550275.092 9   5597390.636 9
  20190311.560    20190312.164    21888220.638 8 -61985659.577 8
  21426805.867    21426808.244    39834689.865 9 -48093576.135 9
 86  6 13  1 22 11.0800000  0  4G 6G13G 9G11
  21126952.126    21126955.176    39593129.330 9 -48307568.295 9
  21298550.313    21298553.670    -4562090.868 9   5588183.545 9
  20189244.351    20189244.656    21882611.305 8 -61990030.480 9
  21429157.376    21429158.512    39847041.040 9 -48083951.851 8
 86  6 13  1 22 17.0800000  0  4G 6G13G 9G11
  21129306.767    21129308.494    39605500.236 9 -48297928.618 8
  21296305.865    21296307.763    -4573887.569 9   5578991.322 7
  20188181.372    20188181.283    21877023.951 8 -61994384.256 8
  21431509.340    21431512.419    39859404.779 9 -48074317.766 9
 86  6 13  1 22 23.0800000  0  4G 6G13G 9G11
  21131665.312    21131666.271    39617891.693 9 -48288272.953 8
  21294064.821    21294066.601    -4585665.181 9   5569813.959 8
  20187123.153    20187122.774    21871458.555 8 -61998720.931 8
  21433864.537    21433865.394    39871781.067 9 -48064673.902 9
 86  6 13  1 22 29.0800000  0  4G 6G13G 9G11
  21134026.191    21134028.535    39630303.773 9 -48278601.205 8
  21291826.430    21291828.588    -4597423.693 9   5560651.492 9
  20186066.932    20186069.914    21865915.064 8 -62003040.534 9
  21436222.416    21436223.721    39884169.877 9 -48055020.290 9
 86  6 13  1 22 35.0800000  0  4G 6G13G 9G11
  21136392.388    21136394.423    39642736.434 9 -48268913.429 8
  21289593.029    21289594.446    -4609163.140 9   5551503.879 9
  20185015.838    20185017.795    21860393.526 8 -62007343.025 9
  21438582.186    21438583.986    39896571.221 9 -48045356.899 9
 86  6 13  1 22 41.0800000  0  4G 6G13G 9G11
  21138763.257    21138763.492    39655189.720 8 -48259209.565 9
  21287362.803    21287365.324    -4620883.611 9   5542371.048 9
  20183968.661    20183971.503    21854894.157 7 -62011628.260 8
  21440943.648    21440946.589    39908985.030 9 -48035683.798 8
 86  6 13  1 22 47.0800000  0  4G 6G13G 9G11
  21141136.408    21141138.028    39667663.559 9 -48249489.689 8
  21285134.972    21285138.861    -4632584.993 9   5533253.098 8
  20182927.091    20182928.401    21849416.672 8 -62015896.411 7
  21443309.377    21443310.639    39921411.357 9 -48026000.955 9
 86  6 13  1 22 53.0800000  0  4G 6G13G 9G11
  21143513.818    21143515.702    39680158.053 9 -48239753.741 9
  21282912.419    21282915.430    -4644267.275 9   5524150.029 8
  20181889.168    20181892.132    21843961.195 8 -62020147.436 8
  21445675.919    21445678.128    39933850.040 9 -48016308.475 9
 86  6 13  1 22 59.0800000  0  4G 6G13G 9G11
  21145895.554    21145897.380    39692673.139 9 -48230001.715 9
  21280693.803    21280694.319    -4655930.489 9   5515061.810 9
  20180855.206    20180857.479    21838527.777 8 -62024381.270 7
  21448044.689    21448046.650    39946301.104 9 -48006606.345 9
 86  6 13  1 23  5.0800000  0  4G 6G13G 9G11
  21148280.329    21148282.179    39705208.754 9 -48220233.719 8
  21278477.314    21278479.486    -4667574.721 9   5505988.391 8
  20179825.658    20179826.440    21833116.472 7 -62028597.857 8
  21450416.714    21450418.579    39958764.571 9 -47996894.552 8
 86  6 13  1 23 11.0800000  0  4G 6G13G 9G11
  21150671.521    21150671.487    39717764.874 9 -48210449.724 8
  21276264.598    21276267.668    -4679199.785 8   5496929.896 8
  20178799.407    20178801.653    21827727.221 7 -62032797.279 8
  21452790.985    21452794.294    39971240.421 9 -47987173.121 9
 86  6 13  1 23 17.0800000  0  4G 6G13G 9G11
  21153063.385    21153065.284    39730341.560 9 -48200649.718 8
  21274056.284    21274058.872    -4690805.714 9   5487886.332 8
  20177779.296    20177779.966    21822360.056 8 -62036979.485 8
  21455167.366    21455168.948    39983728.555 9 -47977442.106 9
 86  6 13  1 23 23.0800000  0  4G 6G13G 9G11
  21155460.284    21155461.987    39742938.736 9 -48190833.736 9
  21271851.720    21271854.501    -4702392.598 9   5478857.595 9
  20176761.691    20176762.837    21817015.003 8 -62041144.462 8
  21457546.739    21457547.926    39996229.008 9 -47967701.488 9
 86  6 13  1 23 29.0800000  0  4G 6G13G 9G11
  21157862.048    21157863.972    39755556.516 9 -48181001.713 9
  21269650.933    21269652.796    -4713960.439 9   5469843.698 9
  20175747.457    20175749.367    21811692.146 7 -62045292.151 8
  21459927.828    21459928.881    40008741.873 9 -47957951.206 9
 86  6 13  1 23 35.0800000  0  4G 6G13G 9G11
  21160266.134    21160268.993    39768194.813 8 -48171153.689 8
  21267452.803    21267455.487    -4725509.201 8   5460844.674 8
  20174739.710    20174740.863    21806391.397 8 -62049422.581 9
  21462310.670    21462312.690    40021267.020 9 -47948191.355 9
 86  6 13  1 23 41.0800000  0  4G 6G13G 9G11
  21162675.133    21162677.081    39780853.634 8 -48161289.674 8
  21265258.733    21265260.724    -4737038.852 9   5451860.532 7
  20173735.489    20173736.442    21801112.846 7 -62053535.740 8
  21464696.769    21464699.145    40033804.420 9 -47938421.949 9
 86  6 13  1 23 47.0800000  0  4G 6G13G 9G11
  21165089.182    21165090.161    39793532.922 9 -48151409.720 9
  21263068.502    21263070.291    -4748549.495 9   5442891.214 8
  20172736.969    20172736.046    21795856.438 8 -62057631.644 9
  21467084.910    21467085.902    40046354.048 9 -47928643.018 9
 86  6 13  1 23 53.0800000  0  4G 6G13G 9G11
  21167505.107    21167506.926    39806232.746 9 -48141513.760 9
  21260882.501    21260883.132    -4760041.083 9   5433936.731 8
  20171739.439    20171740.538    21790622.240 7 -62061710.245 8
  21469475.048    21469477.270    40058915.975 9 -47918854.509 9
 86  6 13  1 23 59.0800000  0  4G 6G13G 9G11
  21169925.908    21169928.035    39818953.054 8 -48131601.836 8
  21258697.893    21258699.950    -4771513.601 9   5424997.120 8
  20170746.699    20170748.369    21785410.259 8 -62065771.526 8
  21471868.091    21471870.733    40071490.126 9 -47909056.480 8
 86  6 13  1 24  5.0800000  0  4G 6G13G 9G11
  21172350.296    21172352.928    39831693.880 9 -48121673.928 8
  21256518.826    21256521.424    -4782966.931 8   5416072.445 8
  20169759.679    20169760.447    21780220.515 8 -62069815.482 8
  21474262.521    21474265.588    40084076.475 9 -47899248.927 9
 86  6 13  1 24 11.0800000  0  4G 6G13G 9G11
  21174779.638    21174781.060    39844455.111 9 -48111730.113 8
  21254343.190    21254345.147    -4794401.224 9   5407162.611 8
  20168775.400    20168778.272    21775052.901 7 -62073842.187 8
  21476660.519    21476661.437    40096674.984 9 -47889431.902 9
 86  6 13  1 24 17.0800000  0  4G 6G13G 9G11
  21177211.714    21177213.097    39857236.837 9 -48101770.331 8
  21252170.579    21252174.234    -4805816.481 9   5398267.616 9
  20167796.286    20167798.654    21769907.545 8 -62077851.552 8
  21479060.858    21479062.157    40109285.640 9 -47879605.422 8
 86  6 13  1 24 23.0800000  0  4G 6G13G 9G11
  21179645.911    21179648.726    39870038.990 9 -48091794.623 8
  21250002.206    21250003.243    -4817212.631 9   5389387.507 8
  20166823.057    20166823.461    21764784.534 9 -62081843.519 8
  21481462.496    21481463.194    40121908.378 9 -47869769.526 9
 86  6 13  1 24 29.0800000  0  4G 6G13G 9G11
  21182087.410    21182089.210    39882861.600 9 -48081802.994 9
  21247837.035    21247839.484    -4828589.590 9   5380522.343 8
  20165851.806    20165852.756    21759683.774 8 -62085818.125 7
  21483866.139    21483868.104    40134543.256 9 -47859924.173 9
 86  6 13  1 24 35.0800000  0  4G 6G13G 9G11
  21184531.134    21184533.065    39895704.679 8 -48071795.402 8
  21245676.338    21245677.974    -4839947.422 9   5371672.101 8
  20164886.480    20164886.955    21754605.404 7 -62089775.302 9
  21486273.072    21486275.114    40147190.199 9 -47850069.404 9
 86  6 13  1 24 41.0800000  0  4G 6G13G 9G11
  21186978.727    21186981.546    39908568.190 9 -48061771.889 8
  21243518.440    21243520.110    -4851286.095 9   5362836.760 8
  20163923.381    20163923.877    21749549.307 8 -62093715.124 8
  21488682.065    21488684.581    40159849.177 9 -47840205.269 9
 86  6 13  1 24 47.0800000  0  4G 6G13G 9G11
  21189430.843    21189432.419    39921452.124 9 -48051732.465 8
  21241364.440    21241366.082    -4862605.628 9   5354016.359 8
  20162966.041    20162966.579    21744515.550 8 -62097637.512 8
  21491093.515    21491096.082    40172520.197 9 -47830331.753 9
 86  6 13  1 24 53.0800000  0  4G 6G13G 9G11
  21191886.665    21191888.071    39934356.535 9 -48041677.089 9
  21239213.825    21239216.184    -4873906.000 9   5345210.889 9
  20162010.731    20162012.930    21739504.128 8 -62101542.526 7
  21493507.373    21493508.689    40185203.207 9 -47820448.885 8
 86  6 13  1 24 59.0800000  0  4G 6G13G 9G11
  21194345.677    21194347.761    39947281.348 9 -48031605.813 8
  21237067.118    21237069.603    -4885187.239 8   5336420.319 9
  20161063.428    20161063.453    21734515.144 7 -62105430.039 8
  21495922.389    21495924.138    40197898.232 9 -47810556.650 9
 86  6 13  1 25  5.0800000  0  4G 6G13G 9G11
  21196809.136    21196811.211    39960226.544 9 -48021518.640 8
  21234924.609    21234926.366    -4896449.385 9   5327644.626 8
  20160117.217    20160118.272    21729548.536 7 -62109300.121 8
  21498340.408    21498342.518    40210605.301 9 -47800655.043 9
 86  6 13  1 25 11.0800000  0  4G 6G13G 9G11
  21199277.025    21199277.834    39973192.165 9 -48011415.572 8
  21232784.778    21232786.045    -4907692.426 9   5318883.817 8
  20159175.554    20159177.599    21724604.398 8 -62113152.695 8
  21500761.564    21500763.094    40223324.375 9 -47790744.079 9
 86  6 13  1 25 17.0800000  0  4G 6G13G 9G11
  21201747.536    21201749.810    39986178.210 9 -48001296.582 9
  21230648.349    21230651.257    -4918916.245 9   5310137.992 9
  20158240.598    20158240.808    21719682.653 7 -62116987.821 8
  21503184.044    21503185.672    40236055.425 9 -47780823.785 9
 86  6 13  1 25 23.0800000  0  4G 6G13G 9G11
  21204222.610    21204224.579    39999184.654 9 -47991161.698 9
  21228516.227    21228519.081    -4930120.928 9   5301407.074 9
  20157307.123    20157308.414    21714783.369 8 -62120805.445 8
  21505608.263    21505609.768    40248798.389 9 -47770894.199 9
 86  6 13  1 25 29.0800000  0  4G 6G13G 9G11
  21206701.953    21206703.395    40012211.517 9 -47981010.900 9
  21226388.298    21226390.656    -4941306.459 9   5292691.087 9
  20156379.456    20156380.707    21709906.593 8 -62124605.524 8
  21508036.049    21508037.221    40261553.272 9 -47760955.339 9
 86  6 13  1 25 35.0800000  0  4G 6G13G 9G11
  21209184.892    21209186.319    40025258.704 9 -47970844.261 9
  21224263.261    21224265.198    -4952472.854 9   5283989.994 9
  20155455.710    20155456.948    21705052.212 9 -62128388.169 9
  21510466.036    21510466.590    40274319.983 9 -47751007.250 9
 86  6 13  1 25 41.0800000  0  4G 6G13G 9G11
  21211670.092    21211673.086    40038326.233 9 -47960661.776 9
  21222141.955    21222143.544    -4963620.084 9   5275303.847 8
  20154536.116    20154536.265    21700220.293 8 -62132153.293 8
  21512897.053    21512898.197    40287098.556 9 -47741049.922 9
 86  6 13  1 25 47.0800000  0  4G 6G13G 9G11
  21214162.092    21214163.984    40051414.144 9 -47950463.412 8
  21220024.500    21220025.889    -4974748.081 9   5266632.691 8
  20153621.871    20153621.886    21695410.928 9 -62135900.840 8
  21515330.481    21515331.790    40299888.980 9 -47731083.356 8
 86  6 13  1 25 53.0800000  0  4G 6G13G 9G11
  21216656.926    21216657.893    40064522.368 9 -47940249.209 8
  21217910.576    21217912.909    -4985856.870 9   5257976.496 9
  20152710.518    20152711.615    21690623.990 8 -62139630.918 7
  21517766.884    21517768.629    40312691.212 9 -47721107.596 8
 86  6 13  1 25 59.0800000  0  4G 6G13G 9G11
  21219154.972    21219155.305    40077650.882 9 -47930019.205 9
  21215799.377    21215802.284    -4996946.603 9   5249335.144 8
  20151803.603    20151804.412    21685859.654 9 -62143343.384 7
  21520205.352    21520207.737    40325505.212 9 -47711122.661 9
 86  6 13  1 26  5.0800000  0  4G 6G13G 9G11
  21221656.271    21221658.875    40090799.751 9 -47919773.339 9
  21213694.282    21213695.628    -5008017.106 9   5240708.799 9
  20150900.974    20150902.601    21681117.801 8 -62147038.339 9
  21522645.260    21522647.487    40338330.985 9 -47701128.560 8
 86  6 13  1 26 11.0800000  0  4G 6G13G 9G11
  21224162.133    21224165.463    40103968.961 9 -47909511.621 8
  21211590.153    21211593.025    -5019068.358 9   5232097.434 8
  20150003.732    20150003.854    21676398.575 8 -62150715.666 7
  21525089.305    21525091.514    40351168.511 8 -47691125.289 8
 86  6 13  1 26 17.0800000  0  4G 6G13G 9G11
  21226673.119    21226674.161    40117158.519 9 -47899234.042 8
  21209490.785    21209494.239    -5030100.418 9   5223501.037 8
  20149110.318    20149110.573    21671701.971 8 -62154375.364 9
  21527533.172    21527536.247    40364017.847 9 -47681112.824 9
 86  6 13  1 26 23.0800000  0  4G 6G13G 9G11
  21229186.130    21229188.938    40130368.384 9 -47888940.662 7
  21207395.371    21207397.284    -5041113.309 9   5214919.561 8
  20148220.291    20148222.070    21667027.931 8 -62158017.465 8
  21529981.201    21529984.003    40376878.902 9 -47671091.227 9
 86  6 13  1 26 29.0800000  0  4G 6G13G 9G11
  21231704.408    21231704.842    40143598.486 9 -47878631.486 9
  21205301.932    21205304.910    -5052107.093 9   5206352.975 8
  20147334.971    20147335.678    21662376.507 8 -62161641.947 7
  21532430.362    21532432.186    40389751.653 9 -47661060.516 9
 86  6 13  1 26 35.0800000  0  4G 6G13G 9G11
  21234224.857    21234227.370    40156848.999 9 -47868306.419 8
  21203215.207    21203217.199    -5063081.718 9   5197801.331 8
  20146454.359    20146455.171    21657747.732 8 -62165248.782 8
  21534882.983    21534884.459    40402636.117 9 -47651020.681 8
 86  6 13  1 26 41.0800000  0  4G 6G13G 9G11
  21236749.582    21236752.850    40170119.711 9 -47857965.607 9
  21201129.820    21201132.091    -5074037.090 9   5189264.682 8
  20145578.264    20145577.540    21653141.629 9 -62168837.951 7
  21537337.093    21537339.250    40415532.215 9 -47640971.769 8
 86  6 13  1 26 47.0800000  0  4G 6G13G 9G11
  21239278.913    21239281.084    40183410.627 9 -47847609.051 8
  21199048.360    21199049.770    -5084973.239 9   5180743.015 9
  20144704.655    20144705.956    21648558.107 7 -62172409.532 8
  21539793.834    21539794.744    40428439.971 9 -47630913.782 8
 86  6 13  1 26 53.0800000  0  4G 6G13G 9G11
  21241813.001    21241814.977    40196721.854 9 -47837236.672 8
  21196971.756    21196974.232    -5095890.222 9   5172236.284 8
  20143838.806    20143838.670    21643997.264 8 -62175963.433 8
  21542252.176    21542253.386    40441359.364 9 -47620846.715 9
 86  6 13  1 26 59.0800000  0  4G 6G13G 9G11
  21244349.865    21244350.533    40210053.364 9 -47826848.490 8
  21194897.918    21194899.264    -5106787.961 8   5163744.546 8
  20142973.360    20142974.496    21639459.181 8 -62179499.606 7
  21544711.646    21544714.572    40454290.381 8 -47610770.606 9
 86  6 13  1 27  5.0800000  0  4G 6G13G 9G11
  21246890.785    21246892.687    40223405.156 8 -47816444.499 8
  21192827.708    21192829.307    -5117666.463 9   5155267.789 8
  20142115.469    20142114.703    21634943.781 8 -62183018.086 6
  21547175.085    21547176.836    40467232.978 9 -47600685.469 9
 86  6 13  1 27 11.0800000  0  4G 6G13G 9G11
  21249435.657    21249437.240    40236777.130 9 -47806024.784 8
  21190760.968    21190763.070    -5128525.857 9   5146805.937 9
  20141260.661    20141261.104    21630451.096 8 -62186518.895 7
  21549641.467    21549641.211    40480187.095 9 -47590591.350 9
 86  6 13  1 27 17.0800000  0  4G 6G13G 9G11
  21251983.156    21251985.957    40250169.310 9 -47795589.330 8
  21188698.064    21188700.697    -5139365.979 9   5138359.094 8
  20140410.379    20140409.429    21625981.197 8 -62190001.919 8
  21552107.240    21552108.859    40493152.775 9 -47580488.231 8
 86  6 13  1 27 23.0800000  0  4G 6G13G 9G11
  21254535.833    21254537.401    40263581.716 9 -47785138.094 9
  21186639.570    21186640.813    -5150186.857 9   5129927.248 8
  20139563.273    20139563.763    21621534.035 8 -62193467.244 8
  21554576.752    21554578.507    40506130.027 9 -47570376.086 9
 86  6 13  1 27 29.0800000  0  4G 6G13G 9G11
  21257091.254    21257093.881    40277014.432 9 -47774671.051 8
  21184583.811    21184586.251    -5160988.512 9   5121510.373 9
  20138720.750    20138721.772    21617109.641 8 -62196914.820 7
  21557048.682    21557050.858    40519118.790 9 -47560254.965 8
 86  6 13  1 27 35.0800000  0  4G 6G13G 9G11
  21259651.949    21259653.681    40290467.333 9 -47764188.281 8
  21182531.201    21182534.789    -5171770.967 9   5113108.464 9
  20137882.947    20137884.190    21612708.045 8 -62200344.634 8
  21559522.003    21559524.447    40532119.067 9 -47550124.890 8
 86  6 13  1 27 41.0800000  0  4G 6G13G 9G11
  21262215.610    21262217.162    40303940.354 8 -47753689.826 8
  21180483.093    21180485.819    -5182534.199 8   5104721.538 9
  20137050.127    20137050.811    21608329.232 8 -62203756.695 9
  21561998.111    21562000.750    40545130.784 9 -47539985.892 8
 86  6 13  1 27 47.0800000  0  4G 6G13G 9G11
  21264783.710    21264784.226    40317433.548 9 -47743175.655 9
  21178439.029    21178440.576    -5193278.164 8   5096349.619 8
  20136221.420    20136221.409    21603973.258 9 -62207150.962 7
  21564477.346    21564479.573    40558153.950 9 -47529837.980 9
 86  6 13  1 27 53.0800000  0  4G 6G13G 9G11
  21267355.074    21267356.840    40330946.940 9 -47732645.736 8
  21176398.855    21176400.678    -5204002.865 9   5087992.715 8
  20135397.264    20135397.684    21599640.009 8 -62210527.517 8
  21566957.116    21566958.391    40571188.517 8 -47519681.167 8
 86  6 13  1 27 59.0800000  0  4G 6G13G 9G11
  21269930.130    21269932.449    40344480.537 8 -47722100.090 8
  21174360.392    21174363.631    -5214708.300 8   5079650.824 9
  20134577.490    20134577.057    21595329.679 8 -62213886.228 7
  21569439.876    21569442.607    40584234.531 9 -47509515.443 9
 86  6 13  1 28  5.0800000  0  4G 6G13G 9G11
  21272509.552    21272512.063    40358034.305 8 -47711538.718 9
  21172327.360    21172330.276    -5225394.474 9   5071323.950 8
  20133759.835    20133760.498    21591042.252 8 -62217227.075 8
  21571924.263    21571926.003    40597291.920 9 -47499340.846 8
 86  6 13  1 28 11.0800000  0  4G 6G13G 9G11
  21275092.939    21275093.580    40371608.231 8 -47700961.624 9
  21170297.638    21170299.241    -5236061.399 8   5063012.067 9
  20132949.041    20132949.425    21586777.688 8 -62220550.120 7
  21574411.449    21574412.981    40610360.709 9 -47489157.386 9
 86  6 13  1 28 17.0800000  0  4G 6G13G 9G11
  21277679.979    21277681.241    40385202.279 9 -47690368.874 9
  21168272.302    21168273.582    -5246709.093 9   5054715.164 9
  20132141.803    20132143.001    21582536.007 8 -62223855.323 8
  21576900.256    21576902.703    40623440.816 9 -47478965.104 8
 86  6 13  1 28 23.0800000  0  4G 6G13G 9G11
  21280269.963    21280271.927    40398816.468 9 -47679760.416 9
  21166248.674    21166250.368    -5257337.574 9   5046433.247 9
  20131339.373    20131338.725    21578317.255 8 -62227142.658 8
  21579391.423    21579394.319    40636532.302 9 -47468763.952 8
 86  6 13  1 28 29.0800000  0  4G 6G13G 9G11
  21282865.307    21282866.309    40412450.771 9 -47669136.288 9
  21164230.303    21164232.342    -5267946.812 9   5038166.309 8
  20130540.403    20130540.984    21574121.409 8 -62230412.142 8
  21581884.678    21581888.116    40649635.101 9 -47458553.974 9
 86  6 13  1 28 35.0800000  0  4G 6G13G 9G11
  21285462.647    21285464.490    40426105.168 9 -47658496.495 9
  21162213.710    21162218.000    -5278536.782 9   5029914.387 8
  20129745.925    20129747.063    21569948.498 8 -62233663.764 7
  21584380.376    21584382.585    40662749.149 9 -47448335.233 9
 86  6 13  1 28 41.0800000  0  4G 6G13G 9G11
  21288065.364    21288066.956    40439779.646 9 -47647841.077 9
  21160202.882    21160205.948    -5289107.469 9   5021677.486 9
  20128956.689    20128957.157    21565798.556 8 -62236897.483 8
  21586878.088    21586879.678    40675874.433 9 -47438107.746 9
 86  6 13  1 28 47.0800000  0  4G 6G13G 9G11
  21290671.495    21290673.747    40453474.296 9 -47637169.922 8
  21158195.284    21158197.479    -5299658.928 9   5013455.579 9
  20128171.057    20128171.952    21561671.530 8 -62240113.345 8
  21589379.194    21589379.763    40689010.983 9 -47427871.475 8
 86  6 13  1 28 53.0800000  0  4G 6G13G 9G11
  21293280.859    21293282.839    40467189.052 9 -47626483.097 9
  21156189.888    21156192.849    -5310191.043 9   5005248.742 9
  20127390.458    20127391.270    21557567.558 8 -62243311.251 8
  21591879.792    21591882.940    40702158.746 9 -47417626.465 9
 86  6 13  1 28 59.0800000  0  4G 6G13G 9G11
  21295895.040    21295897.346    40480923.807 9 -47615780.693 9
  21154190.810    21154193.139    -5320703.889 9   4997056.921 9
  20126613.755    20126614.839    21553486.549 8 -62246491.269 7
  21594383.802    21594385.740    40715317.718 9 -47407372.727 9
 86  6 13  1 29  5.0800000  0  4G 6G13G 9G11
  21298511.749    21298513.816    40494678.632 9 -47605062.658 9
  21152192.910    21152196.415    -5331197.480 9   4988880.104 8
  20125841.319    20125842.897    21549428.497 8 -62249653.378 7
  21596890.076    21596892.674    40728487.882 9 -47397110.267 9
 86  6 13  1 29 11.0800000  0  4G 6G13G 9G11
  21301133.820    21301135.878    40508453.521 9 -47594328.988 9
  21150200.252    21150202.362    -5341671.818 9   4980718.289 9
  20125074.202    20125074.728    21545393.492 7 -62252797.539 7
  21599398.319    21599400.085    40741669.132 9 -47386839.170 9
 86  6 13  1 29 17.0800000  0  4G 6G13G 9G11
  21303758.771    21303759.062    40522248.487 8 -47583579.667 8
  21148211.080    21148212.765    -5352126.893 9   4972571.474 9
  20124310.454    20124310.207    21541381.538 8 -62255923.741 7
  21601909.454    21601910.470    40754861.522 9 -47376559.382 8
 86  6 13  1 29 23.0800000  0  4G 6G13G 9G11
  21306387.083    21306388.971    40536063.514 9 -47572814.722 8
  21146224.960    21146227.689    -5362562.686 9   4964439.705 8
  20123550.271    20123552.014    21537392.620 9 -62259031.995 8
  21604421.525    21604424.277    40768065.055 8 -47366270.916 9
 86  6 13  1 29 29.0800000  0  4G 6G13G 9G11
  21309019.527    21309021.314    40549898.536 8 -47562034.175 8
  21144242.689    21144245.160    -5372979.209 9   4956322.934 9
  20122796.117    20122797.638    21533426.844 8 -62262122.200 7
  21606936.302    21606938.149    40781279.726 9 -47355973.776 9
 86  6 13  1 29 35.0800000  0  4G 6G13G 9G11
  21311656.576    21311658.187    40563753.590 9 -47551238.040 8
  21142264.715    21142266.572    -5383376.449 9   4948221.204 8
  20122045.969    20122045.779    21529484.191 9 -62265194.401 8
  21609453.003    21609455.434    40794505.490 9 -47345667.987 9
 86  6 13  1 29 41.0800000  0  4G 6G13G 9G11
  21314297.421    21314299.653    40577628.629 9 -47540426.328 8
  21140289.454    21140291.608    -5393754.480 8   4940134.417 9
  20121301.348    20121300.620    21525564.621 9 -62268248.613 8
  21611971.735    21611974.514    40807742.240 9 -47335353.640 9
 86  6 13  1 29 47.0800000  0  4G 6G13G 9G11
  21316941.364    21316942.262    40591523.723 9 -47529598.983 9
  21138317.392    21138320.010    -5404113.227 9   4932062.682 9
  20120559.676    20120558.865    21521668.106 8 -62271284.863 8
  21614492.414    21614495.381    40820990.008 9 -47325030.701 8
 86  6 13  1 29 53.0800000  0  4G 6G13G 9G11
  21319588.825    21319590.907    40605438.835 9 -47518756.052 9
  21136349.261    21136352.393    -5414452.599 9   4924006.038 9
  20119822.721    20119823.553    21517794.731 8 -62274303.068 8
  21617015.671    21617018.925    40834248.879 9 -47314699.116 8
 86  6 13  1 29 59.0800000  0  4G 6G13G 9G11
  21322241.083    21322242.221    40619373.893 9 -47507897.554 8
  21134386.661    21134389.965    -5424772.680 9   4915964.414 9
  20119090.170    20119089.193    21513944.570 8 -62277303.207 7
  21619541.523    21619544.069    40847518.774 9 -47304358.939 8
 86  6 13  1 30  5.0800000  0  4G 6G13G 9G11
  21324896.651    21324897.926    40633328.907 9 -47497023.532 8
  21132426.321    21132429.051    -5435073.528 9   4907937.793 8
  20118361.781    20118361.430    21510117.503 8 -62280285.328 8
  21622068.749    21622070.692    40860799.678 9 -47294010.189 9
 86  6 13  1 30 11.0800000  0  4G 6G13G 9G11
  21327555.619    21327557.205    40647303.937 9 -47486133.905 9
  21130470.378    21130471.887    -5445355.053 9   4899926.213 9
  20117637.245    20117637.453    21506313.605 8 -62283249.412 8
  21624598.872    21624599.919    40874091.503 9 -47283652.920 9
 86  6 13  1 30 17.0800000  0  4G 6G13G 9G11
  21330219.386    21330221.473    40661298.933 8 -47475228.701 8
  21128516.354    21128519.933    -5455617.230 8   4891929.722 8
  20116918.321    20116918.861    21502532.882 8 -62286195.433 7
  21627129.234    21627131.151    40887394.323 9 -47273287.085 9
 86  6 13  1 30 23.0800000  0  4G 6G13G 9G11
  21332885.798    21332887.195    40675313.877 9 -47464307.980 9
  21126568.846    21126571.032    -5465860.083 9   4883948.278 9
  20116203.546    20116202.160    21498775.466 9 -62289123.293 8
  21629663.722    21629665.215    40900708.072 8 -47262912.745 9
 86  6 13  1 30 29.0800000  0  4G 6G13G 9G11
  21335556.632    21335558.160    40689348.761 8 -47453371.713 8
  21124622.513    21124626.115    -5476083.595 9   4875981.919 8
  20115491.779    20115493.393    21495041.329 9 -62292033.010 7
  21632198.535    21632200.501    40914032.727 9 -47252529.900 9
 86  6 13  1 30 35.0800000  0  4G 6G13G 9G11
  21338231.023    21338233.144    40703403.595 9 -47442419.898 9
  21122680.872    21122682.909    -5486287.862 9   4868030.542 8
  20114786.845    20114786.177    21491330.383 8 -62294924.661 7
  21634735.907    21634737.622    40927368.288 9 -47242138.562 9
 86  6 13  1 30 41.0800000  0  4G 6G13G 9G11
  21340908.944    21340912.167    40717478.326 9 -47431452.581 8
  21120742.709    21120744.423    -5496472.858 9   4860094.196 8
  20114084.011    20114083.735    21487642.601 8 -62297798.263 8
  21637275.598    21637278.670    40940714.700 9 -47231738.751 9
 86  6 13  1 30 47.0800000  0  4G 6G13G 9G11
  21343591.751    21343592.737    40731572.928 8 -47420469.780 9
  21118808.395    21118810.669    -5506638.521 9   4852172.900 8
  20113387.043    20113387.168    21483978.212 8 -62300653.623 8
  21639817.066    21639820.178    40954071.932 9 -47221330.522 8
 86  6 13  1 30 53.0800000  0  4G 6G13G 9G11
  21346277.030    21346279.488    40745687.448 9 -47409471.457 9
  21116878.188    21116879.940    -5516784.844 9   4844266.676 8
  20112694.411    20112695.425    21480336.968 8 -62303490.961 8
  21642361.050    21642363.821    40967439.950 9 -47210913.897 9
 86  6 13  1 30 59.0800000  0  4G 6G13G 9G11
  21348967.580    21348968.026    40759821.868 9 -47398457.631 9
  21114950.737    21114953.076    -5526911.897 9   4836375.482 9
  20112006.024    20112006.089    21476719.039 8 -62306310.122 8
  21644906.770    21644909.516    40980818.764 9 -47200488.854 9
 86  6 13  1 31  5.0800000  0  4G 6G13G 9G11
  21351660.252    21351662.675    40773976.195 8 -47387428.288 8
  21113027.157    21113029.624    -5537019.684 9   4828499.282 8
  20111321.850    20111322.086    21473124.508 8 -62309111.056 8
  21647454.639    21647456.831    40994208.346 9 -47190055.412 8
 86  6 13  1 31 11.0800000  0  4G 6G13G 9G11
  21354358.598    21354359.968    40788150.390 8 -47376383.460 9
  21111107.855    21111109.245    -5547108.169 9   4820638.142 8
  20110640.759    20110642.798    21469553.203 8 -62311893.900 7
  21650005.363    21650006.860    41007608.675 9 -47179613.594 9
 86  6 13  1 31 17.0800000  0  4G 6G13G 9G11
  21357059.064    21357060.788    40802344.469 9 -47365323.142 8
  21109191.164    21109192.709    -5557177.183 9   4812792.158 9
  20109966.477    20109968.943    21466005.302 8 -62314658.499 7
  21652557.233    21652560.024    41021019.811 9 -47169163.362 8
 86  6 13  1 31 23.0800000  0  4G 6G13G 9G11
  21359763.636    21359765.855    40816558.406 8 -47354247.358 9
  21107278.720    21107281.612    -5567226.915 9   4804961.203 8
  20109296.632    20109296.490    21462480.708 8 -62317404.934 8
  21655111.106    21655113.855    41034441.665 9 -47158704.784 9
 86  6 13  1 31 29.0800000  0  4G 6G13G 9G11
  21362472.947    21362474.126    40830792.186 9 -47343156.105 8
  21105370.143    21105371.582    -5577257.355 9   4797145.289 8
  20108630.084    20108630.860    21458979.510 8 -62320133.145 8
  21657667.281    21657670.364    41047874.190 9 -47148237.883 9
 86  6 13  1 31 35.0800000  0  4G 6G13G 9G11
  21365184.482    21365187.081    40845045.775 8 -47332049.411 8
  21103464.535    21103467.422    -5587268.536 9   4789344.361 8
  20107968.174    20107968.285    21455501.686 9 -62322843.134 8
  21660225.227    21660227.989    41061317.419 9 -47137762.632 8
 86  6 13  1 31 41.0800000  0  4G 6G13G 9G11
  21367901.500    21367903.010    40859319.159 8 -47320927.305 9
  21101564.617    21101565.158    -5597260.325 9   4781558.573 8
  20107311.627    20107310.901    21452047.272 8 -62325534.888 8
  21662786.198    21662787.961    41074771.304 9 -47127279.094 8
 86  6 13  1 31 47.0800000  0  4G 6G13G 9G11
  21370620.952    21370622.306    40873612.390 8 -47309789.724 8
  21099665.087    21099667.863    -5607232.722 9   4773787.870 9
  20106658.072    20106658.614    21448616.259 9 -62328208.403 8
  21665348.757    21665349.311    41088235.812 9 -47116787.275 8
 86  6 13  1 31 53.0800000  0  4G 6G13G 9G11
  21373345.449    21373346.102    40887925.343 9 -47298636.779 9
  21097772.901    21097773.661    -5617185.803 9   4766032.236 8
  20106009.005    20106010.301    21445208.613 8 -62330863.711 7
  21667911.162    21667914.537    41101710.907 9 -47106287.198 9
 86  6 13  1 31 59.0800000  0  4G 6G13G 9G11
  21376072.385    21376073.960    40902258.125 9 -47287468.390 8
  21095881.579    21095882.710    -5627119.513 9   4758291.682 9
  20105365.062    20105366.471    21441824.429 8 -62333500.735 9
  21670478.329    21670481.720    41115196.635 9 -47095778.844 9
 86  6 13  1 32  5.0800000  0  4G 6G13G 9G11
  21378804.760    21378804.549    40916610.725 9 -47276284.548 8
  21093994.839    21093997.104    -5637033.914 9   4750566.193 8
  20104725.300    20104727.611    21438463.774 8 -62336119.435 7
  21673046.836    21673049.169    41128692.964 9 -47085262.232 9
 86  6 13  1 32 11.0800000  0  4G 6G13G 9G11
  21381538.674    21381539.595    40930983.051 9 -47265085.342 8
  21092112.214    21092113.490    -5646928.964 9   4742855.769 8
  20104090.204    20104090.719    21435126.491 8 -62338719.914 8
  21675616.458    21675619.685    41142199.859 9 -47074737.380 9
 86  6 13  1 32 17.0800000  0  4G 6G13G 9G11
  21384276.998    21384278.352    40945375.140 8 -47253870.728 8
  21090232.707    21090234.454    -5656804.642 9   4735160.443 8
  20103460.250    20103461.063    21431812.734 8 -62341302.062 8
  21678189.607    21678191.010    41155717.362 9 -47064204.268 9
 86  6 13  1 32 23.0800000  0  4G 6G13G 9G11
  21387019.926    21387021.117    40959787.023 9 -47242640.692 8
  21088357.116    21088358.699    -5666661.005 9   4727480.157 7
  20102833.952    20102834.256    21428522.414 8 -62343865.948 7
  21680763.297    21680767.303    41169245.376 9 -47053662.954 9
 86  6 13  1 32 29.0800000  0  4G 6G13G 9G11
  21389765.435    21389766.918    40974218.615 8 -47231395.299 8
  21086484.338    21086486.190    -5676498.018 9   4719814.962 8
  20102212.075    20102212.996    21425255.682 8 -62346411.454 8
  21683339.949    21683342.221    41182783.945 9 -47043113.421 9
 86  6 13  1 32 35.0800000  0  4G 6G13G 9G11
  21392516.289    21392516.919    40988669.927 9 -47220134.538 9
  21084616.952    21084618.948    -5686315.785 9   4712164.766 8
  20101595.575    20101594.851    21422012.412 8 -62348938.675 8
  21685917.817    21685919.625    41196332.982 9 -47032555.740 8
 86  6 13  1 32 41.0800000  0  4G 6G13G 9G11
  21395269.345    21395271.080    41003140.996 9 -47208858.383 8
  21082752.678    21082752.559    -5696114.238 9   4704529.618 8
  20100982.710    20100983.819    21418792.644 8 -62351447.593 8
  21688499.141    21688500.876    41209892.442 9 -47021989.920 9
 86  6 13  1 32 47.0800000  0  4G 6G13G 9G11
  21398027.530    21398027.231    41017631.763 9 -47197566.879 8
  21080891.295    21080893.099    -5705893.323 8   4696909.545 8
  20100373.560    20100374.237    21415596.455 9 -62353938.131 8
  21691080.688    21691082.918    41223462.318 9 -47011415.996 8
 86  6 13  1 32 53.0800000  0  4G 6G13G 9G11
  21400788.576    21400789.233    41032142.195 9 -47186260.050 9
  21079033.649    21079035.756    -5715653.147 9   4689304.503 8
  20099771.081    20099771.212    21412423.781 8 -62356410.341 8
  21693664.902    21693668.474    41237042.578 9 -47000833.969 9
 86  6 13  1 32 59.0800000  0  4G 6G13G 9G11
  21403553.337    21403553.740    41046672.274 9 -47174937.921 8
  21077181.438    21077182.544    -5725393.637 9   4681714.515 9
  20099170.813    20099173.180    21409274.655 7 -62358864.202 8
  21696251.505    21696253.937    41250633.243 9 -46990243.856 8
 86  6 13  1 33  5.0800000  0  4G 6G13G 9G11
  21406321.480    21406322.579    41061222.059 9 -47163600.434 9
  21075330.634    21075333.875    -5735114.690 9   4674139.677 9
  20098576.596    20098577.094    21406149.178 8 -62361299.647 8
  21698840.089    21698842.196    41264234.306 9 -46979645.627 9
 86  6 13  1 33 11.0800000  0  4G 6G13G 9G11
  21409095.055    21409095.606    41075791.524 9 -47152247.610 9
  21073484.788    21073486.720    -5744816.368 9   4666579.929 9
  20097986.888    20097987.239    21403047.265 7 -62363716.724 8
  21701429.735    21701431.848    41277845.719 9 -46969039.328 8
 86  6 13  1 33 17.0800000  0  4G 6G13G 9G11
  21411870.871    21411871.355    41090380.675 8 -47140879.443 8
  21071642.372    21071644.268    -5754498.678 9   4659035.273 8
  20097400.680    20097401.197    21399969.017 8 -62366115.376 7
  21704021.228    21704024.188    41291467.504 9 -46958424.956 9
 86  6 13  1 33 23.0800000  0  4G 6G13G 9G11
  21414650.941    21414652.307    41104989.436 9 -47129495.996 8
  21069803.577    21069805.406    -5764161.582 9   4651505.751 8
  20096818.436    20096819.351    21396914.359 8 -62368495.620 8
  21706616.101    21706619.009    41305099.598 9 -46947802.542 9
 86  6 13  1 33 29.0800000  0  4G 6G13G 9G11
  21417434.136    21417435.613    41119617.851 9 -47118097.245 9
  21067968.051    21067969.467    -5773805.185 9   4643991.264 8
  20096242.476    20096243.194    21393883.267 8 -62370857.503 8
  21709212.502    21709214.910    41318742.023 9 -46937172.082 9
 86  6 13  1 33 35.0800000  0  4G 6G13G 9G11
  21420221.539    21420222.444    41134265.894 9 -47106683.187 8
  21066136.774    21066138.502    -5783429.463 9   4636491.833 8
  20095670.464    20095668.364    21390875.874 9 -62373200.932 8
  21711810.332    21711812.073    41332394.774 9 -46926533.580 9
 86  6 13  1 33 41.0800000  0  4G 6G13G 9G11
  21423012.944    21423015.307    41148933.546 9 -47095253.849 8
  21064309.459    21064310.753    -5793034.432 9   4629007.444 9
  20095102.718    20095102.454    21387892.172 8 -62375525.891 7
  21714409.536    21714411.726    41346057.844 9 -46915887.039 9
 86  6 13  1 33 47.0800000  0  4G 6G13G 9G11
  21425808.071    21425808.854    41163620.805 9 -47083809.240 8
  21062485.160    21062487.492    -5802620.074 9   4621538.115 8
  20094538.829    20094539.483    21384932.154 8 -62377832.401 7
  21717011.300    21717013.803    41359731.127 9 -46905232.529 8
 86  6 13  1 33 53.0800000  0  4G 6G13G 9G11
  21428606.667    21428608.104    41178327.649 9 -47072349.364 8
  21060665.004    21060666.009    -5812186.352 9   4614083.886 8
  20093979.881    20093979.549    21381995.787 9 -62380120.477 8
  21719616.285    21719618.298    41373414.624 9 -46894570.070 9
 86  6 13  1 33 59.0800000  0  4G 6G13G 9G11
  21431408.976    21431410.638    41193054.035 9 -47060874.264 8
  21058847.323    21058849.878    -5821733.235 9   4606644.765 8
  20093425.866    20093427.487    21379083.183 8 -62382390.048 7
  21722222.281    21722223.862    41387108.322 9 -46883899.656 9
 86  6 13  1 34  5.0800000  0  4G 6G13G 9G11
  21434214.692    21434216.455    41207800.062 9 -47049383.867 9
  21057034.465    21057036.675    -5831260.749 9   4599220.728 9
  20092876.559    20092876.812    21376194.307 8 -62384641.123 7
  21724829.649    21724832.240    41400812.213 9 -46873221.308 9
 86  6 13  1 34 11.0800000  0  4G 6G13G 9G11
  21437025.190    21437025.868    41222565.597 9 -47037878.261 8
  21055225.574    21055226.876    -5840768.907 9   4591811.779 8
  20092330.780    20092331.346    21373329.243 8 -62386873.640 8
  21727439.060    21727442.142    41414526.205 9 -46862535.072 9
 86  6 13  1 34 17.0800000  0  4G 6G13G 9G11
  21439838.378    21439839.900    41237350.728 9 -47026357.384 8
  21053420.678    21053421.611    -5850257.630 9   4584417.981 8
  20091791.163    20091791.070    21370487.767 9 -62389087.771 7
  21730051.766    21730053.162    41428250.383 9 -46851840.910 8
 86  6 13  1 34 23.0800000  0  4G 6G13G 9G11
  21442655.596    21442657.171    41252155.398 9 -47014821.271 9
  21051617.725    21051619.798    -5859726.952 9   4577039.292 8
  20091254.428    20091254.327    21367670.126 8 -62391283.334 8
  21732665.206    21732666.609    41441984.707 9 -46841138.838 9
 86  6 13  1 34 29.0800000  0  4G 6G13G 9G11
  21445476.398    21445478.631    41266979.590 9 -47003269.964 8
  21049819.017    21049821.486    -5869176.939 9   4569675.667 8
  20090723.185    20090724.562    21364876.274 8 -62393460.365 7
  21735280.456    21735282.117    41455729.159 9 -46830428.886 8
 86  6 13  1 34 35.0800000  0  4G 6G13G 9G11
  21448301.490    21448301.937    41281823.286 9 -46991703.457 8
  21048024.821    21048025.948    -5878607.551 9   4562327.144 9
  20090194.809    20090195.940    21362106.237 9 -62395618.841 7
  21737897.699    21737898.650    41469483.712 9 -46819711.057 8
 86  6 13  1 34 41.0800000  0  4G 6G13G 9G11
  21451129.785    21451130.357    41296686.506 9 -46980121.726 8
  21046234.861    21046236.250    -5888018.769 9   4554993.728 8
  20089672.581    20089673.559    21359359.928 8 -62397758.833 7
  21740516.136    21740518.778    41483248.310 9 -46808985.399 8
 86  6 13  1 34 47.0800000  0  4G 6G13G 9G11
  21453961.913    21453962.793    41311569.224 9 -46968524.820 8
  21044446.036    21044449.261    -5897410.598 9   4547675.437 8
  20089154.885    20089155.889    21356637.448 8 -62399880.231 8
  21743138.285    21743138.770    41497022.999 9 -46798251.878 8
 86  6 13  1 34 53.0800000  0  4G 6G13G 9G11
  21456797.678    21456799.132    41326471.414 9 -46956912.728 9
  21042662.944    21042664.542    -5906783.108 8   4540372.182 7
  20088640.539    20088642.566    21353938.813 8 -62401983.073 8
  21745761.236    21745763.044    41510807.707 9 -46787510.548 9
 86  6 13  1 34 59.0800000  0  4G 6G13G 9G11
  21459636.965    21459638.118    41341393.137 9 -46945285.419 8
  21040882.847    21040885.263    -5916136.210 9   4533084.051 8
  20088131.583    20088131.447    21351264.006 8 -62404067.336 7
  21748386.223    21748387.484    41524602.437 9 -46776761.406 9
 86  6 13  1 35  5.0800000  0  4G 6G13G 9G11
  21462480.378    21462480.925    41356334.288 9 -46933642.969 8
  21039107.543    21039109.683    -5925470.020 9   4525810.965 8
  20087628.394    20087627.924    21348613.037 8 -62406133.014 8
  21751012.544    21751014.922    41538407.129 9 -46766004.513 9
 86  6 13  1 35 11.0800000  0  4G 6G13G 9G11
  21465327.274    21465328.718    41371294.909 9 -46921985.350 9
  21037334.869    21037336.307    -5934784.408 8   4518553.002 8
  20087128.646    20087128.499    21345985.913 8 -62408180.124 8
  21753641.588    21753643.341    41552221.784 9 -46755239.833 9
 86  6 13  1 35 17.0800000  0  4G 6G13G 9G11
  21468177.637    21468179.288    41386274.949 9 -46910312.597 8
  21035566.205    21035567.652    -5944079.504 9   4511310.077 8
  20086632.729    20086633.401    21343382.805 8 -62410208.522 8
  21756272.438    21756275.346    41566046.346 9 -46744467.453 9
 86  6 13  1 35 23.0800000  0  4G 6G13G 9G11
  21471031.518    21471033.520    41401274.395 9 -46898624.713 9
  21033800.556    21033802.987    -5953355.265 9   4504082.221 8
  20086142.347    20086141.187    21340803.501 8 -62412218.379 7
  21758905.233    21758906.830    41579880.849 9 -46733687.329 9
 86  6 13  1 35 29.0800000  0  4G 6G13G 9G11
  21473889.723    21473890.650    41416293.282 9 -46886921.697 8
  21032039.004    21032040.837    -5962611.650 9   4496869.450 9
  20085655.882    20085656.592    21338248.046 8 -62414209.637 8
  21761539.353    21761542.093    41593725.316 9 -46722899.429 9
 86  6 13  1 35 35.0800000  0  4G 6G13G 9G11
  21476751.785    21476752.782    41431331.524 8 -46875203.584 9
  21030281.488    21030283.478    -5971848.660 8   4489671.790 9
  20085174.086    20085174.962    21335716.465 8 -62416182.296 7
  21764175.895    21764177.809    41607579.640 8 -46712103.852 9
 86  6 13  1 35 41.0800000  0  4G 6G13G 9G11
  21479617.407    21479617.887    41446389.142 9 -46863470.385 8
  21028527.630    21028529.849    -5981066.308 9   4482489.217 8
  20084697.189    20084696.759    21333208.849 9 -62418136.289 8
  21766814.455    21766816.972    41621443.825 9 -46701300.592 8
 86  6 13  1 35 47.0800000  0  4G 6G13G 9G11
  21482485.478    21482485.931    41461466.156 9 -46851722.063 8
  21026777.932    21026778.786    -5990264.575 9   4475321.736 8
  20084223.204    20084224.510    21330725.104 9 -62420071.676 8
  21769454.718    21769457.059    41635317.872 9 -46690489.652 8
 86  6 13  1 35 53.0800000  0  4G 6G13G 9G11
  21485358.679    21485360.524    41476562.568 9 -46839958.634 8
  21025030.639    21025032.912    -5999443.509 8   4468169.323 8
  20083755.668    20083756.187    21328265.367 8 -62421988.350 8
  21772097.002    21772098.352    41649201.751 9 -46679671.049 9
 86  6 13  1 35 59.0800000  0  4G 6G13G 9G11
  21488235.311    21488235.878    41491678.311 9 -46828180.139 8
  21023286.465    21023288.985    -6008603.084 9   4461031.996 8
  20083293.413    20083293.188    21325829.620 8 -62423886.333 8
  21774740.697    21774742.200    41663095.428 9 -46668844.805 9
 86  6 13  1 36  5.0800000  0  4G 6G13G 9G11
  21491115.551    21491116.212    41506813.402 9 -46816386.570 8
  21021547.539    21021549.998    -6017743.346 9   4453909.730 9
  20082833.365    20082834.496    21323417.741 8 -62425765.711 7
  21777386.204    21777387.402    41676998.901 9 -46658010.933 9
 86  6 13  1 36 11.0800000  0  4G 6G13G 9G11
  21493998.885    21494000.373    41521967.862 9 -46804577.911 9
  21019812.393    21019814.540    -6026864.166 9   4446802.587 8
  20082378.505    20082378.005    21321029.984 8 -62427626.312 7
  21780033.430    21780035.702    41690912.123 9 -46647169.460 8
 86  6 13  1 36 17.0800000  0  4G 6G13G 9G11
  21496886.706    21496888.052    41537141.633 9 -46792754.196 9
  21018079.961    21018082.183    -6035965.588 9   4439710.581 8
  20081929.347    20081929.400    21318666.237 9 -62429468.183 7
  21782683.167    21782685.503    41704835.095 9 -46636320.404 9
 86  6 13  1 36 23.0800000  0  4G 6G13G 9G11
  21499777.567    21499777.952    41552334.745 9 -46780915.413 8
  21016351.962    21016354.455    -6045047.704 9   4432633.617 8
  20081483.876    20081484.808    21316326.390 8 -62431291.441 8
  21785334.563    21785336.436    41718767.761 9 -46625463.783 9
 86  6 13  1 36 29.0800000  0  4G 6G13G 9G11
  21502672.052    21502674.087    41567547.106 9 -46769061.617 9
  21014628.098    21014629.089    -6054110.393 9   4425571.784 8
  20081043.764    20081044.165    21314010.660 9 -62433095.915 7
  21787988.027    21787989.924    41732710.161 9 -46614599.568 9
 86  6 13  1 36 35.0800000  0  4G 6G13G 9G11
  21505571.467    21505572.144    41582778.795 9 -46757192.773 8
  21012906.114    21012908.982    -6063153.808 9   4418524.982 8
  20080607.578    20080607.070    21311718.943 9 -62434881.661 8
  21790643.126    21790644.513    41746662.223 9 -46603727.840 9
 86  6 13  1 36 41.0800000  0  4G 6G13G 9G11
  21508473.428    21508474.106    41598029.717 9 -46745308.946 8
  21011189.559    21011191.440    -6072177.868 9   4411493.246 9
  20080175.787    20080175.208    21309451.306 8 -62436648.648 7
  21793299.599    21793301.734    41760623.997 9 -46592848.527 9
 86  6 13  1 36 47.0800000  0  4G 6G13G 9G11
  21511379.623    21511380.112    41613299.924 9 -46733410.086 9
  21009476.187    21009478.564    -6081182.482 9   4404476.672 9
  20079747.674    20079747.579    21307207.728 7 -62438396.894 8
  21795958.114    21795960.689    41774595.433 9 -46581961.700 9
 86  6 13  1 36 53.0800000  0  4G 6G13G 9G11
  21514288.743    21514289.554    41628589.446 9 -46721496.184 9
  21007766.340    21007767.327    -6090167.636 9   4397475.259 8
  20079325.631    20079325.990    21304988.214 8 -62440126.390 8
  21798618.726    21798620.456    41788576.508 9 -46571067.358 9
 86  6 13  1 36 59.0800000  0  4G 6G13G 9G11
  21517202.005    21517203.780    41643898.182 9 -46709567.301 8
  21006059.181    21006062.713    -6099133.440 9   4390488.912 8
  20078908.612    20078908.814    21302792.840 9 -62441837.061 7
  21801280.694    21801282.584    41802567.175 9 -46560165.534 9
 86  6 13  1 37  5.0800000  0  4G 6G13G 9G11
  21520118.357    21520119.406    41659226.127 9 -46697623.459 8
  21004356.801    21004359.556    -6108079.934 8   4383517.637 8
  20078494.658    20078495.987    21300621.491 8 -62443529.031 7
  21803945.231    21803947.503    41816567.472 9 -46549256.222 8
 86  6 13  1 37 11.0800000  0  4G 6G13G 9G11
  21523039.494    21523040.768    41674573.350 9 -46685664.594 8
  21002658.674    21002660.512    -6117007.005 9   4376561.477 8
  20078086.882    20078086.904    21298474.286 8 -62445202.176 8
  21806611.592    21806612.987    41830577.358 9 -46538339.428 9
 86  6 13  1 37 17.0800000  0  4G 6G13G 9G11
  21525963.979    21525964.384    41689939.705 9 -46673690.803 7
  21000964.862    21000965.971    -6125914.718 8   4369620.405 8
  20077682.434    20077683.368    21296351.240 8 -62446856.502 7
  21809278.893    21809280.294    41844596.800 9 -46527415.193 9
 86  6 13  1 37 23.0800000  0  4G 6G13G 9G11
  21528891.379    21528892.331    41705325.247 9 -46661702.074 8
  20999272.443    20999274.164    -6134803.061 9   4362694.434 8
  20077282.680    20077283.288    21294252.210 8 -62448492.110 8
  21811949.360    21811949.322    41858625.725 9 -46516483.562 9
 86  6 13  1 37 29.0800000  0  4G 6G13G 9G11
  21531822.677    21531823.388    41720729.998 9 -46649698.380 8
  20997584.446    20997587.598    -6143672.032 9   4355783.555 8
  20076888.313    20076888.882    21292177.268 8 -62450108.944 7
  21814620.438    21814622.840    41872664.123 9 -46505544.558 9
 86  6 13  1 37 35.0800000  0  4G 6G13G 9G11
  21534757.603    21534758.512    41736153.925 9 -46637679.742 8
  20995900.605    20995903.178    -6152521.564 9   4348887.811 8
  20076498.281    20076499.395    21290126.530 8 -62451706.921 7
  21817293.662    21817295.608    41886711.991 9 -46494598.167 9
 86  6 13  1 37 41.0800000  0  4G 6G13G 9G11
  21537696.914    21537697.960    41751596.976 9 -46625646.196 8
  20994220.006    20994223.020    -6161351.835 9   4342007.092 9
  20076112.932    20076113.128    21288100.014 8 -62453286.021 7
  21819968.209    21819969.944    41900769.348 9 -46483644.386 9
 86  6 13  1 37 47.0800000  0  4G 6G13G 9G11
  21540638.706    21540639.598    41767059.149 9 -46613597.759 8
  20992544.357    20992544.953    -6170162.712 9   4335141.474 9
  20075731.488    20075731.662    21286097.679 8 -62454846.287 8
  21822645.952    21822647.221    41914836.166 9 -46472683.225 9
 86  6 13  1 37 53.0800000  0  4G 6G13G 9G11
  21543585.195    21543585.487    41782540.484 9 -46601534.387 9
  20990870.067    20990872.763    -6178954.110 9   4328291.040 8
  20075353.965    20075355.503    21284119.560 8 -62456387.669 7
  21825324.114    21825325.625    41928912.443 9 -46461714.711 9
 86  6 13  1 37 59.0800000  0  4G 6G13G 9G11
  21546534.607    21546536.281    41798040.920 9 -46589456.126 8
  20989200.585    20989204.016    -6187726.191 9   4321455.651 8
  20074983.851    20074983.646    21282165.635 8 -62457910.206 7
  21828004.767    21828006.407    41942998.114 9 -46450738.856 9
 86  6 13  1 38  5.0800000  0  4G 6G13G 9G11
  21549487.507    21549489.433    41813560.530 9 -46577362.924 9
  20987535.238    20987537.683    -6196478.900 8   4314635.364 9
  20074616.456    20074616.060    21280235.897 8 -62459413.904 7
  21830686.188    21830689.221    41957093.162 9 -46439755.714 9
 86  6 13  1 38 11.0800000  0  4G 6G13G 9G11
  21552444.878    21552445.684    41829099.216 9 -46565254.875 9
  20985873.297    20985875.955    -6205212.322 9   4307830.113 8
  20074253.448    20074252.797    21278330.378 9 -62460898.722 8
  21833370.885    21833372.439    41971197.534 9 -46428765.297 8
 86  6 13  1 38 17.0800000  0  4G 6G13G 9G11
  21555406.053    21555406.410    41844656.988 9 -46553131.940 8
  20984215.707    20984217.482    -6213926.283 9   4301040.019 9
  20073896.236    20073895.929    21276449.137 8 -62462364.628 8
  21836055.658    21836058.071    41985311.315 9 -46417767.551 8
 86  6 13  1 38 23.0800000  0  4G 6G13G 9G11
  21558369.252    21558370.674    41860233.856 9 -46540994.125 8
  20982560.578    20982562.251    -6222620.897 9   4294264.996 8
  20073542.731    20073542.938    21274592.057 8 -62463811.706 7
  21838743.834    21838744.986    41999434.435 9 -46406762.517 9
 86  6 13  1 38 29.0800000  0  4G 6G13G 9G11
  21561337.065    21561338.778    41875829.735 9 -46528841.498 9
  20980910.574    20980911.897    -6231296.121 9   4287505.087 9
  20073192.986    20073193.336    21272759.299 8 -62465239.825 7
  21841432.989    21841435.817    42013566.957 9 -46395750.157 9
 86  6 13  1 38 35.0800000  0  4G 6G13G 9G11
  21564308.856    21564309.771    41891444.721 9 -46516673.976 8
  20979262.476    20979265.587    -6239951.999 9   4280760.249 8
  20072849.633    20072849.755    21270950.875 9 -62466648.989 7
  21844124.027    21844126.428    42027708.735 9 -46384730.601 9
 86  6 13  1 38 41.0800000  0  4G 6G13G 9G11
  21567283.449    21567284.480    41907078.743 9 -46504491.630 9
  20977619.394    20977622.435    -6248588.509 9   4274030.506 8
  20072510.081    20072508.716    21269166.719 8 -62468039.254 7
  21846817.299    21846819.058    42041859.805 9 -46373703.801 9
 86  6 13  1 38 47.0800000  0  4G 6G13G 9G11
  21570262.503    21570263.166    41922731.799 9 -46492294.450 9
  20975979.552    20975981.467    -6257205.597 9   4267315.901 9
  20072175.693    20072175.460    21267406.867 9 -62469410.550 7
  21849511.536    21849513.012    42056020.146 9 -46362669.772 9
 86  6 13  1 38 53.0800000  0  4G 6G13G 9G11
  21573245.370    21573246.235    41938403.872 9 -46480082.446 8
  20974345.105    20974346.631    -6265803.324 9   4260616.381 9
  20071844.355    20071844.626    21265671.318 8 -62470762.941 7
  21852207.846    21852209.809    42070189.726 8 -46351628.541 8
 86  6 13  1 38 59.0800000  0  4G 6G13G 9G11
  21576231.352    21576231.889    41954094.901 9 -46467855.677 8
  20972711.290    20972713.037    -6274381.674 9   4253931.960 8
  20071519.219    20071519.738    21263960.038 9 -62472096.397 7
  21854906.060    21854907.631    42084368.527 9 -46340580.130 8
 86  6 13  1 39  5.0800000  0  4G 6G13G 9G11
  21579219.973    21579220.558    41969804.942 9 -46455614.083 9
  20971081.801    20971084.718    -6282940.624 9   4247262.651 8
  20071198.683    20071198.450    21262273.148 7 -62473410.860 7
  21857605.651    21857608.005    42098556.539 9 -46329524.537 9
 86  6 13  1 39 11.0800000  0  4G 6G13G 9G11
  21582213.569    21582213.946    41985533.983 8 -46443357.700 9
  20969457.729    20969459.385    -6291480.210 9   4240608.430 8
  20070881.838    20070882.205    21260610.601 8 -62474706.351 7
  21860307.513    21860309.867    42112753.694 9 -46318461.819 9
 86  6 13  1 39 17.0800000  0  4G 6G13G 9G11
  21585210.484    21585211.365    42001281.934 9 -46431086.582 8
  20967835.886    20967839.184    -6300000.462 9   4233969.285 8
  20070568.790    20070570.860    21258972.310 8 -62475982.939 7
  21863010.640    21863012.383    42126960.007 9 -46307391.970 8
 86  6 13  1 39 23.0800000  0  4G 6G13G 9G11
  21588210.893    21588211.044    42017048.871 9 -46418800.650 7
  20966217.702    20966219.898    -6308501.429 8   4227345.148 9
  20070262.750    20070262.909    21257358.490 8 -62477240.464 7
  21865716.139    21865718.022    42141175.484 9 -46296314.969 9
 86  6 13  1 39 29.0800000  0  4G 6G13G 9G11
  21591215.249    21591215.756    42032834.794 9 -46406499.933 9
  20964603.732    20964606.785    -6316983.003 9   4220736.142 8
  20069960.509    20069960.986    21255769.038 9 -62478478.981 7
  21868422.135    21868425.076    42155400.149 9 -46285230.819 9
 86  6 13  1 39 35.0800000  0  4G 6G13G 9G11
  21594222.412    21594222.188    42048639.673 9 -46394184.453 8
  20962993.570    20962996.552    -6325445.180 9   4214142.249 8
  20069662.836    20069663.194    21254204.029 7 -62479698.484 7
  21871131.377    21871133.410    42169633.939 9 -46274139.556 9
 86  6 13  1 39 41.0800000  0  4G 6G13G 9G11
  21597233.872    21597233.509    42064463.444 9 -46381854.243 9
  20961387.603    20961389.593    -6333887.947 9   4207563.469 9
  20069370.408    20069370.233    21252663.416 7 -62480898.959 6
  21873842.431    21873844.294    42183876.832 9 -46263041.206 8
 86  6 13  1 39 47.0800000  0  4G 6G13G 9G11
  21600247.987    21600248.174    42080306.106 9 -46369509.319 9
  20959784.339    20959786.182    -6342311.335 9   4200999.793 8
  20069080.739    20069080.672    21251147.210 8 -62482080.406 8
  21876553.095    21876555.682    42198128.749 9 -46251935.823 8
 86  6 13  1 39 53.0800000  0  4G 6G13G 9G11
  21603265.473    21603268.171    42096167.717 8 -46357149.636 9
  20958185.148    20958187.692    -6350715.418 9   4194451.168 8
  20068796.600    20068797.024    21249655.447 8 -62483242.836 7
  21879267.440    21879269.391    42212389.690 9 -46240823.403 9
 86  6 13  1 39 59.0800000  0  4G 6G13G 9G11
  21606288.205    21606289.223    42112048.129 9 -46344775.285 8
  20956590.003    20956592.589    -6359100.100 9   4187917.650 8
  20068517.641    20068517.696    21248188.000 9 -62484386.287 7
  21881983.373    21881984.757    42226659.605 9 -46229703.995 9
 86  6 13  1 40  5.0800000  0  4G 6G13G 9G11
  21609314.203    21609315.028    42127947.458 9 -46332386.200 8
  20954997.179    20954999.977    -6367465.385 9   4181399.256 9
  20068243.008    20068244.803    21246745.079 8 -62485510.646 8
  21884700.574    21884702.718    42240938.551 9 -46218577.547 9
 86  6 13  1 40 11.0800000  0  4G 6G13G 9G11
  21612343.230    21612344.726    42143865.618 9 -46319982.448 8
  20953409.629    20953411.830    -6375811.313 9   4174895.937 8
  20067972.245    20067974.262    21245326.673 8 -62486615.903 7
  21887420.172    21887421.187    42255226.445 9 -46207444.123 8
 86  6 13  1 40 17.0800000  0  4G 6G13G 9G11
  21615376.400    21615376.977    42159802.627 8 -46307564.010 9
  20951825.377    20951827.161    -6384137.913 9   4168407.681 8
  20067708.248    20067708.590    21243932.659 7 -62487702.150 8
  21890140.057    21890142.177    42269523.284 9 -46196303.728 9
 86  6 13  1 40 23.0800000  0  4G 6G13G 9G11
  21618412.526    21618413.529    42175758.498 9 -46295130.873 8
  20950244.660    20950246.360    -6392445.157 9   4161934.516 8
  20067445.542    20067448.019    21242563.147 8 -62488769.305 7
  21892862.060    21892864.466    42283829.072 9 -46185156.370 9
 86  6 13  1 40 29.0800000  0  4G 6G13G 9G11
  21621451.771    21621452.523    42191733.186 9 -46282683.066 8
  20948667.276    20948668.914    -6400733.008 8   4155476.453 8
  20067191.774    20067192.685    21241218.187 9 -62489817.319 8
  21895586.737    21895587.864    42298143.818 9 -46174002.025 8
 86  6 13  1 40 35.0800000  0  4G 6G13G 9G11
  21624495.104    21624495.279    42207726.666 8 -46270220.628 8
  20947094.553    20947094.704    -6409001.428 9   4149033.537 8
  20066939.891    20066940.301    21239897.751 7 -62490846.243 8
  21898311.627    21898313.483    42312467.548 9 -46162840.676 9
 86  6 13  1 40 41.0800000  0  4G 6G13G 9G11
  21627542.105    21627543.149    42223738.961 9 -46257743.515 8
  20945524.196    20945526.530    -6417250.495 8   4142605.693 9
  20066692.810    20066694.571    21238601.736 7 -62491856.119 7
  21901039.417    21901041.318    42326800.207 9 -46151672.380 9
 86  6 13  1 40 47.0800000  0  4G 6G13G 9G11
  21630592.481    21630594.399    42239769.972 9 -46245251.820 8
  20943957.397    20943959.903    -6425480.266 9   4136192.888 8
  20066450.850    20066451.818    21237330.196 8 -62492846.932 7
  21903767.627    21903770.331    42341141.722 9 -46140497.176 9
 86  6 13  1 40 53.0800000  0  4G 6G13G 9G11
  21633647.661    21633647.767    42255819.739 9 -46232745.510 9
  20942396.065    20942398.503    -6433690.753 8   4129795.107 9
  20066214.369    20066215.544    21236083.280 8 -62493818.547 7
  21906499.092    21906501.997    42355492.083 9 -46129315.081 9
 86  6 13  1 40 59.0800000  0  4G 6G13G 9G11
  21636705.707    21636706.084    42271888.302 9 -46220224.554 8
  20940837.354    20940838.868    -6441881.909 9   4123412.408 8
  20065982.252    20065982.386    21234860.880 8 -62494771.066 9
  21909231.525    21909233.834    42369851.267 9 -46118126.113 8
 86  6 13  1 41  5.0800000  0  4G 6G13G 9G11
  21639766.211    21639767.564    42287975.568 9 -46207689.034 9
  20939282.694    20939283.888    -6450053.736 8   4117044.756 8
  20065753.946    20065754.697    21233663.065 7 -62495704.435 7
  21911965.982    21911968.803    42384219.235 9 -46106930.294 9
 86  6 13  1 41 11.0800000  0  4G 6G13G 9G11
  21642831.474    21642831.800    42304081.588 9 -46195138.906 8
  20937730.056    20937733.010    -6458206.169 8   4110692.211 9
  20065530.327    20065530.690    21232489.750 8 -62496618.701 7
  21914701.321    21914703.028    42398595.969 9 -46095727.643 9
 86  6 13  1 41 17.0800000  0  4G 6G13G 9G11
  21645899.300    21645900.246    42320206.296 8 -46182574.198 8
  20936182.818    20936184.556    -6466339.276 9   4104354.731 8
  20065311.056    20065311.518    21231340.990 9 -62497513.842 7
  21917438.949    21917440.875    42412981.447 9 -46084518.192 9
 86  6 13  1 41 23.0800000  0  4G 6G13G 9G11
  21648972.917    21648972.245    42336349.663 9 -46169994.954 8
  20934639.272    20934640.383    -6474453.059 9   4098032.314 8
  20065096.985    20065098.214    21230216.851 8 -62498389.790 7
  21920177.875    21920180.236    42427375.661 9 -46073301.914 9
 86  6 13  1 41 29.0800000  0  4G 6G13G 9G11
  21652047.275    21652048.467    42352511.781 9 -46157401.112 8
  20933098.204    20933100.848    -6482547.523 9   4091724.936 8
  20064888.441    20064889.150    21229117.228 8 -62499246.645 7
  21922919.593    21922921.324    42441778.624 9 -46062078.830 9
 86  6 13  1 41 35.0800000  0  4G 6G13G 9G11
  21655125.899    21655126.718    42368692.579 9 -46144792.704 9
  20931561.356    20931562.802    -6490622.589 8   4085432.675 8
  20064683.796    20064685.113    21228042.227 9 -62500084.302 7
  21925660.906    21925662.840    42456190.353 9 -46050848.923 8
 86  6 13  1 41 41.0800000  0  4G 6G13G 9G11
  21658209.411    21658209.259    42384891.979 9 -46132169.799 8
  20930028.322    20930030.830    -6498678.293 8   4079155.521 9
  20064483.958    20064484.990    21226991.861 7 -62500902.781 7
  21928406.068    21928407.677    42470610.791 9 -46039612.219 9
 86  6 13  1 41 47.0800000  0  4G 6G13G 9G11
  21661294.334    21661296.179    42401110.049 9 -46119532.344 9
  20928499.155    20928501.713    -6506714.616 9   4072893.454 9
  20064289.250    20064288.832    21225966.154 8 -62501702.029 8
  21931151.340    21931154.041    42485039.870 9 -46028368.787 9
 86  6 13  1 41 53.0800000  0  4G 6G13G 9G11
  21664385.375    21664386.147    42417346.779 9 -46106880.349 8
  20926975.085    20926977.061    -6514731.603 8   4066646.449 8
  20064097.809    20064099.208    21224965.060 9 -62502482.093 8
  21933898.584    21933901.250    42499477.646 9 -46017118.566 9
 86  6 13  1 41 59.0800000  0  4G 6G13G 9G11
  21667477.930    21667478.924    42433602.121 9 -46094213.858 9
  20925451.621    20925454.027    -6522729.210 9   4060414.563 9
  20063911.789    20063913.932    21223988.594 8 -62503242.990 8
  21936648.696    21936650.083    42513924.101 9 -46005861.599 9
 86  6 13  1 42  5.0800000  0  4G 6G13G 9G11
  21670575.011    21670575.412    42449876.081 9 -46081532.853 9
  20923934.085    20923935.906    -6530707.477 9   4054197.735 8
  20063730.910    20063733.139    21223036.825 8 -62503984.627 7
  21939399.038    21939400.801    42528379.182 9 -45994597.903 9
 86  6 13  1 42 11.0800000  0  4G 6G13G 9G11
  21673675.102    21673676.445    42466168.607 9 -46068837.391 9
  20922419.820    20922420.870    -6538666.447 9   4047995.936 8
  20063555.599    20063555.452    21222109.790 7 -62504706.981 7
  21942150.994    21942152.495    42542842.846 9 -45983327.517 9
 86  6 13  1 42 17.0800000  0  4G 6G13G 9G11
  21676779.193    21676779.003    42482479.729 9 -46056127.437 8
  20920908.734    20920910.469    -6546606.095 9   4041809.211 8
  20063382.440    20063383.417    21221207.346 8 -62505410.178 8
  21944904.667    21944907.199    42557315.110 9 -45972050.438 9
 86  6 13  1 42 23.0800000  0  4G 6G13G 9G11
  21679886.318    21679887.012    42498809.444 9 -46043402.984 9
  20919401.690    20919403.186    -6554526.398 8   4035637.543 8
  20063216.568    20063216.672    21220329.656 8 -62506094.102 7
  21947660.497    21947662.989    42571795.929 9 -45960766.674 9
 86  6 13  1 42 29.0800000  0  4G 6G13G 9G11
  21682998.654    21682998.683    42515157.712 9 -46030664.084 8
  20917897.924    20917900.923    -6562427.435 9   4029480.899 9
  20063053.855    20063054.899    21219476.712 9 -62506758.748 8
  21950417.586    21950419.659    42586285.288 9 -45949476.283 9
 86  6 13  1 42 35.0800000  0  4G 6G13G 9G11
  21686112.649    21686114.234    42531524.514 9 -46017910.733 7
  20916398.060    20916399.649    -6570309.082 9   4023339.361 8
  20062895.007    20062897.871    21218648.394 7 -62507404.180 7
  21953176.007    21953178.529    42600783.151 9 -45938179.244 9
 86  6 13  1 42 41.0800000  0  4G 6G13G 9G11
  21689230.334    21689231.310    42547909.839 9 -46005142.962 8
  20914901.376    20914903.918    -6578171.395 9   4017212.885 9
  20062743.366    20062745.506    21217844.787 8 -62508030.363 8
  21955937.230    21955939.157    42615289.535 9 -45926875.580 9
 86  6 13  1 42 47.0800000  0  4G 6G13G 9G11
  21692351.767    21692352.515    42564313.668 9 -45992360.761 8
  20913409.805    20913411.881    -6586014.379 9   4011101.473 8
  20062595.651    20062596.692    21217065.961 8 -62508637.244 8
  21958698.532    21958700.856    42629804.435 9 -45915565.272 8
 86  6 13  1 42 53.0800000  0  4G 6G13G 9G11
  21695476.730    21695477.812    42580736.045 8 -45979564.113 8
  20911921.205    20911923.429    -6593837.987 8   4005005.159 8
  20062451.878    20062451.949    21216311.879 8 -62509224.837 7
  21961462.835    21961464.615    42644327.825 9 -45904248.350 8
 86  6 13  1 42 59.0800000  0  4G 6G13G 9G11
  21698605.226    21698605.862    42597176.874 9 -45966753.079 8
  20910434.418    20910437.286    -6601642.278 9   3998923.909 9
  20062311.484    20062314.433    21215582.554 8 -62509793.142 8
  21964227.925    21964230.316    42658859.622 9 -45892924.876 9
 86  6 13  1 43  5.0800000  0  4G 6G13G 9G11
  21701737.532    21701738.931    42613636.212 9 -45953927.635 8
  20908953.036    20908956.514    -6609427.345 8   3992857.622 9
  20062178.369    20062179.891    21214877.871 8 -62510342.247 6
  21966995.611    21966997.154    42673399.883 9 -45881594.802 9
 86  6 13  1 43 11.0800000  0  4G 6G13G 9G11
  21704873.937    21704873.980    42630114.004 9 -45941087.802 9
  20907475.869    20907478.414    -6617193.100 9   3986806.396 9
  20062048.138    20062049.516    21214198.002 7 -62510872.015 7
  21969763.099    21969765.712    42687948.541 9 -45870258.195 8
 86  6 13  1 43 17.0800000  0  4G 6G13G 9G11
  21708012.684    21708013.119    42646610.197 9 -45928233.629 8
  20906001.670    20906004.414    -6624939.458 8   3980770.275 8
  20061924.776    20061925.267    21213542.992 7 -62511382.408 7
  21972533.422    21972535.265    42702505.583 9 -45858915.046 9
 86  6 13  1 43 23.0800000  0  4G 6G13G 9G11
  21711154.872    21711155.219    42663124.864 9 -45915365.061 8
  20904532.006    20904534.487    -6632666.552 9   3974749.166 9
  20061803.118    20061806.433    21212912.677 8 -62511873.576 7
  21975305.640    21975307.761    42717071.012 9 -45847565.365 9
 86  6 13  1 43 29.0800000  0  4G 6G13G 9G11
  21714301.171    21714301.995    42679657.949 9 -45902482.145 9
  20903064.971    20903066.859    -6640374.383 9   3968743.067 9
  20061688.813    20061690.217    21212307.203 7 -62512345.368 7
  21978078.856    21978080.686    42731644.798 9 -45836209.172 9
 86  6 13  1 43 35.0800000  0  4G 6G13G 9G11
  21717450.341    21717451.163    42696209.469 9 -45889584.861 9
  20901601.553    20901603.155    -6648062.967 9   3962751.973 9
  20061579.626    20061579.774    21211726.513 8 -62512797.853 8
  21980853.269    21980855.945    42746226.932 9 -45824846.473 9
 86  6 13  1 43 41.0800000  0  4G 6G13G 9G11
  21720604.089    21720603.560    42712779.348 9 -45876673.279 8
  20900143.101    20900144.553    -6655732.173 9   3956775.974 8
  20061472.398    20061473.515    21211170.667 8 -62513230.973 7
  21983630.238    21983632.084    42760817.403 9 -45813477.281 8
 86  6 13  1 43 47.0800000  0  4G 6G13G 9G11
  21723760.320    21723760.799    42729367.597 9 -45863747.381 9
  20898686.650    20898689.547    -6663382.017 9   3950815.057 9
  20061371.776    20061372.426    21210639.647 8 -62513644.766 8
  21986408.584    21986410.471    42775416.107 9 -45802101.677 9
 86  6 13  1 43 53.0800000  0  4G 6G13G 9G11
  21726920.137    21726921.549    42745974.251 9 -45850807.142 8
  20897234.749    20897237.699    -6671012.614 9   3944869.147 9
  20061276.045    20061276.821    21210133.390 7 -62514039.239 7
  21989188.001    21989190.016    42790023.118 9 -45790719.581 9
 86  6 13  1 43 59.0800000  0  4G 6G13G 9G11
  21730085.016    21730084.915    42762599.212 9 -45837852.628 8
  20895785.519    20895788.217    -6678623.963 8   3938938.226 9
  20061183.597    20061184.308    21209651.983 8 -62514414.380 8
  21991969.040    21991971.245    42804638.319 9 -45779331.125 9
 86  6 13  1 44  5.0800000  0  4G 6G13G 9G11
  21733251.633    21733252.483    42779242.503 9 -45824883.837 9
  20894341.659    20894344.821    -6686216.006 9   3933022.349 8
  20061096.964    20061097.388    21209195.434 8 -62514770.128 8
  21994752.515    21994753.969    42819261.719 9 -45767936.272 9
 86  6 13  1 44 11.0800000  0  4G 6G13G 9G11
  21736421.839    21736423.412    42795904.100 9 -45811900.778 8
  20892900.519    20892903.578    -6693788.709 9   3927121.544 9
  20061015.142    20061015.548    21208763.729 7 -62515106.522 7
  21997536.267    21997537.533    42833893.337 9 -45756535.011 9
 86  6 13  1 44 17.0800000  0  4G 6G13G 9G11
  21739596.615    21739597.836    42812584.053 9 -45798903.426 8
  20891463.247    20891464.914    -6701342.141 8   3921235.762 8
  20060938.036    20060939.183    21208356.895 8 -62515423.538 7
  22000321.542    22000324.100    42848533.167 9 -45745127.361 9
 86  6 13  1 44 23.0800000  0  4G 6G13G 9G11
  21742773.544    21742773.997    42829282.313 8 -45785891.803 8
  20890029.351    20890031.685    -6708876.251 9   3915365.027 9
  20060865.382    20060865.605    21207975.021 7 -62515721.096 7
  22003108.699    22003111.998    42863181.270 8 -45733713.256 9
 86  6 13  1 44 29.0800000  0  4G 6G13G 9G11
  21745954.477    21745955.631    42845998.821 9 -45772865.949 8
  20888598.863    20888601.368    -6716391.104 8   3909509.302 9
  20060797.794    20060797.757    21207618.023 8 -62515999.286 7
  22005897.955    22005900.917    42877837.525 9 -45722292.801 9
 86  6 13  1 44 35.0800000  0  4G 6G13G 9G11
  21749138.987    21749140.831    42862733.620 9 -45759825.853 8
  20887173.042    20887175.503    -6723886.619 9   3903668.663 9
  20060733.025    20060735.052    21207285.899 7 -62516258.085 7
  22008688.508    22008691.667    42892501.889 9 -45710866.031 9
 86  6 13  1 44 41.0800000  0  4G 6G13G 9G11
  21752327.186    21752328.921    42879486.663 9 -45746771.547 8
  20885750.374    20885753.467    -6731362.829 9   3897843.038 8
  20060674.929    20060677.279    21206978.723 7 -62516497.445 7
  22011481.182    22011482.662    42907174.342 9 -45699432.950 9
 86  6 13  1 44 47.0800000  0  4G 6G13G 9G11
  21755518.854    21755520.340    42896257.983 9 -45733702.995 8
  20884331.690    20884334.082    -6738819.702 9   3892032.500 8
  20060621.751    20060622.898    21206696.432 7 -62516717.413 7
  22014274.584    22014276.957    42921854.875 9 -45687993.577 9
 86  6 13  1 44 53.0800000  0  4G 6G13G 9G11
  21758712.887    21758714.441    42913047.499 9 -45720620.258 9
  20882916.097    20882918.799    -6746257.240 8   3886237.021 9
  20060573.621    20060573.050    21206439.081 9 -62516917.950 7
  22017070.086    22017072.189    42936543.527 9 -45676547.880 9
 86  6 13  1 44 59.0800000  0  4G 6G13G 9G11
  21761911.569    21761912.872    42929855.156 9 -45707523.390 9
  20881504.504    20881506.442    -6753675.619 9   3880456.463 8
  20060528.648    20060528.925    21206206.654 8 -62517099.069 7
  22019866.073    22019868.569    42951240.186 9 -45665095.939 9
 86  6 13  1 45  5.0800000  0  4G 6G13G 9G11
  21765113.905    21765114.611    42946681.093 9 -45694412.280 9
  20880096.037    20880098.676    -6761074.683 9   3874690.971 8
  20060489.337    20060490.125    21205999.121 8 -62517260.774 7
  22022664.999    22022666.927    42965944.900 9 -45653637.730 9
 86  6 13  1 45 11.0800000  0  4G 6G13G 9G11
  21768319.049    21768320.740    42963525.181 9 -45681287.028 8
  20878692.285    20878694.162    -6768454.525 9   3868940.447 9
  20060454.387    20060456.127    21205816.544 7 -62517403.054 7
  22025464.258    22025466.619    42980657.624 9 -45642173.267 9
 86  6 13  1 45 17.0800000  0  4G 6G13G 9G11
  21771528.173    21771529.546    42980387.496 9 -45668147.569 8
  20877291.331    20877294.322    -6775815.047 8   3863204.974 8
  20060424.795    20060424.680    21205658.975 8 -62517525.826 7
  22028265.864    22028267.553    42995378.456 9 -45630702.498 9
 86  6 13  1 45 23.0800000  0  4G 6G13G 9G11
  21774740.328    21774741.719    42997267.937 9 -45654993.983 9
  20875894.191    20875896.524    -6783156.359 9   3857484.481 9
  20060399.634    20060399.188    21205526.402 7 -62517629.121 6
  22031068.377    22031069.943    43010107.294 9 -45619225.477 9
 86  6 13  1 45 29.0800000  0  4G 6G13G 9G11
  21777955.831    21777957.681    43014166.454 9 -45641826.309 8
  20874501.061    20874503.334    -6790478.451 9   3851778.973 9
  20060379.448    20060379.480    21205418.794 8 -62517712.985 8
  22033872.615    22033874.737    43024844.047 9 -45607742.301 9
 86  6 13  1 45 35.0800000  0  4G 6G13G 9G11
  21781175.111    21781174.827    43031083.120 9 -45628644.502 8
  20873110.676    20873113.120    -6797781.273 9   3846088.452 8
  20060362.878    20060364.096    21205336.094 7 -62517777.433 7
  22036677.186    22036680.913    43039588.708 9 -45596252.955 9
 86  6 13  1 45 41.0800000  0  4G 6G13G 9G11
  21784397.684    21784397.986    43048017.951 9 -45615448.544 9
  20871725.208    20871728.276    -6805064.848 9   3840412.949 9
  20060351.881    20060352.532    21205278.481 8 -62517822.324 8
  22039485.533    22039488.205    43054341.375 9 -45584757.374 9
 86  6 13  1 45 47.0800000  0  4G 6G13G 9G11
  21787623.034    21787624.838    43064970.917 8 -45602238.443 9
  20870343.389    20870344.092    -6812329.101 9   3834752.498 9
  20060345.965    20060346.151    21205245.821 8 -62517847.778 8
  22042294.993    22042297.005    43069101.964 9 -45573255.621 8
 86  6 13  1 45 53.0800000  0  4G 6G13G 9G11
  21790853.247    21790854.438    43081941.855 9 -45589014.344 9
  20868964.169    20868966.259    -6819574.233 8   3829106.941 8
  20060344.794    20060344.777    21205238.171 7 -62517853.732 8
  22045104.759    22045107.253    43083870.359 9 -45561747.783 9
 86  6 13  1 45 59.0800000  0  4G 6G13G 9G11
  21794086.898    21794087.841    43098930.874 9 -45575776.149 8
  20867589.214    20867591.679    -6826800.025 9   3823476.452 9
  20060346.787    20060348.016    21205255.492 8 -62517840.241 7
  22047916.582    22047919.975    43098646.627 9 -45550233.816 9
 86  6 13  1 46  5.0800000  0  4G 6G13G 9G11
  21797321.997    21797324.019    43115937.979 9 -45562523.871 8
  20866216.690    20866220.469    -6834006.440 9   3817861.074 9
  20060355.474    20060357.019    21205297.949 8 -62517807.160 7
  22050729.725    22050731.617    43113430.824 9 -45538713.665 8
 86  6 13  1 46 11.0800000  0  4G 6G13G 9G11
  21800562.713    21800563.121    43132963.131 9 -45549257.528 9
  20864849.623    20864852.453    -6841193.512 9   3812260.766 9
  20060368.259    20060369.853    21205365.376 7 -62517754.624 7
  22053545.275    22053547.175    43128222.851 8 -45527187.416 9
 86  6 13  1 46 17.0800000  0  4G 6G13G 9G11
  21803806.327    21803806.314    43150006.297 9 -45535977.148 9
  20863486.014    20863488.385    -6848361.268 9   3806675.507 8
  20060386.294    20060387.772    21205457.885 7 -62517682.538 7
  22056361.759    22056364.176    43143022.707 9 -45515655.058 9
 86  6 13  1 46 23.0800000  0  4G 6G13G 9G11
  21807052.368    21807053.455    43167067.495 9 -45522682.708 8
  20862125.353    20862127.878    -6855509.849 9   3801105.189 9
  20060408.891    20060409.573    21205575.447 8 -62517590.945 8
  22059178.489    22059181.771    43157830.340 9 -45504116.647 9
 86  6 13  1 46 29.0800000  0  4G 6G13G 9G11
  21810302.981    21810303.113    43184146.673 9 -45509374.265 8
  20860768.852    20860771.683    -6862639.232 8   3795549.823 9
  20060436.490    20060436.279    21205718.055 7 -62517479.817 7
  22061997.749    22062000.322    43172645.733 9 -45492572.191 9
 86  6 13  1 46 35.0800000  0  4G 6G13G 9G11
  21813555.946    21813556.409    43201243.840 9 -45496051.802 8
  20859416.430    20859417.956    -6869749.311 9   3790009.506 9
  20060466.321    20060468.132    21205885.749 8 -62517349.139 8
  22064818.727    22064822.078    43187468.817 9 -45481021.731 8
 86  6 13  1 46 41.0800000  0  4G 6G13G 9G11
  21816813.005    21816813.314    43218358.963 9 -45482715.352 9
  20858066.193    20858069.171    -6876840.124 9   3784484.217 9
  20060504.272    20060505.804    21206078.544 8 -62517198.909 6
  22067641.180    22067643.847    43202299.706 9 -45469465.208 9
 86  6 13  1 46 47.0800000  0  4G 6G13G 9G11
  21820072.611    21820073.128    43235492.025 9 -45469364.921 8
  20856720.612    20856722.704    -6883911.782 9   3778973.837 8
  20060546.126    20060545.631    21206296.359 8 -62517029.196 8
  22070465.827    22070466.793    43217138.316 9 -45457902.652 9
 86  6 13  1 46 53.0800000  0  4G 6G13G 9G11
  21823337.368    21823337.811    43252643.071 9 -45456000.471 8
  20855378.995    20855380.608    -6890964.234 9   3773478.416 8
  20060592.872    20060592.100    21206539.272 8 -62516839.904 8
  22073290.227    22073292.139    43231984.629 9 -45446334.087 9
 86  6 13  1 46 59.0800000  0  4G 6G13G 9G11
  21826603.727    21826605.156    43269812.049 9 -45442622.053 8
  20854040.366    20854042.852    -6897997.430 8   3767998.001 9
  20060642.390    20060643.098    21206807.355 7 -62516631.011 7
  22076118.167    22076118.564    43246838.671 9 -45434759.523 9
 86  6 13  1 47  5.0800000  0  4G 6G13G 9G11
  21829874.378    21829876.413    43286998.909 9 -45429229.703 8
  20852706.245    20852708.616    -6905011.424 9   3762532.570 9
  20060698.269    20060699.396    21207100.541 7 -62516402.561 8
  22078944.799    22078947.778    43261700.327 9 -45423179.015 9
 86  6 13  1 47 11.0800000  0  4G 6G13G 9G11
  21833148.462    21833149.811    43304203.656 9 -45415823.415 8
  20851374.178    20851377.546    -6912006.195 8   3757082.107 9
  20060759.444    20060760.318    21207418.874 8 -62516154.503 7
  22081774.635    22081776.975    43276569.628 9 -45411592.548 9
 86  6 13  1 47 17.0800000  0  4G 6G13G 9G11
  21836425.869    21836427.070    43321426.246 9 -45402403.225 9
  20850047.687    20850049.635    -6918981.834 9   3751646.551 8
  20060824.515    20060825.575    21207762.317 7 -62515886.877 8
  22084606.028    22084608.343    43291446.527 9 -45400000.157 8
 86  6 13  1 47 23.0800000  0  4G 6G13G 9G11
  21839706.249    21839707.040    43338666.715 9 -45388969.097 8
  20848723.532    20848727.064    -6925938.297 8   3746225.932 8
  20060894.804    20060894.778    21208130.915 8 -62515599.673 8
  22087438.361    22087439.748    43306331.085 9 -45388401.806 9
 86  6 13  1 47 29.0800000  0  4G 6G13G 9G11
  21842990.693    21842992.228    43355925.032 9 -45375521.068 9
  20847403.273    20847406.012    -6932875.564 8   3740820.275 9
  20060970.347    20060969.926    21208524.676 8 -62515292.848 8
  22090272.204    22090273.487    43321223.199 9 -45376797.565 8
 86  6 13  1 47 35.0800000  0  4G 6G13G 9G11
  21846278.774    21846279.523    43373201.255 9 -45362059.077 9
  20846087.343    20846089.042    -6939793.563 8   3735429.634 8
  20061049.365    20061050.829    21208943.439 8 -62514966.544 8
  22093107.338    22093108.539    43336122.926 9 -45365187.394 9
 86  6 13  1 47 41.0800000  0  4G 6G13G 9G11
  21849568.856    21849569.620    43390495.235 9 -45348583.252 9
  20844773.834    20844776.715    -6946692.349 9   3730053.960 9
  20061134.267    20061135.070    21209387.531 7 -62514620.499 7
  22095944.520    22095946.775    43351030.226 9 -45353571.315 9
 86  6 13  1 47 47.0800000  0  4G 6G13G 9G11
  21852863.633    21852863.663    43407807.071 9 -45335093.517 8
  20843464.410    20843467.312    -6953571.933 9   3724693.236 9
  20061223.599    20061223.935    21209856.758 8 -62514254.859 8
  22098781.429    22098784.263    43365945.070 9 -45341949.370 8
 86  6 13  1 47 53.0800000  0  4G 6G13G 9G11
  21856160.756    21856162.779    43425136.658 9 -45321589.953 8
  20842159.364    20842162.114    -6960432.385 9   3719347.440 8
  20061317.214    20061317.803    21210351.121 8 -62513869.647 7
  22101621.925    22101623.538    43380867.427 9 -45330321.558 9
 86  6 13  1 47 59.0800000  0  4G 6G13G 9G11
  21859462.089    21859463.127    43442484.067 9 -45308072.500 8
  20840858.079    20840860.329    -6967273.600 9   3714016.634 8
  20061415.074    20061416.977    21210870.696 7 -62513464.792 8
  22104461.943    22104464.763    43395797.300 9 -45318687.897 8
 86  6 13  1 48  5.0800000  0  4G 6G13G 9G11
  21862765.848    21862768.814    43459849.246 9 -45294541.202 9
  20839559.480    20839561.371    -6974095.584 8   3708700.800 9
  20061519.393    20061520.564    21211415.460 7 -62513040.290 8
  22107305.420    22107307.583    43410734.674 9 -45307048.383 9
 86  6 13  1 48 11.0800000  0  4G 6G13G 9G11
  21866074.535    21866075.671    43477232.144 9 -45280996.085 7
  20838264.040    20838267.601    -6980898.384 9   3703399.931 9
  20061628.179    20061629.600    21211985.466 8 -62512596.147 8
  22110149.617    22110150.790    43425679.527 9 -45295403.045 8
 86  6 13  1 48 17.0800000  0  4G 6G13G 9G11
  21869386.170    21869386.688    43494632.806 9 -45267437.145 8
  20836974.302    20836977.304    -6987681.968 9   3698114.020 8
  20061740.181    20061743.385    21212580.660 7 -62512132.349 7
  22112994.615    22112997.188    43440631.810 9 -45283751.924 8
 86  6 13  1 48 23.0800000  0  4G 6G13G 9G11
  21872700.288    21872701.092    43512051.185 9 -45253864.393 9
  20835686.880    20835688.952    -6994446.295 9   3692843.127 9
  20061858.212    20061860.423    21213201.071 8 -62511648.925 7
  22115842.144    22115843.172    43455591.496 9 -45272095.033 9
 86  6 13  1 48 29.0800000  0  4G 6G13G 9G11
  21876018.766    21876019.897    43529487.271 9 -45240277.837 9
  20834403.689    20834405.913    -7001191.475 9   3687587.139 8
  20061982.025    20061982.253    21213846.721 8 -62511145.813 7
  22118689.117    22118690.815    43470558.643 9 -45260432.330 8
 86  6 13  1 48 35.0800000  0  4G 6G13G 9G11
  21879339.840    21879341.191    43546941.021 9 -45226677.520 9
  20833123.373    20833125.487    -7007917.552 8   3682346.042 8
  20062110.826    20062110.469    21214517.568 8 -62510623.074 7
  22121539.057    22121539.824    43485533.149 9 -45248763.880 9
 86  6 13  1 48 41.0800000  0  4G 6G13G 9G11
  21882665.301    21882665.659    43564412.453 9 -45213063.415 9
  20831847.325    20831850.254    -7014624.546 8   3677119.821 9
  20062242.205    20062243.447    21215213.721 7 -62510080.629 7
  22124390.170    22124392.149    43500515.023 9 -45237089.694 8
 86  6 13  1 48 47.0800000  0  4G 6G13G 9G11
  21885992.411    21885993.504    43581901.516 9 -45199435.592 9
  20830573.705    20830576.002    -7021312.349 9   3671908.548 8
  20062380.214    20062379.539    21215935.012 7 -62509518.578 8
  22127243.053    22127243.530    43515504.214 9 -45225409.807 9
 86  6 13  1 48 53.0800000  0  4G 6G13G 9G11
  21889324.078    21889324.352    43599408.247 9 -45185793.987 9
  20829304.628    20829307.900    -7027981.002 9   3666712.207 7
  20062522.975    20062523.453    21216681.550 8 -62508936.863 7
  22130096.911    22130097.833    43530500.699 9 -45213724.242 8
 86  6 13  1 48 59.0800000  0  4G 6G13G 9G11
  21892659.464    21892660.580    43616932.599 9 -45172138.652 8
  20828040.025    20828041.873    -7034630.410 9   3661530.857 9
  20062668.521    20062669.201    21217453.327 8 -62508335.479 7
  22132951.143    22132953.131    43545504.477 8 -45202032.984 9
 86  6 13  1 49  5.0800000  0  4G 6G13G 9G11
  21895997.397    21895998.323    43634474.554 9 -45158469.602 9
  20826778.518    20826781.394    -7041260.769 9   3656364.350 9
  20062820.427    20062821.600    21218250.406 7 -62507714.396 8
  22135807.938    22135809.270    43560515.536 9 -45190336.067 9
 86  6 13  1 49 11.0800000  0  4G 6G13G 9G11
  21899338.452    21899339.279    43652034.039 9 -45144786.895 9
  20825520.255    20825522.099    -7047871.878 8   3651212.836 9
  20062977.646    20062979.133    21219072.696 8 -62507073.632 8
  22138665.296    22138668.235    43575533.876 9 -45178633.473 9
 86  6 13  1 49 17.0800000  0  4G 6G13G 9G11
  21902683.195    21902683.566    43669611.140 9 -45131090.473 8
  20824265.300    20824268.902    -7054463.842 8   3646076.249 9
  20063138.037    20063140.172    21219920.287 8 -62506413.171 8
  22141525.011    22141526.586    43590559.471 9 -45166925.215 8
 86  6 13  1 49 23.0800000  0  4G 6G13G 9G11
  21906031.629    21906032.391    43687205.804 9 -45117380.343 8
  20823015.020    20823017.686    -7061036.699 9   3640954.551 8
  20063303.618    20063305.387    21220793.188 7 -62505732.997 8
  22144384.897    22144386.846    43605592.385 9 -45155211.256 9
 86  6 13  1 49 29.0800000  0  4G 6G13G 9G11
  21909381.784    21909383.664    43704818.008 9 -45103656.562 8
  20821768.046    20821770.537    -7067590.338 9   3635847.827 9
  20063474.508    20063476.016    21221691.387 8 -62505033.099 8
  22147248.624    22147250.266    43620632.529 9 -45143491.671 9
 86  6 13  1 49 35.0800000  0  4G 6G13G 9G11
  21912738.235    21912739.535    43722447.795 8 -45089919.061 8
  20820524.694    20820526.668    -7074124.788 9   3630756.050 8
  20063650.731    20063650.656    21222614.883 8 -62504313.497 7
  22150111.664    22150113.691    43635679.784 9 -45131766.539 8
 86  6 13  1 49 41.0800000  0  4G 6G13G 9G11
  21916096.344    21916096.643    43740095.049 9 -45076167.961 8
  20819284.472    20819287.318    -7080640.165 8   3625679.134 8
  20063831.937    20063832.159    21223563.750 8 -62503574.110 8
  22152975.662    22152977.087    43650734.252 9 -45120035.796 8
 86  6 13  1 49 47.0800000  0  4G 6G13G 9G11
  21919457.255    21919458.532    43757759.866 9 -45062403.188 9
  20818047.894    20818050.394    -7087136.413 9   3620617.129 9
  20064016.609    20064017.451    21224537.862 8 -62502815.062 8
  22155841.742    22155844.154    43665795.887 9 -45108299.454 9
 86  6 13  1 49 53.0800000  0  4G 6G13G 9G11
  21922822.465    21922822.791    43775442.154 9 -45048624.784 9
  20816815.749    20816817.189    -7093613.588 8   3615569.972 9
  20064207.077    20064207.536    21225537.324 7 -62502036.272 6
  22158708.646    22158711.345    43680864.670 9 -45096557.543 9
 86  6 13  1 49 59.0800000  0  4G 6G13G 9G11
  21926190.301    21926191.001    43793141.892 9 -45034832.779 9
  20815587.452    20815588.786    -7100071.656 9   3610537.724 8
  20064401.282    20064402.802    21226562.098 9 -62501237.744 7
  22161577.982    22161579.901    43695940.654 9 -45084810.035 8
 86  6 13  1 50  5.0800000  0  4G 6G13G 9G11
  21929562.178    21929562.268    43810859.093 9 -45021027.180 8
  20814361.340    20814363.966    -7106510.637 9   3605520.348 8
  20064602.102    20064603.750    21227612.220 8 -62500419.466 7
  22164448.384    22164450.271    43711023.718 9 -45073057.003 8
 86  6 13  1 50 11.0800000  0  4G 6G13G 9G11
  21932936.969    21932936.788    43828593.728 9 -45007207.996 8
  20813139.550    20813141.934    -7112930.538 9   3600517.840 9
  20064806.575    20064807.450    21228687.627 8 -62499581.490 7
  22167319.873    22167322.298    43726113.900 9 -45061298.416 8
 86  6 13  1 50 17.0800000  0  4G 6G13G 9G11
  21936314.515    21936315.892    43846345.800 9 -44993375.216 8
  20811922.239    20811925.556    -7119331.293 8   3595530.243 8
  20065015.151    20065016.781    21229788.356 7 -62498723.774 7
  22170192.434    22170194.342    43741211.107 9 -45049534.375 9
 86  6 13  1 50 23.0800000  0  4G 6G13G 9G11
  21939696.630    21939697.253    43864115.299 9 -44979528.859 8
  20810707.089    20810710.077    -7125712.924 9   3590557.543 8
  20065229.586    20065231.398    21230914.554 7 -62497846.230 7
  22173067.348    22173069.308    43756315.371 9 -45037764.819 9
 86  6 13  1 50 29.0800000  0  4G 6G13G 9G11
  21943081.302    21943082.144    43881902.207 9 -44965668.934 9
  20809497.087    20809499.949    -7132075.344 9   3585599.825 9
  20065448.322    20065451.157    21232066.072 8 -62496948.943 7
  22175942.564    22175943.995    43771426.657 9 -45025989.794 9
 86  6 13  1 50 35.0800000  0  4G 6G13G 9G11
  21946469.136    21946469.401    43899706.510 9 -44951795.470 8
  20808289.579    20808291.986    -7138418.656 8   3580656.982 9
  20065673.960    20065674.958    21233242.995 7 -62496031.866 8
  22178819.144    22178821.929    43786544.962 9 -45014209.305 8
 86  6 13  1 50 41.0800000  0  4G 6G13G 9G11
  21949861.136    21949861.093    43917528.155 9 -44937908.479 8
  20807086.364    20807088.460    -7144742.894 9   3575729.016 8
  20065902.298    20065904.122    21234445.300 8 -62495094.990 8
  22181697.517    22181699.414    43801670.238 9 -45002423.374 8
 86  6 13  1 50 47.0800000  0  4G 6G13G 9G11
  21953254.758    21953256.150    43935367.177 9 -44924007.940 7
  20805887.572    20805888.748    -7151048.129 8   3570815.846 9
  20066135.783    20066136.458    21235672.990 7 -62494138.363 8
  22184577.188    22184579.740    43816802.501 9 -44990632.005 9
 86  6 13  1 50 53.0800000  0  4G 6G13G 9G11
  21956653.819    21956653.637    43953223.542 9 -44910093.897 8
  20804689.888    20804692.136    -7157334.221 8   3565917.601 9
  20066373.359    20066375.512    21236926.118 7 -62493161.898 8
  22187458.677    22187459.862    43831941.744 9 -44978835.192 9
 86  6 13  1 50 59.0800000  0  4G 6G13G 9G11
  21960054.145    21960054.861    43971097.266 9 -44896166.332 8
  20803498.104    20803499.495    -7163601.137 9   3561034.298 8
  20066617.444    20066619.530    21238204.664 8 -62492165.623 8
  22190340.485    22190341.815    43847087.987 9 -44967032.934 9
 86  6 13  1 51  5.0800000  0  4G 6G13G 9G11
  21963458.270    21963459.714    43988988.246 9 -44882225.318 8
  20802309.498    20802310.304    -7169849.035 8   3556165.807 9
  20066865.765    20066865.723    21239508.496 7 -62491149.648 7
  22193224.303    22193225.456    43862241.110 9 -44955225.302 9
 86  6 13  1 51 11.0800000  0  4G 6G13G 9G11
  21966866.775    21966867.666    44006896.505 9 -44868270.834 9
  20801123.985    20801125.402    -7176077.858 9   3551312.183 8
  20067119.780    20067120.277    21240837.730 7 -62490113.879 7
  22196109.395    22196110.668    43877401.159 9 -44943412.282 9
 86  6 13  1 51 17.0800000  0  4G 6G13G 9G11
  21970277.372    21970278.151    44024822.024 9 -44854302.897 9
  20799941.640    20799944.605    -7182287.611 8   3546473.421 8
  20067376.091    20067377.402    21242192.360 7 -62489058.333 7
  22198995.047    22198996.561    43892568.104 9 -44931593.890 8
 86  6 13  1 51 23.0800000  0  4G 6G13G 9G11
  21973691.310    21973693.946    44042764.738 9 -44840321.573 8
  20798763.980    20798766.673    -7188478.257 8   3541649.544 9
  20067639.864    20067640.245    21243572.504 8 -62487982.906 7
  22201882.576    22201885.180    43907741.928 9 -44919770.133 9
 86  6 13  1 51 29.0800000  0  4G 6G13G 9G11
  21977109.781    21977111.002    44060724.780 9 -44826326.742 9
  20797589.058    20797591.774    -7194649.951 8   3536840.440 8
  20067906.900    20067909.118    21244978.034 8 -62486887.681 7
  22204771.226    22204772.914    43922922.524 9 -44907941.097 9
 86  6 13  1 51 35.0800000  0  4G 6G13G 9G11
  21980530.738    21980532.325    44078701.907 9 -44812318.597 9
  20796419.535    20796420.898    -7200802.639 9   3532046.145 9
  20068179.903    20068179.775    21246408.944 8 -62485772.695 7
  22207662.192    22207663.076    43938109.937 9 -44896106.757 9
 86  6 13  1 51 41.0800000  0  4G 6G13G 9G11
  21983955.238    21983956.669    44096696.362 9 -44798296.953 9
  20795251.663    20795254.073    -7206936.231 9   3527266.726 9
  20068455.720    20068456.702    21247865.369 7 -62484637.816 7
  22210552.140    22210555.037    43953304.208 9 -44884267.065 8
 86  6 13  1 51 47.0800000  0  4G 6G13G 9G11
  21987382.200    21987382.366    44114708.028 8 -44784261.892 9
  20794087.687    20794089.248    -7213050.859 8   3522502.086 8
  20068737.666    20068739.178    21249347.175 8 -62483483.170 8
  22213445.992    22213447.735    43968505.259 9 -44872422.102 8
 86  6 13  1 51 53.0800000  0  4G 6G13G 9G11
  21990814.148    21990814.238    44132736.841 9 -44770213.479 8
  20792927.817    20792929.697    -7219146.481 8   3517752.264 9
  20069024.684    20069025.087    21250854.477 7 -62482308.641 7
  22216339.298    22216341.924    43983713.109 9 -44860571.820 9
 86  6 13  1 51 59.0800000  0  4G 6G13G 9G11
  21994247.211    21994249.658    44150782.746 9 -44756151.737 9
  20791771.682    20791773.685    -7225223.006 9   3513017.311 9
  20069316.144    20069317.383    21252387.254 8 -62481114.276 7
  22219234.585    22219236.927    43998927.718 9 -44848716.286 9
 86  6 13  1 52  5.0800000  0  4G 6G13G 9G11
  21997684.792    21997685.268    44168845.883 9 -44742076.578 7
  20790619.268    20790620.536    -7231280.500 9   3508297.194 9
  20069612.142    20069613.595    21253945.430 8 -62479900.133 7
  22222131.122    22222134.788    44014149.096 9 -44836855.474 9
 86  6 13  1 52 11.0800000  0  4G 6G13G 9G11
  22001126.153    22001124.798    44186926.108 9 -44727988.098 8
  20789469.576    20789470.975    -7237318.984 9   3503591.883 8
  20069914.766    20069914.951    21255529.065 7 -62478666.102 8
  22225029.439    22225030.403    44029377.173 9 -44824989.452 8
 86  6 13  1 52 17.0800000  0  4G 6G13G 9G11
  22004568.744    22004570.108    44205023.473 9 -44713886.259 9
  20788324.193    20788326.202    -7243338.424 8   3498901.412 8
  20070220.714    20070221.437    21257138.216 8 -62477412.235 8
  22227928.211    22227929.704    44044611.978 8 -44813118.177 9
 86  6 13  1 52 23.0800000  0  4G 6G13G 9G11
  22008015.486    22008017.087    44223137.905 9 -44699771.118 9
  20787183.068    20787185.539    -7249338.894 9   3494225.729 9
  20070531.406    20070533.829    21258772.847 8 -62476138.497 7
  22230828.701    22230831.081    44059853.489 9 -44801241.671 9
 86  6 13  1 52 29.0800000  0  4G 6G13G 9G11
  22011467.262    22011467.205    44241269.404 9 -44685642.688 9
  20786044.012    20786045.929    -7255320.436 9   3489564.797 9
  20070847.494    20070847.909    21260432.927 8 -62474844.933 8
  22233730.147    22233732.600    44075101.607 9 -44789360.026 9
 86  6 13  1 52 35.0800000  0  4G 6G13G 9G11
  22014920.438    22014919.586    44259418.012 9 -44671500.926 9
  20784909.852    20784912.497    -7261282.942 8   3484918.687 8
  20071168.327    20071168.430    21262118.539 8 -62473531.473 8
  22236632.852    22236634.370    44090356.381 8 -44777473.195 9
 86  6 13  1 52 41.0800000  0  4G 6G13G 9G11
  22018375.882    22018377.757    44277583.605 9 -44657345.917 9
  20783777.090    20783781.290    -7267226.389 9   3480287.442 9
  20071494.030    20071494.794    21263829.551 8 -62472198.213 7
  22239536.143    22239540.575    44105617.804 9 -44765581.188 9
 86  6 13  1 52 47.0800000  0  4G 6G13G 9G11
  22021836.783    22021838.174    44295766.280 9 -44643177.614 9
  20782650.963    20782653.792    -7273150.828 8   3475671.001 8
  20071824.921    20071825.828    21265566.129 7 -62470845.034 7
  22242443.084    22242444.254    44120885.830 9 -44753684.022 9
 86  6 13  1 52 53.0800000  0  4G 6G13G 9G11
  22025300.039    22025301.729    44313965.932 9 -44628996.076 8
  20781526.116    20781528.668    -7279056.258 9   3471069.368 9
  20072158.692    20072160.440    21267328.264 7 -62469471.960 7
  22245349.567    22245351.653    44136160.440 8 -44741781.731 9
 86  6 13  1 52 59.0800000  0  4G 6G13G 9G11
  22028767.070    22028767.561    44332182.640 9 -44614801.244 8
  20780407.735    20780408.975    -7284942.739 9   3466482.500 9
  20072499.537    20072501.921    21269115.832 9 -62468079.029 6
  22248257.576    22248259.661    44151441.618 9 -44729874.318 8
 86  6 13  1 53  5.0800000  0  4G 6G13G 9G11
  22032235.733    22032237.769    44350416.285 9 -44600593.220 8
  20779290.544    20779292.248    -7290810.245 9   3461910.430 9
  20072844.826    20072846.330    21270928.965 7 -62466666.215 6
  22251165.802    22251169.955    44166729.373 9 -44717961.801 8
 86  6 13  1 53 11.0800000  0  4G 6G13G 9G11
  22035708.144    22035710.047    44368666.914 9 -44586371.953 8
  20778177.548    20778177.992    -7296658.800 9   3457353.116 8
  20073195.529    20073195.590    21272767.531 8 -62465233.561 8
  22254076.673    22254079.512    44182023.661 9 -44706044.165 9
 86  6 13  1 53 17.0800000  0  4G 6G13G 9G11
  22039185.159    22039186.684    44386934.467 9 -44572137.497 9
  20777068.300    20777070.182    -7302488.288 8   3452810.654 8
  20073548.034    20073550.194    21274631.613 7 -62463781.047 7
  22256988.879    22256992.058    44197324.469 9 -44694121.473 9
 86  6 13  1 53 23.0800000  0  4G 6G13G 9G11
  22042665.102    22042666.795    44405218.952 8 -44557889.857 8
  20775962.565    20775965.218    -7308298.782 9   3448283.008 9
  20073909.025    20073909.681    21276521.312 7 -62462308.549 6
  22259901.354    22259902.715    44212631.756 9 -44682193.714 8
 86  6 13  1 53 29.0800000  0  4G 6G13G 9G11
  22046147.040    22046148.368    44423520.367 9 -44543629.028 9
  20774861.113    20774862.648    -7314090.313 9   3443770.126 8
  20074273.956    20074274.124    21278436.545 8 -62460816.161 7
  22262815.815    22262818.422    44227945.494 9 -44670260.931 9
 86  6 13  1 53 35.0800000  0  4G 6G13G 9G11
  22049632.360    22049635.307    44441838.663 9 -44529355.034 9
  20773762.436    20773763.881    -7319862.876 9   3439272.038 9
  20074642.134    20074644.137    21280377.303 8 -62459303.875 8
  22265731.157    22265732.690    44243265.725 8 -44658323.101 8
 86  6 13  1 53 41.0800000  0  4G 6G13G 9G11
  22053122.544    22053123.930    44460173.861 8 -44515067.879 8
  20772667.474    20772670.100    -7325616.484 9   3434788.713 8
  20075016.098    20075018.190    21282343.601 7 -62457771.691 7
  22268648.064    22268649.872    44258592.382 9 -44646380.250 9
 86  6 13  1 53 47.0800000  0  4G 6G13G 9G11
  22056614.759    22056615.888    44478525.937 9 -44500767.565 9
  20771576.392    20771577.906    -7331351.215 9   3430320.099 9
  20075395.201    20075396.034    21284335.485 7 -62456219.588 7
  22271565.803    22271566.469    44273925.463 9 -44634432.401 9
 86  6 13  1 53 53.0800000  0  4G 6G13G 9G11
  22060110.408    22060111.597    44496894.862 9 -44486454.127 8
  20770489.091    20770490.246    -7337066.996 9   3425866.251 9
  20075779.421    20075781.614    21286352.922 8 -62454647.565 8
  22274484.853    22274486.252    44289265.006 9 -44622479.510 9
 86  6 13  1 53 59.0800000  0  4G 6G13G 9G11
  22063609.007    22063610.332    44515280.668 9 -44472127.522 8
  20769404.459    20769405.952    -7342763.823 9   3421427.167 9
  20076168.219    20076168.408    21288395.982 8 -62453055.567 6
  22277404.666    22277406.603    44304610.951 9 -44610521.636 9
 86  6 13  1 54  5.0800000  0  4G 6G13G 9G11
  22067110.718    22067112.135    44533683.267 9 -44457787.849 9
  20768323.241    20768326.497    -7348441.708 9   3417002.839 8
  20076561.658    20076563.078    21290464.568 8 -62451443.682 7
  22280326.444    22280327.865    44319963.271 9 -44598558.789 8
 86  6 13  1 54 11.0800000  0  4G 6G13G 9G11
  22070616.041    22070617.143    44552102.641 9 -44443435.085 9
  20767246.375    20767248.910    -7354100.679 9   3412593.261 8
  20076959.586    20076961.864    21292558.715 7 -62449811.874 8
  22283247.790    22283251.597    44335321.940 9 -44586590.995 7
 86  6 13  1 54 17.0800000  0  4G 6G13G 9G11
  22074123.680    22074125.917    44570538.799 9 -44429069.263 8
  20766172.847    20766176.617    -7359740.716 8   3408198.426 9
  20077363.930    20077365.234    21294678.459 8 -62448160.131 7
  22286172.658    22286174.720    44350686.947 9 -44574618.270 8
 86  6 13  1 54 23.0800000  0  4G 6G13G 9G11
  22077635.239    22077637.034    44588991.701 9 -44414690.376 8
  20765104.203    20765106.059    -7365361.806 9   3403818.370 9
  20077772.305    20077774.054    21296823.763 8 -62446488.475 8
  22289098.067    22289099.366    44366058.336 9 -44562640.568 8
 86  6 13  1 54 29.0800000  0  4G 6G13G 9G11
  22081150.352    22081151.770    44607461.373 9 -44400298.434 9
  20764037.893    20764039.712    -7370964.010 9   3399453.025 9
  20078185.934    20078186.044    21298994.702 7 -62444796.833 8
  22292024.049    22292026.264    44381436.018 9 -44550657.963 9
 86  6 13  1 54 35.0800000  0  4G 6G13G 9G11
  22084667.263    22084669.409    44625947.815 8 -44385893.431 9
  20762975.077    20762977.827    -7376547.296 9   3395102.410 9
  20078602.628    20078605.239    21301191.168 8 -62443085.293 7
  22294951.710    22294952.968    44396819.984 9 -44538670.470 9
 86  6 13  1 54 41.0800000  0  4G 6G13G 9G11
  22088189.014    22088190.186    44644450.941 9 -44371475.415 9
  20761916.170    20761917.886    -7382111.755 8   3390766.467 8
  20079025.421    20079027.434    21303413.313 7 -62441353.751 8
  22297880.916    22297882.771    44412210.188 9 -44526678.099 8
 86  6 13  1 54 47.0800000  0  4G 6G13G 9G11
  22091713.509    22091714.210    44662970.749 9 -44357044.406 9
  20760860.786    20760863.100    -7387657.328 9   3386445.257 9
  20079453.681    20079455.153    21305661.006 7 -62439602.312 7
  22300810.345    22300811.486    44427606.692 9 -44514680.829 9
 86  6 13  1 54 53.0800000  0  4G 6G13G 9G11
  22095240.640    22095242.143    44681507.268 9 -44342600.367 9
  20759809.104    20759810.908    -7393183.973 9   3382138.782 8
  20079884.783    20079888.305    21307934.301 8 -62437830.917 8
  22303740.804    22303743.240    44443009.473 9 -44502678.671 9
 86  6 13  1 54 59.0800000  0  4G 6G13G 9G11
  22098771.577    22098772.541    44700060.466 8 -44328143.333 9
  20758761.689    20758764.170    -7398691.707 9   3377847.045 9
  20080323.364    20080325.365    21310233.217 8 -62436039.538 7
  22306672.735    22306675.872    44458418.428 9 -44490671.691 9
 86  6 13  1 55  5.0800000  0  4G 6G13G 9G11
  22102305.234    22102307.045    44718630.326 9 -44313673.320 8
  20757716.327    20757719.772    -7404180.557 9   3373570.034 9
  20080765.213    20080767.427    21312557.760 8 -62434228.218 8
  22309606.555    22309609.207    44473833.601 9 -44478659.869 9
 86  6 13  1 55 11.0800000  0  4G 6G13G 9G11
  22105842.086    22105843.762    44737216.800 9 -44299190.357 9
  20756676.097    20756678.720    -7409650.500 9   3369307.739 8
  20081212.388    20081214.607    21314907.944 7 -62432396.903 8
  22312541.405    22312543.274    44489254.947 8 -44466643.242 9
 86  6 13  1 55 17.0800000  0  4G 6G13G 9G11
  22109381.665    22109383.269    44755819.913 8 -44284694.434 9
  20755638.619    20755641.582    -7415101.563 9   3365060.164 9
  20081664.626    20081666.998    21317283.694 7 -62430545.676 8
  22315477.155    22315479.950    44504682.367 9 -44454621.878 9
 86  6 13  1 55 23.0800000  0  4G 6G13G 9G11
  22112925.590    22112927.240    44774439.626 9 -44270185.574 9
  20754604.819    20754607.703    -7420533.813 9   3360827.252 8
  20082121.688    20082124.319    21319685.138 8 -62428674.420 7
  22318414.689    22318416.078    44520115.914 9 -44442595.738 9
 86  6 13  1 55 29.0800000  0  4G 6G13G 9G11
  22116470.956    22116473.018    44793075.886 9 -44255663.829 8
  20753575.654    20753577.281    -7425947.143 8   3356609.070 9
  20082584.078    20082586.323    21322112.156 8 -62426783.226 6
  22321351.616    22321354.041    44535555.615 9 -44430564.818 9
 86  6 13  1 55 35.0800000  0  4G 6G13G 9G11
  22120021.953    22120022.979    44811728.738 9 -44241129.142 9
  20752549.108    20752550.159    -7431341.697 9   3352405.524 8
  20083050.347    20083053.216    21324564.843 7 -62424872.059 7
  22324291.370    22324292.826    44551001.382 8 -44418529.156 9
 86  6 13  1 55 41.0800000  0  4G 6G13G 9G11
  22123574.469    22123574.023    44830398.157 9 -44226581.546 9
  20751525.222    20751526.811    -7436717.371 9   3348216.697 9
  20083522.113    20083524.090    21327043.085 7 -62422940.954 7
  22327231.047    22327233.553    44566453.291 9 -44406488.713 8
 86  6 13  1 55 47.0800000  0  4G 6G13G 9G11
  22127130.268    22127129.745    44849084.070 9 -44212021.096 9
  20750506.728    20750508.225    -7442074.238 9   3344042.520 9
  20083998.797    20084001.365    21329546.999 7 -62420989.853 7
  22330173.443    22330175.475    44581911.273 8 -44394443.532 8
 86  6 13  1 55 53.0800000  0  4G 6G13G 9G11
  22130688.076    22130689.242    44867786.528 9 -44197447.759 7
  20749490.595    20749491.826    -7447412.272 9   3339883.015 9
  20084479.676    20084482.395    21332076.605 8 -62419018.735 7
  22333115.477    22333118.103    44597375.312 9 -44382393.633 9
 86  6 13  1 55 59.0800000  0  4G 6G13G 9G11
  22134250.297    22134250.939    44886505.482 9 -44182861.562 8
  20748477.612    20748480.654    -7452731.445 9   3335738.202 8
  20084967.061    20084967.280    21334631.911 8 -62417027.579 8
  22336059.742    22336061.920    44612845.420 9 -44370339.009 9
 86  6 13  1 56  5.0800000  0  4G 6G13G 9G11
  22137815.941    22137817.223    44905240.885 9 -44168262.560 8
  20747469.527    20747470.701    -7458031.779 9   3331608.078 8
  20085458.320    20085460.083    21337212.772 7 -62415016.518 7
  22339004.873    22339007.569    44628321.550 9 -44358279.698 9
 86  6 13  1 56 11.0800000  0  4G 6G13G 9G11
  22141383.741    22141385.375    44923992.781 9 -44153650.708 9
  20746464.181    20746466.062    -7463313.316 9   3327492.615 8
  20085953.825    20085956.984    21339819.288 7 -62412985.467 7
  22341951.399    22341953.125    44643803.641 9 -44346215.731 9
 86  6 13  1 56 17.0800000  0  4G 6G13G 9G11
  22144955.885    22144957.760    44942761.126 9 -44139026.028 9
  20745462.738    20745464.219    -7468575.976 9   3323391.833 9
  20086455.826    20086455.614    21342451.607 7 -62410934.308 8
  22344898.686    22344900.831    44659291.751 9 -44334147.081 8
 86  6 13  1 56 23.0800000  0  4G 6G13G 9G11
  22148530.666    22148532.494    44961545.889 9 -44124388.555 9
  20744464.840    20744467.327    -7473819.862 9   3319305.695 9
  20086960.365    20086961.024    21345109.547 9 -62408863.190 7
  22347846.265    22347848.067    44674785.802 9 -44322073.797 8
 86  6 13  1 56 29.0800000  0  4G 6G13G 9G11
  22152108.164    22152109.246    44980347.107 9 -44109738.266 8
  20743470.944    20743472.045    -7479044.940 9   3315234.210 9
  20087470.652    20087472.184    21347793.094 7 -62406772.116 8
  22350795.491    22350798.352    44690285.814 9 -44309995.866 9
 86  6 13  1 56 35.0800000  0  4G 6G13G 9G11
  22155688.923    22155690.472    44999164.684 9 -44095075.223 9
  20742480.351    20742482.279    -7484251.176 9   3311177.406 8
  20087986.371    20087987.760    21350502.442 8 -62404660.925 8
  22353746.683    22353749.271    44705791.799 9 -44297913.285 9
 86  6 13  1 56 41.0800000  0  4G 6G13G 9G11
  22159272.658    22159273.962    45017998.671 8 -44080399.400 8
  20741492.053    20741494.840    -7489438.648 9   3307135.229 9
  20088507.223    20088509.358    21353237.393 8 -62402529.800 7
  22356698.271    22356700.269    44721303.749 9 -44285826.059 9
 86  6 13  1 56 47.0800000  0  4G 6G13G 9G11
  22162860.289    22162862.222    45036849.072 9 -44065710.780 7
  20740509.150    20740511.045    -7494607.296 9   3303107.712 9
  20089032.881    20089034.872    21355998.122 8 -62400378.583 7
  22359650.913    22359654.201    44736821.608 9 -44273734.228 9
 86  6 13  1 56 53.0800000  0  4G 6G13G 9G11
  22166450.895    22166451.281    45055715.758 9 -44051009.471 8
  20739529.703    20739531.266    -7499757.214 9   3299094.798 9
  20089563.216    20089563.752    21358784.435 8 -62398207.430 8
  22362605.608    22362607.397    44752345.257 9 -44261637.892 9
 86  6 13  1 56 59.0800000  0  4G 6G13G 9G11
  22170043.705    22170044.947    45074598.755 9 -44036295.453 9
  20738552.914    20738554.750    -7504888.325 9   3295096.533 9
  20090097.929    20090098.944    21361596.443 8 -62396016.271 8
  22365559.919    22365562.638    44767874.755 9 -44249536.977 8
 86  6 13  1 57  5.0800000  0  4G 6G13G 9G11
  22173640.914    22173642.312    45093498.080 9 -44021568.719 9
  20737579.552    20737581.697    -7510000.663 8   3291112.894 9
  20090637.922    20090639.293    21364434.191 8 -62393805.038 7
  22368517.279    22368518.521    44783410.082 9 -44237431.539 9
 86  6 13  1 57 11.0800000  0  4G 6G13G 9G11
  22177240.046    22177240.952    45112413.673 9 -44006829.298 9
  20736610.793    20736612.939    -7515094.232 9   3287143.885 8
  20091184.159    20091185.777    21367297.618 8 -62391573.788 7
  22371474.188    22371476.905    44798951.264 9 -44225321.526 9
 86  6 13  1 57 17.0800000  0  4G 6G13G 9G11
  22180841.961    22180843.593    45131345.578 9 -43992077.172 9
  20735644.850    20735646.798    -7520169.050 9   3283189.477 8
  20091732.924    20091733.483    21370186.667 8 -62389322.587 7
  22374432.852    22374434.190    44814498.283 9 -44213206.977 8
 86  6 13  1 57 23.0800000  0  4G 6G13G 9G11
  22184448.535    22184449.310    45150293.710 9 -43977312.406 9
  20734683.688    20734684.575    -7525225.111 9   3279249.698 8
  20092287.034    20092288.382    21373101.373 8 -62387051.391 8
  22377392.108    22377394.869    44830051.055 9 -44201087.930 9
 86  6 13  1 57 29.0800000  0  4G 6G13G 9G11
  22188056.452    22188058.558    45169258.102 9 -43962534.963 9
  20733724.459    20733726.276    -7530262.476 9   3275324.476 8
  20092846.411    20092848.030    21376041.878 8 -62384760.084 7
  22380352.749    22380355.784    44845609.558 9 -44188964.427 8
 86  6 13  1 57 35.0800000  0  4G 6G13G 9G11
  22191669.009    22191670.523    45188238.686 9 -43947744.896 9
  20732769.530    20732771.205    -7535281.063 9   3271413.898 8
  20093412.938    20093412.946    21379008.113 8 -62382448.737 7
  22383314.638    22383317.215    44861173.789 9 -44176836.459 9
 86  6 13  1 57 41.0800000  0  4G 6G13G 9G11
  22195283.966    22195285.055    45207235.500 9 -43932942.200 9
  20731818.131    20731819.147    -7540280.989 9   3267517.863 9
  20093980.563    20093982.560    21382000.068 8 -62380117.340 7
  22386277.785    22386279.422    44876743.745 9 -44164704.031 9
 86  6 13  1 57 47.0800000  0  4G 6G13G 9G11
  22198901.705    22198902.060    45226248.460 9 -43918126.911 9
  20730870.500    20730872.566    -7545262.338 9   3263636.294 9
  20094555.538    20094555.799    21385017.696 8 -62377765.941 7
  22389241.448    22389242.757    44892319.342 9 -44152567.208 9
 86  6 13  1 57 53.0800000  0  4G 6G13G 9G11
  22202523.557    22202524.432    45245277.596 9 -43903299.025 9
  20729925.507    20729928.188    -7550224.941 9   3259769.331 9
  20095135.372    20095133.529    21388061.010 8 -62375394.536 8
  22392207.047    22392209.057    44907900.683 9 -44140425.898 9
 86  6 13  1 57 59.0800000  0  4G 6G13G 9G11
  22206146.932    22206149.377    45264322.915 9 -43888458.525 8
  20728985.253    20728987.065    -7555168.728 8   3255917.036 8
  20095719.172    20095718.979    21391130.149 7 -62373002.996 8
  22395172.992    22395175.246    44923487.726 9 -44128280.159 9
 86  6 13  1 58  5.0800000  0  4G 6G13G 9G11
  22209774.255    22209775.198    45283384.368 9 -43873605.444 9
  20728047.120    20728049.765    -7560093.732 9   3252079.367 8
  20096309.153    20096308.186    21394225.054 7 -62370591.379 7
  22398139.752    22398141.722    44939080.471 9 -44116129.971 9
 86  6 13  1 58 11.0800000  0  4G 6G13G 9G11
  22213403.755    22213406.815    45302462.004 9 -43858739.754 8
  20727114.548    20727115.565    -7565000.071 8   3248256.257 8
  20096901.738    20096901.990    21397345.610 8 -62368159.772 7
  22401108.674    22401110.364    44954678.872 9 -44103975.388 9
 86  6 13  1 58 17.0800000  0  4G 6G13G 9G11
  22217038.057    22217039.133    45321555.718 9 -43843861.548 8
  20726183.979    20726185.659    -7569887.750 9   3244447.676 9
  20097499.693    20097501.110    21400492.005 8 -62365708.041 7
  22404077.631    22404079.991    44970282.912 9 -44091816.386 9
 86  6 13  1 58 23.0800000  0  4G 6G13G 9G11
  22220674.880    22220675.595    45340665.515 9 -43828970.814 9
  20725258.322    20725258.843    -7574756.708 9   3240653.690 8
  20098103.583    20098104.574    21403664.044 8 -62363236.317 7
  22407048.907    22407051.018    44985892.537 9 -44079653.048 9
 86  6 13  1 58 29.0800000  0  4G 6G13G 9G11
  22224314.247    22224315.224    45359791.416 9 -43814067.520 8
  20724334.736    20724336.320    -7579606.965 9   3236874.269 8
  20098711.948    20098713.892    21406861.869 9 -62360744.516 7
  22410019.927    22410021.819    45001507.770 9 -44067485.344 9
 86  6 13  1 58 35.0800000  0  4G 6G13G 9G11
  22227957.434    22227958.022    45378933.325 9 -43799151.752 8
  20723415.131    20723416.632    -7584438.579 8   3233109.379 8
  20099326.983    20099325.541    21410085.472 7 -62358232.619 7
  22412991.552    22412994.181    45017128.535 9 -44055313.312 9
 86  6 13  1 58 41.0800000  0  4G 6G13G 9G11
  22231602.493    22231603.943    45398091.281 9 -43784223.479 8
  20722499.620    20722500.299    -7589251.507 9   3229359.054 9
  20099943.285    20099943.275    21413334.722 7 -62355700.735 7
  22415966.293    22415967.913    45032754.890 9 -44043136.940 9
 86  6 13  1 58 47.0800000  0  4G 6G13G 9G11
  22235251.485    22235252.438    45417265.244 9 -43769282.735 9
  20721586.979    20721588.413    -7594045.842 9   3225623.213 8
  20100567.077    20100567.350    21416609.723 8 -62353148.783 8
  22418941.870    22418941.624    45048386.759 9 -44030956.263 9
 86  6 13  1 58 53.0800000  0  4G 6G13G 9G11
  22238903.441    22238903.991    45436455.238 9 -43754329.492 9
  20720677.196    20720679.044    -7598821.530 9   3221901.892 8
  20101195.839    20101197.978    21419910.553 8 -62350576.707 6
  22421916.503    22421918.289    45064024.228 9 -44018771.231 8
 86  6 13  1 58 59.0800000  0  4G 6G13G 9G11
  22242557.785    22242557.987    45455661.248 9 -43739363.794 9
  20719772.410    20719774.388    -7603578.548 9   3218195.132 8
  20101827.866    20101829.789    21423237.119 8 -62347984.578 8
  22424893.871    22424894.547    45079667.216 9 -44006581.895 9
 86  6 13  1 59  5.0800000  0  4G 6G13G 9G11
  22246215.181    22246216.820    45474883.199 9 -43724385.644 8
  20718871.521    20718873.207    -7608316.906 9   3214502.916 8
  20102466.238    20102466.587    21426589.512 7 -62345372.334 8
  22427871.443    22427872.540    45095315.699 9 -43994388.273 8
 86  6 13  1 59 11.0800000  0  4G 6G13G 9G11
  22249876.701    22249877.417    45494121.136 9 -43709395.054 8
  20717973.338    20717974.093    -7613036.597 9   3210825.234 8
  20103108.970    20103110.431    21429967.669 8 -62342740.000 8
  22430850.689    22430851.681    45110969.674 9 -43982190.381 9
 86  6 13  1 59 17.0800000  0  4G 6G13G 9G11
  22253540.600    22253541.389    45513374.964 9 -43694392.074 8
  20717078.780    20717079.396    -7617737.634 9   3207162.098 9
  20103756.040    20103757.674    21433371.505 7 -62340087.667 7
  22433829.300    22433831.407    45126629.187 9 -43969988.169 9
 86  6 13  1 59 23.0800000  0  4G 6G13G 9G11
  22257206.785    22257207.614    45532644.734 9 -43679376.684 8
  20716187.559    20716188.276    -7622420.069 9   3203513.440 8
  20104408.412    20104411.697    21436801.121 8 -62337415.258 7
  22436811.444    22436813.320    45142294.115 9 -43957781.737 9
 86  6 13  1 59 29.0800000  0  4G 6G13G 9G11
  22260876.978    22260878.439    45551930.389 9 -43664348.909 8
  20715298.888    20715301.718    -7627083.870 9   3199879.318 9
  20105067.233    20105067.440    21440256.499 8 -62334722.745 8
  22439793.104    22439794.248    45157964.491 9 -43945571.057 9
 86  6 13  1 59 35.0800000  0  4G 6G13G 9G11
  22264550.114    22264551.879    45571231.926 9 -43649308.753 8
  20714416.350    20714418.183    -7631729.089 8   3196259.662 8
  20105728.640    20105730.283    21443737.707 8 -62332010.096 7
  22442775.509    22442777.141    45173640.290 9 -43933356.146 9
 86  6 13  1 59 41.0800000  0  4G 6G13G 9G11
  22268226.463    22268227.081    45590549.357 9 -43634256.216 8
  20713535.286    20713537.759    -7636355.676 9   3192654.545 8
  20106396.068    20106397.193    21447244.683 7 -62329277.396 7
  22445759.465    22445760.984    45189321.443 9 -43921137.076 8
 86  6 13  1 59 47.0800000  0  4G 6G13G 9G11
  22271905.039    22271905.700    45609882.630 9 -43619191.334 8
  20712658.890    20712659.889    -7640963.596 9   3189063.962 8
  20107069.562    20107069.307    21450777.487 8 -62326524.583 7
  22448745.323    22448747.023    45205007.917 9 -43908913.847 9
 86  6 13  1 59 53.0800000  0  4G 6G13G 9G11
  22275587.598    22275588.608    45629231.731 9 -43604114.122 8
  20711784.332    20711787.220    -7645552.878 9   3185487.902 8
  20107745.859    20107747.620    21454336.076 8 -62323751.649 7
  22451730.786    22451732.950    45220699.726 9 -43896686.468 9
 86  6 13  1 59 59.0800000  0  4G 6G13G 9G11
  22279272.785    22279272.949    45648596.624 9 -43589024.602 8
  20710915.016    20710916.762    -7650123.639 9   3181926.271 8
  20108426.946    20108428.543    21457920.299 8 -62320958.735 7
  22454719.016    22454720.477    45236396.907 9 -43884454.902 9
 86  6 13  2  0  5.0800000  0  4G 6G13G 9G11
  22282960.180    22282960.638    45667977.264 9 -43573922.810 9
  20710049.882    20710050.779    -7654675.890 9   3178379.067 9
  20109114.939    20109115.493    21461530.444 8 -62318145.646 8
  22457706.076    22457707.550    45252099.403 9 -43872219.192 9
 86  6 13  2  0 11.0800000  0  4G 6G13G 9G11
  22286651.490    22286652.581    45687373.716 9 -43558808.693 8
  20709186.313    20709187.593    -7659209.666 9   3174846.257 8
  20109807.031    20109806.466    21465166.358 7 -62315312.471 8
  22460695.418    22460697.014    45267807.217 9 -43859979.346 9
 86  6 13  2  0 17.0800000  0  4G 6G13G 9G11
  22290345.439    22290345.981    45706785.906 9 -43543682.317 8
  20708327.772    20708328.345    -7663724.926 9   3171327.877 8
  20110504.123    20110504.606    21468828.034 8 -62312459.224 8
  22463685.506    22463688.468    45283520.264 9 -43847735.426 9
 86  6 13  2  0 23.0800000  0  4G 6G13G 9G11
  22294041.987    22294043.949    45726213.858 9 -43528543.666 9
  20707472.677    20707473.915    -7668221.669 9   3167823.925 8
  20111205.430    20111205.574    21472515.454 7 -62309585.906 7
  22466676.788    22466678.288    45299238.592 8 -43835487.383 9
 86  6 13  2  0 29.0800000  0  4G 6G13G 9G11
  22297742.116    22297743.108    45745657.532 9 -43513392.753 9
  20706619.876    20706621.191    -7672699.776 9   3164334.495 9
  20111912.780    20111912.829    21476228.778 8 -62306692.397 7
  22469668.437    22469669.866    45314962.222 9 -43823235.195 8
 86  6 13  2  0 35.0800000  0  4G 6G13G 9G11
  22301445.534    22301447.369    45765116.957 9 -43498229.574 8
  20705771.345    20705772.208    -7677159.250 9   3160859.588 8
  20112623.720    20112623.562    21479967.891 8 -62303778.814 7
  22472661.392    22472664.221    45330691.070 9 -43810978.954 9
 86  6 13  2  0 41.0800000  0  4G 6G13G 9G11
  22305150.671    22305152.442    45784591.951 9 -43483054.258 9
  20704926.297    20704926.639    -7681600.155 9   3157399.140 9
  20113339.638    20113340.693    21483732.755 7 -62300845.146 8
  22475655.962    22475657.711    45346425.089 9 -43798718.689 9
 86  6 13  2  0 47.0800000  0  4G 6G13G 9G11
  22308860.242    22308860.973    45804082.642 9 -43467866.714 9
  20704084.410    20704085.545    -7686022.593 8   3153953.099 9
  20114060.531    20114061.475    21487523.366 7 -62297891.421 8
  22478650.666    22478652.531    45362164.332 9 -43786454.340 9
 86  6 13  2  0 53.0800000  0  4G 6G13G 9G11
  22312571.819    22312573.890    45823588.979 9 -43452666.980 8
  20703246.741    20703248.374    -7690426.503 9   3150521.478 8
  20114787.458    20114787.866    21491339.874 8 -62294917.534 7
  22481647.062    22481648.753    45377908.782 9 -43774185.945 8
 86  6 13  2  0 59.0800000  0  4G 6G13G 9G11
  22316286.364    22316288.171    45843110.931 8 -43437455.080 8
  20702411.223    20702412.342    -7694811.906 9   3147104.285 8
  20115518.135    20115519.180    21495182.127 8 -62291923.567 7
  22484643.289    22484646.063    45393658.391 9 -43761913.530 9
 86  6 13  2  1  5.0800000  0  4G 6G13G 9G11
  22320004.412    22320005.294    45862648.510 9 -43422230.996 9
  20701581.171    20701583.388    -7699178.822 9   3143701.497 8
  20116253.632    20116254.354    21499050.267 7 -62288909.436 7
  22487641.418    22487644.558    45409413.236 9 -43749637.028 8
 86  6 13  2  1 11.0800000  0  4G 6G13G 9G11
  22323725.257    22323727.020    45882201.685 9 -43406994.767 8
  20700753.780    20700754.366    -7703527.265 9   3140313.104 8
  20116995.770    20116996.209    21502944.153 7 -62285875.248 7
  22490640.726    22490643.066    45425173.229 9 -43737356.515 9
 86  6 13  2  1 17.0800000  0  4G 6G13G 9G11
  22327449.395    22327449.955    45901770.410 9 -43391746.419 8
  20699929.957    20699930.580    -7707857.202 9   3136939.121 9
  20117740.425    20117742.279    21506863.861 7 -62282820.916 7
  22493640.226    22493643.172    45440938.305 9 -43725072.039 9
 86  6 13  2  1 23.0800000  0  4G 6G13G 9G11
  22331176.142    22331177.415    45921354.714 8 -43376485.923 8
  20699108.706    20699110.595    -7712168.569 9   3133579.621 9
  20118491.884    20118493.958    21510809.387 8 -62279746.494 8
  22496641.595    22496643.270    45456708.470 8 -43712783.611 9
 86  6 13  2  1 29.0800000  0  4G 6G13G 9G11
  22334905.569    22334907.032    45940954.552 9 -43361213.342 9
  20698292.691    20698293.235    -7716461.456 9   3130234.509 8
  20119248.310    20119249.426    21514780.686 8 -62276651.971 6
  22499643.606    22499646.660    45472483.736 9 -43700491.201 9
 86  6 13  2  1 35.0800000  0  4G 6G13G 9G11
  22338638.155    22338639.518    45960569.872 9 -43345928.685 9
  20697478.921    20697479.500    -7720735.850 9   3126903.816 8
  20120008.864    20120009.913    21518777.755 7 -62273537.378 8
  22502646.571    22502649.108    45488264.038 9 -43688194.867 8
 86  6 13  2  1 41.0800000  0  4G 6G13G 9G11
  22342375.057    22342375.515    45980200.694 9 -43330631.944 8
  20696668.096    20696670.107    -7724991.703 8   3123587.584 9
  20120774.537    20120776.582    21522800.696 7 -62270402.603 7
  22505649.994    22505653.020    45504049.428 9 -43675894.570 9
 86  6 13  2  1 47.0800000  0  4G 6G13G 9G11
  22346112.897    22346114.320    45999847.058 9 -43315323.098 8
  20695862.180    20695864.327    -7729229.068 9   3120285.739 9
  20121543.921    20121546.279    21526849.482 7 -62267247.714 7
  22508654.924    22508656.982    45519839.833 9 -43663590.363 8
 86  6 13  2  1 53.0800000  0  4G 6G13G 9G11
  22349854.182    22349855.758    46019508.914 9 -43300002.186 8
  20695059.223    20695059.787    -7733447.982 9   3116998.281 9
  20122319.879    20122321.792    21530924.155 7 -62264072.650 8
  22511660.974    22511663.393    45535635.267 9 -43651282.231 9
 86  6 13  2  1 59.0800000  0  4G 6G13G 9G11
  22353599.123    22353599.988    46039186.165 9 -43284669.260 8
  20694259.592    20694262.489    -7737648.497 9   3113725.151 8
  20123099.978    20123101.231    21535024.588 8 -62260877.498 7
  22514668.099    22514670.755    45551435.694 9 -43638970.211 8
 86  6 13  2  2  5.0800000  0  4G 6G13G 9G11
  22357345.812    22357347.978    46058878.827 9 -43269324.333 8
  20693464.776    20693465.372    -7741830.621 9   3110466.356 8
  20123885.311    20123887.638    21539150.814 8 -62257662.261 7
  22517675.172    22517678.057    45567241.020 9 -43626654.381 8
 86  6 13  2  2 11.0800000  0  4G 6G13G 9G11
  22361096.279    22361098.100    46078586.919 9 -43253967.391 9
  20692672.680    20692674.227    -7745994.260 8   3107221.958 9
  20124676.307    20124676.346    21543302.834 7 -62254426.925 8
  22520683.438    22520685.362    45583051.300 9 -43614334.681 9
 86  6 13  2  2 17.0800000  0  4G 6G13G 9G11
  22364850.559    22364852.174    46098310.431 9 -43238598.420 8
  20691883.790    20691885.266    -7750139.469 9   3103991.937 8
  20125470.561    20125471.868    21547480.757 7 -62251171.398 8
  22523693.506    22523696.279    45598866.549 9 -43602011.120 8
 86  6 13  2  2 23.0800000  0  4G 6G13G 9G11
  22368605.259    22368608.147    46118049.317 9 -43223217.481 8
  20691097.788    20691099.404    -7754266.307 9   3100776.217 8
  20126270.206    20126270.891    21551684.406 8 -62247895.830 7
  22526703.802    22526706.875    45614686.718 9 -43589683.720 8
 86  6 13  2  2 29.0800000  0  4G 6G13G 9G11
  22372364.480    22372366.721    46137803.513 8 -43207824.611 8
  20690316.300    20690318.419    -7758374.703 9   3097574.870 9
  20127074.659    20127076.958    21555913.873 9 -62244600.145 8
  22529715.674    22529718.384    45630511.807 9 -43577352.484 8
 86  6 13  2  2 35.0800000  0  4G 6G13G 9G11
  22376127.543    22376128.680    46157573.043 9 -43192419.797 9
  20689537.589    20689538.348    -7762464.764 9   3094387.810 8
  20127885.800    20127885.971    21560169.173 7 -62241284.323 7
  22532727.943    22532730.837    45646341.819 9 -43565017.415 9
 86  6 13  2  2 41.0800000  0  4G 6G13G 9G11
  22379892.149    22379893.325    46177357.894 9 -43177003.039 8
  20688762.870    20688764.022    -7766536.473 9   3091215.051 8
  20128699.322    20128702.288    21564450.400 7 -62237948.313 8
  22535740.727    22535743.502    45662176.694 9 -43552678.547 8
 86  6 13  2  2 47.0800000  0  4G 6G13G 9G11
  22383659.845    22383661.903    46197158.047 9 -43161574.348 7
  20687992.159    20687992.747    -7770589.803 8   3088056.622 9
  20129517.920    20129519.801    21568757.359 7 -62234592.233 8
  22538755.229    22538757.128    45678016.420 9 -43540335.917 8
 86  6 13  2  2 53.0800000  0  4G 6G13G 9G11
  22387430.373    22387431.618    46216973.510 9 -43146133.738 8
  20687223.608    20687225.021    -7774624.760 9   3084912.503 9
  20130344.481    20130345.257    21573090.161 7 -62231216.023 7
  22541770.684    22541772.713    45693861.013 9 -43527989.480 9
 86  6 13  2  2 59.0800000  0  4G 6G13G 9G11
  22391204.251    22391206.465    46236804.237 9 -43130681.244 8
  20686459.774    20686461.158    -7778641.305 9   3081782.737 8
  20131172.669    20131174.244    21577448.886 8 -62227819.616 6
  22544786.455    22544788.628    45709710.470 9 -43515639.253 9
 86  6 13  2  3  5.0800000  0  4G 6G13G 9G11
  22394980.324    22394982.953    46256650.187 9 -43115216.864 8
  20685699.045    20685700.405    -7782639.525 9   3078667.235 8
  20132007.539    20132009.513    21581833.378 8 -62224403.129 7
  22547802.976    22547806.294    45725564.780 9 -43503285.249 9
 86  6 13  2  3 11.0800000  0  4G 6G13G 9G11
  22398759.985    22398761.640    46276511.382 9 -43099740.611 9
  20684940.728    20684942.789    -7786619.352 9   3075566.079 8
  20132845.991    20132847.642    21586243.675 7 -62220966.524 7
  22550821.279    22550823.428    45741423.849 9 -43490927.535 8
 86  6 13  2  3 17.0800000  0  4G 6G13G 9G11
  22402541.964    22402543.138    46296387.807 9 -43084252.491 8
  20684187.583    20684189.538    -7790580.847 9   3072479.195 9
  20133690.631    20133692.531    21590679.799 7 -62217509.816 8
  22553839.991    22553842.635    45757287.742 9 -43478566.061 8
 86  6 13  2  3 23.0800000  0  4G 6G13G 9G11
  22406327.572    22406329.549    46316279.351 9 -43068752.596 8
  20683436.697    20683438.657    -7794523.996 9   3069406.623 9
  20134540.436    20134541.741    21595141.794 7 -62214032.926 7
  22556860.468    22556862.247    45773156.340 9 -43466200.929 9
 86  6 13  2  3 29.0800000  0  4G 6G13G 9G11
  22410115.530    22410118.026    46336186.127 8 -43053240.835 8
  20682690.290    20682692.204    -7798448.826 8   3066348.316 8
  20135395.220    20135394.845    21599629.522 8 -62210535.997 7
  22559881.068    22559882.055    45789029.612 8 -43453832.144 9
 86  6 13  2  3 35.0800000  0  4G 6G13G 9G11
  22413906.553    22413909.657    46356108.005 9 -43037717.302 9
  20681947.586    20681948.307    -7802355.350 9   3063304.275 8
  20136251.693    20136254.002    21604143.111 7 -62207018.923 8
  22562901.618    22562903.567    45804907.612 9 -43441459.680 8
 86  6 13  2  3 41.0800000  0  4G 6G13G 9G11
  22417701.262    22417702.449    46376045.027 9 -43022181.966 9
  20681206.354    20681208.131    -7806243.549 9   3060274.516 9
  20137116.219    20137119.123    21608682.533 7 -62203481.705 6
  22565924.995    22565927.063    45820790.313 9 -43429083.547 9
 86  6 13  2  3 47.0800000  0  4G 6G13G 9G11
  22421497.290    22421499.912    46395997.167 9 -43006634.862 7
  20680470.611    20680472.669    -7810113.459 9   3057259.002 8
  20137986.238    20137986.942    21613247.815 8 -62199924.343 8
  22568947.376    22568950.571    45836677.672 9 -43416703.795 8
 86  6 13  2  3 53.0800000  0  4G 6G13G 9G11
  22425297.266    22425299.705    46415964.369 9 -42991076.007 8
  20679737.150    20679739.330    -7813965.103 9   3054257.718 8
  20138859.580    20138860.867    21617838.887 8 -62196346.891 6
  22571971.766    22571974.296    45852569.679 9 -43404320.425 9
 86  6 13  2  3 59.0800000  0  4G 6G13G 9G11
  22429099.653    22429100.913    46435946.621 9 -42975505.424 8
  20679007.667    20679009.171    -7817798.398 9   3051270.745 9
  20139737.681    20139738.456    21622455.859 8 -62192749.247 6
  22574995.977    22574998.363    45868466.365 9 -43391933.400 9
 86  6 13  2  4  5.0800000  0  4G 6G13G 9G11
  22432905.408    22432906.567    46455943.958 9 -42959923.092 8
  20678282.002    20678283.439    -7821613.414 9   3048298.003 9
  20140621.679    20140623.221    21627098.625 7 -62189131.519 8
  22578023.031    22578025.604    45884367.730 8 -43379542.724 8
 86  6 13  2  4 11.0800000  0  4G 6G13G 9G11
  22436713.112    22436714.671    46475956.367 9 -42944329.007 8
  20677560.202    20677560.128    -7825410.121 9   3045339.544 9
  20141510.691    20141511.147    21631767.222 8 -62185493.646 7
  22581049.603    22581052.280    45900273.755 9 -43367148.428 9
 86  6 13  2  4 17.0800000  0  4G 6G13G 9G11
  22440524.018    22440525.907    46495983.763 9 -42928723.263 9
  20676840.890    20676841.568    -7829188.574 9   3042395.292 8
  20142403.960    20142404.852    21636461.663 7 -62181835.652 7
  22584077.165    22584079.794    45916184.388 8 -43354750.540 9
 86  6 13  2  4 23.0800000  0  4G 6G13G 9G11
  22444339.016    22444340.112    46516026.167 8 -42913105.816 9
  20676125.096    20676126.280    -7832948.777 9   3039465.250 8
  20143302.028    20143303.275    21641181.865 8 -62178157.571 8
  22587106.567    22587108.187    45932099.585 9 -43342349.098 9
 86  6 13  2  4 29.0800000  0  4G 6G13G 9G11
  22448155.114    22448156.341    46536083.491 9 -42897476.730 9
  20675413.101    20675414.515    -7836690.800 9   3036549.408 9
  20144204.509    20144205.761    21645927.909 9 -62174459.348 8
  22590135.613    22590137.726    45948019.288 9 -43329944.120 9
 86  6 13  2  4 35.0800000  0  4G 6G13G 9G11
  22451974.435    22451976.040    46556155.809 9 -42881835.978 9
  20674703.933    20674706.609    -7840414.510 8   3033647.822 8
  20145113.080    20145114.148    21650699.818 8 -62170740.978 7
  22593166.351    22593168.674    45963943.515 9 -43317535.642 9
 86  6 13  2  4 41.0800000  0  4G 6G13G 9G11
  22455796.813    22455799.650    46576243.107 9 -42866183.542 8
  20673999.582    20674000.967    -7844120.030 9   3030760.415 8
  20146025.991    20146026.708    21655497.567 7 -62167002.485 7
  22596196.071    22596198.830    45979872.292 9 -43305123.614 8
 86  6 13  2  4 47.0800000  0  4G 6G13G 9G11
  22459622.092    22459624.771    46596345.276 9 -42850519.525 9
  20673297.549    20673299.130    -7847807.369 9   3027887.160 8
  20146943.522    20146944.477    21660321.161 8 -62163243.834 7
  22599228.279    22599230.964    45995805.616 9 -43292708.043 8
 86  6 13  2  4 53.0800000  0  4G 6G13G 9G11
  22463451.468    22463452.282    46616462.332 8 -42834843.893 9
  20672598.765    20672600.488    -7851476.577 9   3025028.043 8
  20147866.117    20147868.090    21665170.574 8 -62159465.079 7
  22602261.121    22602264.517    46011743.497 9 -43280288.927 8
 86  6 13  2  4 59.0800000  0  4G 6G13G 9G11
  22467281.690    22467283.482    46636594.292 9 -42819156.663 9
  20671905.022    20671906.082    -7855127.525 9   3022183.145 8
  20148794.060    20148795.291    21670045.763 7 -62155666.231 7
  22605295.388    22605297.550    46027685.875 9 -43267866.293 9
 86  6 13  2  5  5.0800000  0  4G 6G13G 9G11
  22471115.981    22471117.439    46656741.102 9 -42803457.861 8
  20671212.671    20671214.814    -7858760.245 9   3019352.460 9
  20149726.439    20149728.822    21674946.701 8 -62151847.325 7
  22608328.943    22608331.647    46043632.712 9 -43255440.195 9
 86  6 13  2  5 11.0800000  0  4G 6G13G 9G11
  22474952.416    22474955.180    46676902.779 9 -42787747.481 8
  20670525.314    20670526.151    -7862374.702 9   3016536.005 9
  20150664.735    20150665.942    21679873.629 8 -62148008.148 6
  22611365.589    22611367.485    46059584.025 9 -43243010.600 8
 86  6 13  2  5 17.0800000  0  4G 6G13G 9G11
  22478791.600    22478794.000    46697079.299 9 -42772025.505 9
  20669841.676    20669841.762    -7865970.926 9   3013733.755 8
  20151607.976    20151606.737    21684826.277 7 -62144148.946 7
  22614401.612    22614404.370    46075539.736 8 -43230577.582 9
 86  6 13  2  5 23.0800000  0  4G 6G13G 9G11
  22482634.247    22482635.713    46717270.631 9 -42756292.022 8
  20669158.880    20669161.695    -7869549.001 9   3010945.650 8
  20152553.908    20152554.852    21689804.803 8 -62140269.579 8
  22617438.664    22617440.887    46091499.905 9 -43218141.088 9
 86  6 13  2  5 29.0800000  0  4G 6G13G 9G11
  22486478.955    22486482.120    46737476.780 9 -42740546.974 9
  20668482.201    20668485.155    -7873108.942 8   3008171.672 8
  20153506.780    20153507.409    21694809.193 8 -62136370.057 7
  22620476.557    22620478.013    46107464.436 8 -43205701.208 9
 86  6 13  2  5 35.0800000  0  4G 6G13G 9G11
  22490327.643    22490329.533    46757697.684 9 -42724790.446 8
  20667808.172    20667810.179    -7876650.684 9   3005411.881 8
  20154464.105    20154465.096    21699839.419 7 -62132450.403 7
  22623515.709    22623516.872    46123433.346 9 -43193257.900 9
 86  6 13  2  5 41.0800000  0  4G 6G13G 9G11
  22494178.070    22494180.166    46777933.327 9 -42709022.422 9
  20667138.880    20667141.170    -7880174.308 9   3002666.206 8
  20155426.426    20155427.097    21704895.434 8 -62128510.653 7
  22626554.580    22626557.503    46139406.665 9 -43180811.167 9
 86  6 13  2  5 47.0800000  0  4G 6G13G 9G11
  22498030.590    22498032.769    46798183.738 9 -42693242.885 9
  20666471.064    20666472.310    -7883679.806 9   2999934.653 8
  20156393.592    20156393.286    21709977.291 8 -62124550.757 7
  22629595.831    22629597.650    46155384.322 9 -43168361.049 9
 86  6 13  2  5 53.0800000  0  4G 6G13G 9G11
  22501887.519    22501891.485    46818448.812 9 -42677451.925 9
  20665806.990    20665809.882    -7887167.167 9   2997217.226 8
  20157365.717    20157365.784    21715085.004 8 -62120570.735 7
  22632636.279    22632638.619    46171366.268 9 -43155907.587 9
 86  6 13  2  5 59.0800000  0  4G 6G13G 9G11
  22505746.365    22505748.888    46838728.631 9 -42661649.475 9
  20665148.110    20665149.427    -7890636.343 8   2994513.981 9
  20158343.358    20158342.226    21720218.501 8 -62116570.607 8
  22635678.853    22635681.346    46187352.542 8 -43143450.761 9
 86  6 13  2  6  5.0800000  0  4G 6G13G 9G11
  22509608.648    22509611.042    46859023.115 9 -42645835.595 9
  20664490.550    20664492.979    -7894087.457 9   2991824.810 9
  20159323.869    20159325.106    21725377.884 8 -62112550.312 7
  22638721.515    22638724.302    46203343.144 9 -43130990.554 8
 86  6 13  2  6 11.0800000  0  4G 6G13G 9G11
  22513474.217    22513475.535    46879332.222 9 -42630010.327 8
  20663837.320    20663838.324    -7897520.495 9   2989149.707 8
  20160310.368    20160311.108    21730563.062 7 -62108509.916 7
  22641765.278    22641766.677    46219338.083 8 -43118526.966 9
 86  6 13  2  6 17.0800000  0  4G 6G13G 9G11
  22517340.327    22517343.261    46899656.055 9 -42614173.585 9
  20663187.058    20663189.487    -7900935.367 9   2986488.778 8
  20161301.560    20161301.849    21735774.075 8 -62104449.390 7
  22644810.617    22644811.689    46235337.353 9 -43106060.002 8
 86  6 13  2  6 23.0800000  0  4G 6G13G 9G11
  22521210.450    22521212.231    46919994.475 8 -42598325.468 9
  20662540.766    20662542.884    -7904332.128 9   2983841.958 8
  20162298.843    20162300.166    21741010.872 7 -62100368.775 7
  22647856.252    22647857.671    46251340.831 9 -43093589.766 9
 86  6 13  2  6 29.0800000  0  4G 6G13G 9G11
  22525083.722    22525086.569    46940347.436 9 -42582466.037 9
  20661897.944    20661900.021    -7907710.826 9   2981209.204 9
  20163300.351    20163300.424    21746273.488 8 -62096268.028 7
  22650902.049    22650903.747    46267348.519 9 -43081116.244 8
 86  6 13  2  6 35.0800000  0  4G 6G13G 9G11
  22528959.335    22528962.488    46960714.966 9 -42566595.227 8
  20661258.521    20661259.989    -7911071.473 9   2978590.532 9
  20164307.154    20164307.007    21751561.958 8 -62092147.159 7
  22653948.635    22653949.896    46283360.496 9 -43068639.386 9
 86  6 13  2  6 41.0800000  0  4G 6G13G 9G11
  22532838.697    22532840.288    46981097.061 9 -42550713.084 8
  20660622.352    20660624.003    -7914414.018 9   2975985.954 8
  20165319.204    20165318.299    21756876.279 7 -62088006.118 7
  22656996.417    22656998.350    46299376.693 9 -43056159.244 8
 86  6 13  2  6 47.0800000  0  4G 6G13G 9G11
  22536719.957    22536721.860    47001493.722 9 -42534819.593 8
  20659989.675    20659991.831    -7917738.518 9   2973395.432 8
  20166334.072    20166333.095    21762216.362 7 -62083845.028 7
  22660044.443    22660047.043    46315396.991 9 -43043675.906 8
 86  6 13  2  6 53.0800000  0  4G 6G13G 9G11
  22540603.007    22540606.930    47021904.864 9 -42518914.809 8
  20659361.050    20659362.791    -7921044.906 9   2970819.031 9
  20167354.200    20167355.183    21767582.273 8 -62079663.783 8
  22663094.759    22663097.517    46331421.461 9 -43031189.302 8
 86  6 13  2  6 59.0800000  0  4G 6G13G 9G11
  22544490.702    22544493.535    47042330.619 8 -42502998.653 8
  20658735.360    20658736.792    -7924333.225 9   2968256.698 9
  20168381.127    20168381.342    21772974.076 8 -62075462.395 7
  22666143.812    22666146.863    46347450.140 9 -43018699.421 8
 86  6 13  2  7  5.0800000  0  4G 6G13G 9G11
  22548381.462    22548383.165    47062770.789 9 -42487071.248 8
  20658112.396    20658115.029    -7927603.523 9   2965708.431 8
  20169412.205    20169412.496    21778391.611 8 -62071240.941 7
  22669194.695    22669197.922    46363482.943 9 -43006206.340 8
 86  6 13  2  7 11.0800000  0  4G 6G13G 9G11
  22552272.984    22552275.116    47083225.443 9 -42471132.571 8
  20657493.907    20657495.603    -7930855.748 9   2963174.241 9
  20170448.643    20170447.928    21783835.076 7 -62066999.281 7
  22672247.411    22672249.628    46379519.872 9 -42993710.043 9
 86  6 13  2  7 17.0800000  0  4G 6G13G 9G11
  22556167.289    22556170.769    47103694.574 9 -42455182.605 8
  20656879.144    20656879.814    -7934089.957 9   2960654.068 8
  20171488.431    20171488.775    21789304.293 8 -62062737.548 7
  22675299.733    22675301.929    46395560.916 9 -42981210.528 9
 86  6 13  2  7 23.0800000  0  4G 6G13G 9G11
  22560066.224    22560068.749    47124178.155 9 -42439221.375 9
  20656265.471    20656268.858    -7937306.169 9   2958147.943 9
  20172534.129    20172533.863    21794799.420 8 -62058455.643 7
  22678352.368    22678354.055    46411606.139 9 -42968707.758 9
 86  6 13  2  7 29.0800000  0  4G 6G13G 9G11
  22563966.687    22563968.703    47144676.146 9 -42423248.922 8
  20655657.569    20655659.421    -7940504.433 9   2955655.785 9
  20173583.806    20173585.662    21800320.361 7 -62054153.606 6
  22681407.545    22681408.745    46427655.441 9 -42956201.817 9
 86  6 13  2  7 35.0800000  0  4G 6G13G 9G11
  22567870.057    22567871.592    47165188.522 9 -42407265.258 9
  20655053.082    20655053.578    -7943684.703 9   2953177.661 8
  20174640.769    20174639.797    21805867.076 8 -62049831.494 6
  22684461.471    22684465.014    46443708.783 9 -42943692.710 8
 86  6 13  2  7 41.0800000  0  4G 6G13G 9G11
  22571775.951    22571777.645    47185715.303 9 -42391270.378 9
  20654450.555    20654451.115    -7946846.877 9   2950713.633 8
  20175701.263    20175701.607    21811439.594 7 -62045489.273 8
  22687518.213    22687520.688    46459766.239 8 -42931180.422 8
 86  6 13  2  7 47.0800000  0  4G 6G13G 9G11
  22575685.221    22575687.416    47206256.419 9 -42375264.321 8
  20653852.618    20653854.355    -7949991.190 9   2948263.508 8
  20176765.156    20176768.062    21817037.938 8 -62041126.922 7
  22690573.404    22690576.734    46475827.723 8 -42918664.983 9
 86  6 13  2  7 53.0800000  0  4G 6G13G 9G11
  22579596.815    22579598.418    47226811.887 8 -42359247.076 9
  20653257.642    20653258.749    -7953117.657 8   2945827.316 8
  20177836.005    20177835.606    21822662.123 8 -62036744.455 7
  22693630.935    22693632.687    46491893.201 9 -42906146.438 9
 86  6 13  2  7 59.0800000  0  4G 6G13G 9G11
  22583510.942    22583513.253    47247381.638 9 -42343218.708 8
  20652666.329    20652667.649    -7956226.152 9   2943405.127 8
  20178910.425    20178912.350    21828312.100 8 -62032341.879 7
  22696688.364    22696690.762    46507962.666 9 -42893624.773 9
 86  6 13  2  8  5.0800000  0  4G 6G13G 9G11
  22587427.457    22587429.992    47267965.689 8 -42327179.195 8
  20652077.683    20652079.462    -7959316.639 9   2940996.951 8
  20179990.474    20179991.503    21833987.944 8 -62027919.140 7
  22699747.510    22699750.481    46524036.103 9 -42881100.034 9
 86  6 13  2  8 11.0800000  0  4G 6G13G 9G11
  22591347.492    22591349.827    47288564.069 9 -42311128.524 8
  20651493.023    20651495.332    -7962389.097 9   2938602.828 9
  20181076.730    20181075.808    21839689.568 7 -62023476.302 6
  22702806.876    22702809.818    46540113.584 9 -42868572.129 9
 86  6 13  2  8 17.0800000  0  4G 6G13G 9G11
  22595270.644    22595272.800    47309176.605 8 -42295066.812 9
  20650912.695    20650913.876    -7965443.648 9   2936222.671 8
  20182166.143    20182165.780    21845416.972 7 -62019013.403 7
  22705867.175    22705869.316    46556194.931 9 -42856041.212 9
 86  6 13  2  8 23.0800000  0  4G 6G13G 9G11
  22599195.823    22599196.944    47329803.403 9 -42278993.986 8
  20650334.632    20650334.916    -7968480.238 9   2933856.496 9
  20183260.435    20183262.028    21851170.049 8 -62014530.480 7
  22708927.283    22708929.585    46572280.238 9 -42843507.208 9
 86  6 13  2  8 29.0800000  0  4G 6G13G 9G11
  22603123.868    22603125.659    47350444.482 9 -42262910.049 8
  20649759.847    20649761.078    -7971498.905 9   2931504.293 8
  20184359.459    20184361.352    21856949.102 7 -62010027.338 7
  22711989.933    22711991.695    46588369.523 9 -42830970.110 8
 86  6 13  2  8 35.0800000  0  4G 6G13G 9G11
  22607054.256    22607056.684    47371099.762 9 -42246815.034 8
  20649188.858    20649190.809    -7974499.644 9   2929166.060 9
  20185464.394    20185465.741    21862753.876 7 -62005504.131 7
  22715050.962    22715054.342    46604462.702 9 -42818429.969 8
 86  6 13  2  8 41.0800000  0  4G 6G13G 9G11
  22610987.399    22610989.136    47391769.158 9 -42230709.014 9
  20648621.318    20648622.353    -7977482.502 9   2926841.760 8
  20186575.084    20186575.070    21868584.429 8 -62000960.846 7
  22718115.196    22718117.155    46620559.760 9 -42805886.819 8
 86  6 13  2  8 47.0800000  0  4G 6G13G 9G11
  22614923.200    22614925.160    47412452.716 9 -42214591.968 8
  20648056.910    20648057.598    -7980447.482 9   2924531.388 8
  20187688.605    20187690.121    21874440.813 7 -61996397.440 7
  22721178.734    22721181.566    46636660.641 8 -42793340.684 9
 86  6 13  2  8 53.0800000  0  4G 6G13G 9G11
  22618861.457    22618863.790    47433150.438 9 -42198463.876 8
  20647496.315    20647497.078    -7983394.507 9   2922235.008 8
  20188808.328    20188808.574    21880323.049 8 -61991813.865 7
  22724243.722    22724246.248    46652765.396 9 -42780791.523 9
 86  6 13  2  8 59.0800000  0  4G 6G13G 9G11
  22622803.268    22622804.662    47453862.276 9 -42182324.783 8
  20646938.429    20646940.070    -7986323.562 9   2919952.629 9
  20189933.088    20189934.284    21886230.988 8 -61987210.280 6
  22727309.272    22727312.242    46668874.011 9 -42768239.371 9
 86  6 13  2  9  5.0800000  0  4G 6G13G 9G11
  22626747.517    22626748.569    47474588.233 9 -42166174.696 8
  20646384.892    20646386.047    -7989234.806 9   2917684.132 8
  20191062.046    20191062.502    21892164.757 8 -61982586.558 6
  22730375.025    22730377.651    46684986.439 9 -42755684.234 9
 86  6 13  2  9 11.0800000  0  4G 6G13G 9G11
  22630694.324    22630694.700    47495328.241 9 -42150013.664 9
  20645834.517    20645835.124    -7992128.192 9   2915429.554 8
  20192195.207    20192196.709    21898124.251 8 -61977942.810 7
  22733442.319    22733444.695    46701102.726 8 -42743126.098 9
 86  6 13  2  9 17.0800000  0  4G 6G13G 9G11
  22634642.860    22634644.892    47516082.306 9 -42133841.677 9
  20645286.954    20645287.569    -7995003.672 9   2913188.920 8
  20193334.672    20193334.829    21904109.588 8 -61973278.910 7
  22736510.108    22736512.766    46717222.853 9 -42730564.963 9
 86  6 13  2  9 23.0800000  0  4G 6G13G 9G11
  22638595.544    22638597.497    47536850.442 8 -42117658.716 8
  20644743.636    20644744.136    -7997861.303 9   2910962.200 8
  20194479.678    20194480.181    21910120.698 9 -61968594.933 7
  22739577.528    22739580.943    46733346.763 8 -42718000.873 9
 86  6 13  2  9 29.0800000  0  4G 6G13G 9G11
  22642550.128    22642552.142    47557632.585 9 -42101464.857 8
  20644202.584    20644204.240    -8000701.189 9   2908749.303 9
  20195628.586    20195626.835    21916157.547 8 -61963890.893 7
  22742647.351    22742649.308    46749474.417 9 -42705433.880 9
 86  6 13  2  9 35.0800000  0  4G 6G13G 9G11
  22646507.210    22646509.258    47578428.731 9 -42085260.069 8
  20643665.603    20643667.979    -8003523.325 9   2906550.246 8
  20196781.564    20196782.136    21922220.182 8 -61959166.758 7
  22745717.278    22745719.721    46765605.808 9 -42692863.971 8
 86  6 13  2  9 41.0800000  0  4G 6G13G 9G11
  22650467.510    22650469.619    47599238.872 9 -42069044.385 8
  20643132.685    20643133.140    -8006327.657 9   2904365.060 8
  20197939.251    20197940.904    21928308.621 8 -61954422.524 6
  22748786.968    22748790.547    46781740.932 9 -42680291.147 8
 86  6 13  2  9 47.0800000  0  4G 6G13G 9G11
  22654430.244    22654431.990    47620062.939 9 -42052817.843 9
  20642601.457    20642603.262    -8009114.219 9   2902193.715 8
  20199102.822    20199103.588    21934422.770 8 -61949658.252 8
  22751858.229    22751860.851    46797879.722 9 -42667715.481 8
 86  6 13  2  9 53.0800000  0  4G 6G13G 9G11
  22658395.490    22658397.852    47640900.957 9 -42036580.434 8
  20642075.156    20642075.624    -8011882.998 9   2900036.229 9
  20200272.559    20200272.491    21940562.737 8 -61944873.868 7
  22754930.076    22754932.323    46814022.197 9 -42655136.938 8
 86  6 13  2  9 59.0800000  0  4G 6G13G 9G11
  22662363.228    22662365.695    47661752.910 9 -42020332.180 8
  20641551.638    20641552.805    -8014633.994 9   2897892.585 8
  20201444.462    20201445.271    21946728.537 8 -61940069.354 7
  22758002.336    22758005.168    46830168.356 9 -42642555.507 9
 86  6 13  2 10  5.0800000  0  4G 6G13G 9G11
  22666333.739    22666336.338    47682618.801 9 -42004073.044 9
  20641032.155    20641032.333    -8017367.212 9   2895762.821 8
  20202623.487    20202623.609    21952920.090 8 -61935244.755 7
  22761075.639    22761077.859    46846318.243 9 -42629971.181 8
 86  6 13  2 10 11.0800000  0  4G 6G13G 9G11
  22670307.661    22670309.394    47703498.504 9 -41987803.155 8
  20640514.252    20640516.698    -8020082.683 9   2893646.870 8
  20203807.167    20203807.977    21959137.464 7 -61930400.060 8
  22764149.444    22764152.320    46862471.781 9 -42617384.020 9
 86  6 13  2 10 17.0800000  0  4G 6G13G 9G11
  22674282.751    22674284.407    47724392.061 9 -41971522.471 8
  20640001.389    20640001.842    -8022780.396 9   2891544.758 8
  20204994.848    20204994.277    21965380.510 8 -61925535.355 6
  22767223.885    22767225.665    46878628.975 9 -42604794.010 8
 86  6 13  2 10 23.0800000  0  4G 6G13G 9G11
  22678261.997    22678264.275    47745299.393 9 -41955231.053 8
  20639491.132    20639492.683    -8025460.377 9   2889456.466 9
  20206188.068    20206189.793    21971649.321 8 -61920650.567 8
  22770299.703    22770302.681    46894789.695 9 -42592201.233 9
 86  6 13  2 10 29.0800000  0  4G 6G13G 9G11
  22682242.414    22682244.922    47766220.594 9 -41938928.828 8
  20638984.511    20638985.862    -8028122.620 9   2887381.996 8
  20207385.724    20207385.858    21977943.921 8 -61915745.683 7
  22773375.505    22773377.693    46910954.042 9 -42579605.651 8
 86  6 13  2 10 35.0800000  0  4G 6G13G 9G11
  22686225.637    22686229.182    47787155.622 9 -41922615.833 9
  20638481.671    20638482.693    -8030767.194 9   2885321.288 9
  20208588.467    20208588.928    21984264.235 8 -61910820.762 7
  22776451.975    22776454.456    46927122.027 9 -42567007.229 9
 86  6 13  2 10 41.0800000  0  4G 6G13G 9G11
  22690212.942    22690214.421    47808104.404 9 -41906292.121 8
  20637981.461    20637983.609    -8033394.094 9   2883274.355 7
  20209796.220    20209796.091    21990610.228 8 -61905875.833 6
  22779529.355    22779532.555    46943293.595 9 -42554406.014 8
 86  6 13  2 10 47.0800000  0  4G 6G13G 9G11
  22694202.606    22694203.893    47829067.005 9 -41889957.635 8
  20637484.369    20637485.000    -8036003.304 9   2881241.211 8
  20211008.809    20211008.211    21996982.121 8 -61900910.721 7
  22782608.305    22782609.939    46959468.713 9 -42541802.026 8
 86  6 13  2 10 53.0800000  0  4G 6G13G 9G11
  22698193.809    22698196.920    47850043.305 8 -41873612.472 8
  20636992.529    20636991.991    -8038594.838 9   2879221.835 8
  20212226.685    20212228.812    22003379.721 8 -61895925.570 7
  22785686.225    22785688.550    46975647.301 9 -42529195.331 8
 86  6 13  2 10 59.0800000  0  4G 6G13G 9G11
  22702189.023    22702190.535    47871033.374 9 -41857256.591 9
  20636502.133    20636502.465    -8041168.628 9   2877216.288 9
  20213448.149    20213450.017    22009802.985 9 -61890920.433 8
  22788765.687    22788768.975    46991829.483 9 -42516585.854 9
 86  6 13  2 11  5.0800000  0  4G 6G13G 9G11
  22706186.008    22706187.332    47892037.125 9 -41840890.039 9
  20636014.572    20636017.478    -8043724.643 9   2875224.596 9
  20214675.852    20214676.177    22016251.942 8 -61885895.279 6
  22791846.692    22791847.623    47008015.178 9 -42503973.628 9
 86  6 13  2 11 11.0800000  0  4G 6G13G 9G11
  22710185.428    22710187.060    47913054.576 9 -41824512.817 8
  20635532.242    20635533.629    -8046262.911 9   2873246.722 8
  20215908.425    20215909.824    22022726.704 8 -61880850.020 7
  22794926.106    22794928.383    47024204.378 8 -42491358.666 9
 86  6 13  2 11 17.0800000  0  4G 6G13G 9G11
  22714187.309    22714188.555    47934085.676 8 -41808124.955 9
  20635053.252    20635054.767    -8048783.569 9   2871282.587 8
  20217145.023    20217143.591    22029227.191 8 -61875784.702 6
  22798008.904    22798010.146    47040397.079 9 -42478740.979 9
 86  6 13  2 11 23.0800000  0  4G 6G13G 9G11
  22718192.107    22718193.599    47955130.456 9 -41791726.437 8
  20634575.254    20634578.002    -8051286.555 9   2869332.203 9
  20218387.363    20218387.483    22035753.404 8 -61870699.329 8
  22801089.994    22801092.428    47056593.233 9 -42466120.614 9
 86  6 13  2 11 29.0800000  0  4G 6G13G 9G11
  22722199.055    22722200.644    47976188.886 9 -41775317.279 8
  20634103.828    20634105.180    -8053771.904 9   2867395.572 8
  20219633.964    20219633.459    22042305.325 8 -61865593.943 7
  22804172.528    22804175.760    47072792.860 9 -42453497.525 9
 86  6 13  2 11 35.0800000  0  4G 6G13G 9G11
  22726208.201    22726210.608    47997260.958 9 -41758897.493 9
  20633633.509    20633635.370    -8056239.692 9   2865472.628 9
  20220885.740    20220886.388    22048883.021 8 -61860468.479 8
  22807255.497    22807258.770    47088995.902 9 -42440871.786 9
 86  6 13  2 11 41.0800000  0  4G 6G13G 9G11
  22730221.302    22730222.483    48018346.588 9 -41742467.145 8
  20633167.164    20633169.597    -8058689.884 9   2863563.383 9
  20222142.431    20222142.519    22055486.470 7 -61855322.920 7
  22810339.612    22810343.051    47105202.352 9 -42428243.391 9
 86  6 13  2 11 47.0800000  0  4G 6G13G 9G11
  22734236.860    22734238.622    48039445.763 9 -41726026.245 8
  20632705.135    20632706.313    -8061122.435 9   2861667.900 9
  20223403.440    20223402.000    22062115.574 8 -61850157.385 7
  22813425.704    22813427.124    47121412.236 9 -42415612.315 9
 86  6 13  2 11 53.0800000  0  4G 6G13G 9G11
  22738253.419    22738256.243    48060558.472 9 -41709574.784 8
  20632244.073    20632246.130    -8063537.404 9   2859786.111 8
  20224669.715    20224671.472    22068770.362 8 -61844971.839 7
  22816509.926    22816511.939    47137625.510 9 -42402978.601 9
 86  6 13  2 11 59.0800000  0  4G 6G13G 9G11
  22742273.876    22742275.496    48081684.716 9 -41693112.780 9
  20631788.177    20631790.802    -8065934.759 9   2857918.041 8
  20225941.280    20225942.632    22075450.975 8 -61839766.169 6
  22819595.869    22819598.899    47153842.204 9 -42390342.222 9
 86  6 13  2 12  5.0800000  0  4G 6G13G 9G11
  22746296.757    22746299.123    48102824.453 9 -41676640.264 8
  20631336.079    20631337.143    -8068314.518 9   2856063.691 8
  20227218.271    20227217.885    22082157.306 8 -61834540.457 7
  22822682.597    22822685.225    47170062.312 9 -42377703.184 9
 86  6 13  2 12 11.0800000  0  4G 6G13G 9G11
  22750322.677    22750324.223    48123977.706 9 -41660157.217 8
  20630886.560    20630888.102    -8070676.739 9   2854223.009 8
  20228497.859    20228498.443    22088889.304 9 -61829294.734 8
  22825769.347    22825772.694    47186285.760 9 -42365061.536 9
 86  6 13  2 12 17.0800000  0  4G 6G13G 9G11
  22754350.718    22754351.781    48145144.445 9 -41643663.667 9
  20630440.128    20630441.255    -8073021.392 9   2852396.009 8
  20229784.318    20229785.386    22095647.037 9 -61824028.976 7
  22828857.951    22828860.532    47202512.556 9 -42352417.290 9
 86  6 13  2 12 23.0800000  0  4G 6G13G 9G11
  22758380.551    22758382.860    48166324.639 9 -41627159.629 8
  20629997.617    20629998.737    -8075348.501 9   2850582.678 8
  20231075.699    20231076.282    22102430.440 9 -61818743.193 8
  22831946.295    22831948.308    47218742.649 9 -42339770.468 9
 86  6 13  2 12 29.0800000  0  4G 6G13G 9G11
  22762413.028    22762416.640    48187518.200 9 -41610645.178 9
  20629558.488    20629559.999    -8077658.012 9   2848783.057 8
  20232371.511    20232370.120    22109239.512 8 -61813437.449 7
  22835034.740    22835037.095    47234976.025 9 -42327121.093 9
 86  6 13  2 12 35.0800000  0  4G 6G13G 9G11
  22766449.624    22766452.489    48208725.211 9 -41594120.245 7
  20629121.093    20629123.293    -8079949.951 9   2846997.132 9
  20233671.894    20233672.188    22116074.341 9 -61808111.596 8
  22838124.222    22838127.721    47251212.623 8 -42314469.208 9
 86  6 13  2 12 41.0800000  0  4G 6G13G 9G11
  22770486.954    22770488.634    48229945.557 9 -41577584.918 8
  20628688.670    20628691.376    -8082224.474 9   2845224.777 8
  20234977.207    20234977.099    22122934.778 8 -61802765.808 7
  22841215.872    22841217.632    47267452.482 9 -42301814.778 9
 86  6 13  2 12 47.0800000  0  4G 6G13G 9G11
  22774527.904    22774528.637    48251179.303 9 -41561039.153 8
  20628259.469    20628261.173    -8084481.496 8   2843466.060 9
  20236287.688    20236286.951    22129820.919 9 -61797399.979 7
  22844306.126    22844309.022    47283695.619 9 -42289157.783 9
 86  6 13  2 12 53.0800000  0  4G 6G13G 9G11
  22778571.824    22778572.659    48272426.363 9 -41544482.998 8
  20627832.337    20627834.312    -8086720.975 8   2841721.028 8
  20237603.212    20237603.667    22136732.757 8 -61792014.141 8
  22847398.159    22847399.669    47299942.001 9 -42276498.274 9
 86  6 13  2 12 59.0800000  0  4G 6G13G 9G11
  22782616.803    22782618.093    48293686.779 9 -41527916.451 8
  20627410.235    20627411.735    -8088942.887 9   2839989.666 8
  20238923.758    20238923.391    22143670.261 9 -61786608.280 7
  22850491.173    22850492.400    47316191.612 9 -42263836.251 8
 86  6 13  2 13  5.0800000  0  4G 6G13G 9G11
  22786664.268    22786666.635    48314960.484 8 -41511339.549 8
  20626990.622    20626991.758    -8091147.351 9   2838271.901 8
  20240248.849    20240248.274    22150633.396 9 -61781182.459 8
  22853583.446    22853584.731    47332444.392 9 -42251171.761 8
 86  6 13  2 13 11.0800000  0  4G 6G13G 9G11
  22790715.891    22790717.835    48336247.470 9 -41494752.296 8
  20626574.163    20626576.296    -8093334.341 9   2836567.756 8
  20241578.213    20241578.490    22157622.248 8 -61775736.607 7
  22856675.828    22856679.466    47348700.339 9 -42238504.779 9
 86  6 13  2 13 17.0800000  0  4G 6G13G 9G11
  22794769.397    22794769.644    48357547.724 9 -41478154.708 8
  20626162.155    20626163.293    -8095503.779 8   2834877.288 8
  20242912.977    20242911.861    22164636.773 8 -61770270.760 7
  22859770.668    22859772.562    47364959.494 8 -42225835.317 9
 86  6 13  2 13 23.0800000  0  4G 6G13G 9G11
  22798825.856    22798825.959    48378861.191 9 -41461546.813 8
  20625752.278    20625753.012    -8097655.762 9   2833200.430 9
  20244252.879    20244253.758    22171676.905 8 -61764784.930 8
  22862864.398    22862867.418    47381221.801 9 -42213163.396 8
 86  6 13  2 13 29.0800000  0  4G 6G13G 9G11
  22802883.368    22802885.278    48400187.893 9 -41444928.611 8
  20625345.573    20625348.770    -8099790.332 9   2831537.116 9
  20245597.785    20245596.247    22178742.629 8 -61759279.167 7
  22865959.521    22865962.824    47397487.290 9 -42200488.990 9
 86  6 13  2 13 35.0800000  0  4G 6G13G 9G11
  22806943.401    22806945.696    48421527.795 9 -41428300.122 9
  20624943.423    20624945.105    -8101907.494 9   2829887.390 8
  20246946.647    20246947.046    22185834.082 9 -61753753.370 7
  22869056.005    22869058.388    47413755.908 9 -42187812.149 9
 86  6 13  2 13 41.0800000  0  4G 6G13G 9G11
  22811007.127    22811009.530    48442880.838 9 -41411661.393 8
  20624543.289    20624546.014    -8104007.273 9   2828251.200 9
  20248300.828    20248300.953    22192951.224 8 -61748207.538 7
  22872151.792    22872154.518    47430027.608 9 -42175132.906 8
 86  6 13  2 13 47.0800000  0  4G 6G13G 9G11
  22815074.022    22815075.432    48464247.061 9 -41395012.403 9
  20624147.836    20624150.146    -8106089.629 9   2826628.595 7
  20249660.505    20249659.887    22200093.927 8 -61742641.794 8
  22875248.702    22875251.858    47446302.397 9 -42162451.268 8
 86  6 13  2 13 53.0800000  0  4G 6G13G 9G11
  22819142.304    22819143.565    48485626.442 9 -41378353.157 9
  20623754.192    20623756.397    -8108154.529 9   2825019.585 9
  20251023.326    20251024.141    22207262.418 9 -61737055.958 7
  22878346.706    22878348.852    47462580.321 9 -42149767.173 9
 86  6 13  2 13 59.0800000  0  4G 6G13G 9G11
  22823213.291    22823213.571    48507018.921 9 -41361683.697 8
  20623364.441    20623366.709    -8110202.056 8   2823424.115 8
  20252393.525    20252392.947    22214456.460 9 -61731450.208 8
  22881444.372    22881447.414    47478861.311 9 -42137080.685 9
 86  6 13  2 14  5.0800000  0  4G 6G13G 9G11
  22827285.659    22827287.391    48528424.507 9 -41345004.029 9
  20622977.965    20622980.331    -8112232.227 9   2821842.160 9
  20253767.035    20253767.414    22221676.160 8 -61725824.494 7
  22884543.616    22884546.638    47495145.338 9 -42124391.841 8
 86  6 13  2 14 11.0800000  0  4G 6G13G 9G11
  22831361.749    22831363.957    48549843.170 9 -41328314.175 8
  20622595.328    20622596.634    -8114245.068 9   2820273.721 8
  20255146.179    20255145.937    22228921.421 8 -61720178.814 7
  22887642.771    22887645.625    47511432.393 9 -42111700.639 8
 86  6 13  2 14 17.0800000  0  4G 6G13G 9G11
  22835439.610    22835441.947    48571274.950 9 -41311614.095 8
  20622215.186    20622218.464    -8116240.522 9   2818718.829 8
  20256529.087    20256529.401    22236192.302 9 -61714513.203 7
  22890742.549    22890746.026    47527722.522 9 -42099007.040 9
 86  6 13  2 14 23.0800000  0  4G 6G13G 9G11
  22839520.130    22839523.383    48592719.727 9 -41294903.895 8
  20621839.074    20621840.423    -8118218.625 9   2817177.449 9
  20257918.301    20257919.105    22243488.797 8 -61708827.625 7
  22893843.873    22893846.068    47544015.588 9 -42086311.142 8
 86  6 13  2 14 29.0800000  0  4G 6G13G 9G11
  22843603.748    22843607.116    48614177.550 9 -41278183.523 8
  20621465.226    20621468.013    -8120179.328 9   2815649.625 9
  20259310.940    20259311.457    22250810.908 8 -61703122.097 7
  22896944.598    22896947.115    47560311.684 8 -42073612.896 9
 86  6 13  2 14 35.0800000  0  4G 6G13G 9G11
  22847690.734    22847692.003    48635648.309 9 -41261453.069 9
  20621095.313    20621097.709    -8122122.767 8   2814135.263 8
  20260710.275    20260709.740    22258158.635 8 -61697396.582 8
  22900045.285    22900048.338    47576610.790 9 -42060912.290 9
 86  6 13  2 14 41.0800000  0  4G 6G13G 9G11
  22851777.990    22851779.939    48657132.104 9 -41244712.465 9
  20620729.587    20620730.985    -8124048.915 9   2812634.381 8
  20262112.399    20262113.100    22265531.940 8 -61691651.153 8
  22903148.415    22903150.546    47592912.896 9 -42048209.360 8
 86  6 13  2 14 47.0800000  0  4G 6G13G 9G11
  22855867.984    22855870.914    48678628.828 9 -41227961.771 8
  20620365.910    20620367.905    -8125957.728 9   2811146.976 8
  20263520.600    20263520.402    22272930.919 9 -61685885.717 8
  22906249.704    22906254.166    47609217.919 8 -42035504.154 9
 86  6 13  2 14 53.0800000  0  4G 6G13G 9G11
  22859961.698    22859964.576    48700138.474 8 -41211201.021 8
  20620006.511    20620007.369    -8127849.250 9   2809673.068 8
  20264933.703    20264934.116    22280355.392 7 -61680100.411 7
  22909354.455    22909357.572    47625525.814 9 -42022796.708 8
 86  6 13  2 14 59.0800000  0  4G 6G13G 9G11
  22864057.642    22864060.527    48721661.086 9 -41194430.169 8
  20619650.031    20619652.094    -8129723.359 9   2808212.728 8
  20266351.432    20266350.978    22287805.565 9 -61674295.083 8
  22912457.768    22912461.133    47641836.708 8 -42010086.922 9
 86  6 13  2 15  5.0800000  0  4G 6G13G 9G11
  22868155.739    22868157.227    48743196.599 8 -41177649.267 8
  20619296.980    20619297.862    -8131580.166 8   2806765.871 8
  20267772.780    20267773.837    22295281.277 8 -61668469.857 8
  22915562.749    22915565.161    47658150.481 8 -41997374.897 9
 86  6 13  2 15 11.0800000  0  4G 6G13G 9G11
  22872256.757    22872258.135    48764744.952 9 -41160858.344 9
  20618947.082    20618948.128    -8133419.707 8   2805332.463 8
  20269200.379    20269201.002    22302782.521 9 -61662624.737 7
  22918666.524    22918669.953    47674467.109 9 -41984660.638 8
 86  6 13  2 15 17.0800000  0  4G 6G13G 9G11
  22876359.315    22876361.126    48786306.146 9 -41144057.423 8
  20618599.030    20618601.559    -8135242.008 8   2803912.493 9
  20270632.571    20270633.250    22310309.364 7 -61656759.663 7
  22921771.956    22921774.503    47690786.602 8 -41971944.159 8
 86  6 13  2 15 23.0800000  0  4G 6G13G 9G11
  22880464.997    22880467.673    48807880.199 9 -41127246.482 8
  20618256.259    20618259.122    -8137047.061 9   2802505.958 8
  20272070.244    20272071.379    22317861.741 8 -61650874.690 7
  22924878.768    22924881.389    47707108.987 9 -41959225.424 8
 86  6 13  2 15 29.0800000  0  4G 6G13G 9G11
  22884572.961    22884574.427    48829467.052 8 -41110425.570 8
  20617915.652    20617916.949    -8138834.950 9   2801112.805 9
  20273512.189    20273511.858    22325439.647 8 -61644969.834 7
  22927985.821    22927987.473    47723434.168 8 -41946504.507 8
 86  6 13  2 15 35.0800000  0  4G 6G13G 9G11
  22888682.502    22888684.677    48851066.635 9 -41093594.731 9
  20617579.235    20617581.180    -8140605.615 9   2799733.066 8
  20274959.643    20274959.437    22333043.098 9 -61639045.066 8
  22931092.277    22931095.709    47739762.205 9 -41933781.359 8
 86  6 13  2 15 41.0800000  0  4G 6G13G 9G11
  22892795.526    22892797.608    48872679.045 8 -41076753.903 9
  20617246.217    20617245.954    -8142359.038 9   2798366.766 8
  20276410.224    20276410.621    22340672.190 9 -61633100.327 7
  22934200.211    22934202.622    47756093.066 9 -41921056.023 9
 86  6 13  2 15 47.0800000  0  4G 6G13G 9G11
  22896910.491    22896912.703    48894304.188 9 -41059903.156 8
  20616915.173    20616916.205    -8144095.256 9   2797013.860 9
  20277866.865    20277866.721    22348326.780 9 -61627135.705 8
  22937307.846    22937310.586    47772426.668 8 -41908328.541 9
 86  6 13  2 15 53.0800000  0  4G 6G13G 9G11
  22901027.914    22901030.568    48915942.065 9 -41043042.482 9
  20616587.149    20616590.176    -8145814.329 9   2795674.333 9
  20279328.555    20279328.934    22356006.912 8 -61621151.188 8
  22940416.757    22940419.916    47788763.052 9 -41895598.892 8
 86  6 13  2 15 59.0800000  0  4G 6G13G 9G11
  22905147.439    22905150.121    48937592.627 9 -41026171.926 9
  20616263.906    20616266.071    -8147516.171 8   2794348.219 9
  20280794.931    20280794.646    22363712.547 9 -61615146.795 8
  22943526.971    22943529.464    47805102.208 8 -41882867.090 9
 86  6 13  2 16  5.0800000  0  4G 6G13G 9G11
  22909271.000    22909272.118    48959255.850 9 -41009291.500 9
  20615943.442    20615944.718    -8149200.915 9   2793035.440 8
  20282265.291    20282266.752    22371443.794 8 -61609122.452 8
  22946636.705    22946638.901    47821444.135 8 -41870133.132 9
 86  6 13  2 16 11.0800000  0  4G 6G13G 9G11
  22913395.331    22913396.887    48980931.773 9 -40992401.174 9
  20615626.332    20615627.484    -8150868.460 9   2791736.055 8
  20283742.962    20283743.988    22379200.494 9 -61603078.274 8
  22949746.356    22949749.220    47837788.814 9 -41857397.023 8
 86  6 13  2 16 17.0800000  0  4G 6G13G 9G11
  22917522.932    22917523.954    49002620.309 9 -40975501.023 8
  20615312.536    20615312.278    -8152518.949 8   2790449.962 8
  20285223.474    20285223.898    22386982.655 8 -61597014.246 7
  22952857.753    22952860.203    47854136.234 9 -41844658.773 8
 86  6 13  2 16 23.0800000  0  4G 6G13G 9G11
  22921652.076    22921654.057    49024321.495 9 -40958591.027 9
  20615001.190    20615003.238    -8154152.276 9   2789177.243 9
  20286709.266    20286708.835    22394790.392 8 -61590930.298 7
  22955968.047    22955971.365    47870486.321 9 -41831918.448 9
 86  6 13  2 16 29.0800000  0  4G 6G13G 9G11
  22925784.144    22925785.716    49046035.299 9 -40941671.191 8
  20614693.276    20614694.971    -8155768.537 9   2787917.822 9
  20288199.247    20288199.441    22402623.702 9 -61584826.426 8
  22959080.246    22959083.017    47886839.110 9 -41819176.024 9
 86  6 13  2 16 35.0800000  0  4G 6G13G 9G11
  22929918.584    22929920.654    49067761.633 9 -40924741.582 9
  20614389.366    20614391.323    -8157367.583 9   2786671.806 9
  20289694.579    20289695.866    22410482.497 8 -61578702.688 8
  22962193.143    22962195.098    47903194.578 9 -41806431.510 8
 86  6 13  2 16 41.0800000  0  4G 6G13G 9G11
  22934055.484    22934057.504    49089500.519 9 -40907802.207 8
  20614089.045    20614089.541    -8158949.497 9   2785439.147 8
  20291194.415    20291196.984    22418366.714 8 -61572559.154 8
  22965305.654    22965308.013    47919552.729 9 -41793684.900 8
 86  6 13  2 16 47.0800000  0  4G 6G13G 9G11
  22938194.134    22938195.923    49111251.974 9 -40890853.027 9
  20613789.744    20613792.699    -8160514.276 9   2784219.853 9
  20292699.852    20292701.178    22426276.536 9 -61566395.653 7
  22968418.889    22968421.584    47935913.525 9 -41780936.236 8
 86  6 13  2 16 53.0800000  0  4G 6G13G 9G11
  22942335.813    22942338.779    49133016.001 9 -40873894.044 9
  20613495.962    20613498.448    -8162061.918 9   2783013.894 9
  20294209.730    20294211.494    22434211.764 8 -61560212.363 7
  22971532.505    22971534.997    47952276.962 9 -41768185.503 8
 86  6 13  2 16 59.0800000  0  4G 6G13G 9G11
  22946480.611    22946481.621    49154792.472 9 -40856925.373 9
  20613205.185    20613206.827    -8163592.484 9   2781821.240 9
  20295725.931    20295727.355    22442172.352 8 -61554009.294 8
  22974647.664    22974649.389    47968643.022 9 -41755432.732 9
 86  6 13  2 17  5.0800000  0  4G 6G13G 9G11
  22950626.668    22950628.951    49176581.427 9 -40839946.983 9
  20612918.148    20612918.611    -8165106.000 9   2780641.881 8
  20297243.994    20297247.619    22450158.526 8 -61547786.311 7
  22977761.853    22977764.059    47985011.683 9 -41742677.933 9
 86  6 13  2 17 11.0800000  0  4G 6G13G 9G11
  22954774.429    22954777.574    49198382.880 9 -40822958.850 8
  20612631.926    20612633.248    -8166602.469 9   2779475.811 9
  20298769.120    20298770.598    22458170.122 9 -61541543.497 8
  22980877.530    22980879.919    48001382.939 9 -41729921.124 9
 86  6 13  2 17 17.0800000  0  4G 6G13G 9G11
  22958925.646    22958928.763    49220196.776 9 -40805961.017 8
  20612350.445    20612352.071    -8168081.957 9   2778322.965 8
  20300298.719    20300299.348    22466207.257 8 -61535280.797 8
  22983994.060    22983995.271    48017756.752 9 -41717162.310 9
 86  6 13  2 17 23.0800000  0  4G 6G13G 9G11
  22963078.892    22963081.965    49242023.121 9 -40788953.490 8
  20612072.708    20612074.064    -8169544.370 9   2777183.424 9
  20301832.546    20301834.215    22474269.841 9 -61528998.280 8
  22987109.946    22987112.390    48034133.210 9 -41704401.437 8
 86  6 13  2 17 29.0800000  0  4G 6G13G 9G11
  22967235.478    22967236.829    49263861.843 9 -40771936.300 8
  20611797.159    20611799.051    -8170989.787 8   2776057.132 9
  20303371.327    20303373.136    22482357.861 9 -61522695.921 8
  22990226.594    22990229.096    48050512.246 9 -41691638.549 8
 86  6 13  2 17 35.0800000  0  4G 6G13G 9G11
  22971393.563    22971395.491    49285713.011 9 -40754909.430 9
  20611526.111    20611526.422    -8172418.171 9   2774944.116 7
  20304916.607    20304915.282    22490471.377 9 -61516373.697 8
  22993344.013    22993346.382    48066893.868 9 -41678873.662 9
 86  6 13  2 17 41.0800000  0  4G 6G13G 9G11
  22975553.957    22975555.505    49307576.452 9 -40737872.997 8
  20611256.903    20611258.737    -8173829.522 9   2773844.340 8
  20306465.057    20306466.159    22498610.357 9 -61510031.642 7
  22996461.712    22996464.240    48083277.968 9 -41666106.840 8
 86  6 13  2 17 47.0800000  0  4G 6G13G 9G11
  22979717.111    22979717.614    49329452.282 8 -40720826.905 8
  20610991.888    20610992.279    -8175223.887 9   2772757.835 8
  20308018.662    20308019.432    22506774.753 9 -61503669.774 7
  22999579.959    22999582.527    48099664.550 9 -41653338.067 8
 86  6 13  2 17 53.0800000  0  4G 6G13G 9G11
  22983881.647    22983883.982    49351340.439 9 -40703771.206 8
  20610729.905    20610730.556    -8176601.170 9   2771684.633 8
  20309577.997    20309577.829    22514964.640 8 -61497288.060 7
  23002698.231    23002701.285    48116053.624 9 -41640567.359 8
 86  6 13  2 17 59.0800000  0  4G 6G13G 9G11
  22988049.436    22988051.380    49373240.908 9 -40686705.917 9
  20610470.866    20610471.703    -8177961.458 9   2770624.668 9
  20311139.839    20311141.007    22523179.910 9 -61490886.542 8
  23005818.328    23005820.440    48132445.207 9 -41627794.710 9
 86  6 13  2 18  5.0800000  0  4G 6G13G 9G11
  22992218.961    22992221.387    49395153.644 9 -40669631.065 8
  20610215.224    20610216.037    -8179304.792 9   2769577.916 8
  20312709.872    20312708.735    22531420.580 8 -61484465.244 7
  23008936.870    23008938.850    48148839.246 9 -41615020.133 9
 86  6 13  2 18 11.0800000  0  4G 6G13G 9G11
  22996390.720    22996393.947    49417078.590 8 -40652546.702 8
  20609963.034    20609964.748    -8180631.122 9   2768544.405 7
  20314281.566    20314282.216    22539686.673 8 -61478024.137 7
  23012057.877    23012059.460    48165235.768 9 -41602243.627 8
 86  6 13  2 18 17.0800000  0  4G 6G13G 9G11
  23000565.518    23000567.411    49439015.775 9 -40635452.805 8
  20609713.572    20609714.718    -8181940.567 9   2767524.065 8
  20315860.437    20315860.774    22547978.206 8 -61471563.195 7
  23015178.403    23015180.941    48181634.701 8 -41589465.243 9
 86  6 13  2 18 23.0800000  0  4G 6G13G 9G11
  23004742.582    23004744.643    49460965.141 9 -40618349.408 9
  20609467.159    20609468.621    -8183233.160 9   2766516.863 9
  20317443.005    20317442.943    22556295.057 7 -61465082.543 8
  23018298.761    23018301.674    48198036.032 8 -41576684.987 9
 86  6 13  2 18 29.0800000  0  4G 6G13G 9G11
  23008921.584    23008924.015    49482926.750 9 -40601236.485 8
  20609225.362    20609225.841    -8184508.790 9   2765522.853 8
  20319029.897    20319031.061    22564637.276 8 -61458582.102 7
  23021420.480    23021423.122    48214439.777 9 -41563902.849 9
 86  6 13  2 18 35.0800000  0  4G 6G13G 9G11
  23013103.766    23013106.168    49504900.493 9 -40584114.092 9
  20608984.946    20608986.733    -8185767.519 9   2764542.033 9
  20320621.446    20320622.383    22573004.971 8 -61452061.835 8
  23024542.917    23024545.752    48230845.882 9 -41551118.873 9
 86  6 13  2 18 41.0800000  0  4G 6G13G 9G11
  23017287.102    23017289.116    49526886.385 9 -40566982.244 8
  20608748.804    20608750.756    -8187009.272 8   2763574.433 8
  20322220.641    20322220.165    22581397.960 8 -61445521.848 8
  23027665.768    23027667.870    48247254.422 9 -41538333.014 8
 86  6 13  2 18 47.0800000  0  4G 6G13G 9G11
  23021472.915    23021475.843    49548884.481 9 -40549840.881 9
  20608515.919    20608517.219    -8188234.070 8   2762620.035 8
  20323820.551    20323822.291    22589816.431 8 -61438961.987 7
  23030788.587    23030790.974    48263665.313 9 -41525545.304 8
 86  6 13  2 18 53.0800000  0  4G 6G13G 9G11
  23025661.279    23025664.132    49570894.631 9 -40532690.129 9
  20608286.170    20608286.310    -8189442.089 9   2761678.737 8
  20325427.702    20325427.954    22598260.227 9 -61432382.406 8
  23033912.106    23033913.510    48280078.564 9 -41512755.772 9
 86  6 13  2 18 59.0800000  0  4G 6G13G 9G11
  23029851.148    23029854.299    49592916.819 9 -40515529.985 9
  20608059.097    20608061.140    -8190633.303 9   2760750.513 8
  20327039.717    20327040.155    22606729.358 8 -61425783.094 8
  23037035.446    23037038.421    48296494.102 9 -41499964.434 9
 86  6 13  2 19  5.0800000  0  4G 6G13G 9G11
  23034044.605    23034047.161    49614951.106 9 -40498360.425 9
  20607835.840    20607837.679    -8191807.659 9   2759835.431 8
  20328657.685    20328656.439    22615223.812 8 -61419164.038 8
  23040160.309    23040162.689    48312911.968 9 -41487171.308 8
 86  6 13  2 19 11.0800000  0  4G 6G13G 9G11
  23038240.229    23038242.410    49636997.376 9 -40481181.535 8
  20607615.144    20607617.527    -8192965.079 9   2758933.544 7
  20330277.653    20330276.776    22623743.566 8 -61412525.270 7
  23043283.860    23043286.959    48329332.157 9 -41474376.359 9
 86  6 13  2 19 17.0800000  0  4G 6G13G 9G11
  23042437.682    23042440.795    49659055.706 9 -40463993.230 9
  20607397.979    20607399.654    -8194105.689 9   2758044.760 8
  20331903.525    20331903.850    22632288.777 8 -61405866.676 8
  23046409.331    23046411.318    48345754.653 9 -41461579.613 8
 86  6 13  2 19 23.0800000  0  4G 6G13G 9G11
  23046637.157    23046640.063    49681126.038 9 -40446795.581 9
  20607185.036    20607186.984    -8195229.441 9   2757169.112 8
  20333533.658    20333534.254    22640859.174 9 -61399188.446 8
  23049534.974    23049536.890    48362179.431 9 -41448781.081 8
 86  6 13  2 19 29.0800000  0  4G 6G13G 9G11
  23050839.830    23050842.214    49703208.325 8 -40429588.607 8
  20606974.255    20606975.303    -8196336.481 8   2756306.480 9
  20335171.081    20335170.537    22649454.945 9 -61392490.435 9
  23052661.036    23052663.171    48378606.459 9 -41435980.810 9
 86  6 13  2 19 35.0800000  0  4G 6G13G 9G11
  23055043.285    23055047.136    49725302.612 9 -40412372.297 8
  20606766.794    20606768.917    -8197426.766 9   2755456.914 8
  20336810.170    20336811.523    22658076.131 9 -61385772.633 8
  23055786.568    23055789.713    48395035.765 9 -41423178.753 8
 86  6 13  2 19 41.0800000  0  4G 6G13G 9G11
  23059251.150    23059252.871    49747408.755 8 -40395146.741 9
  20606562.306    20606563.666    -8198500.275 9   2754620.412 8
  20338456.475    20338457.792    22666722.418 9 -61379035.272 8
  23058913.705    23058916.578    48411467.264 9 -41410374.992 8
 86  6 13  2 19 47.0800000  0  4G 6G13G 9G11
  23063459.655    23063462.207    49769526.806 8 -40377911.910 8
  20606361.786    20606362.401    -8199557.029 9   2753796.976 9
  20340105.773    20340107.134    22675394.149 8 -61372278.087 8
  23062041.548    23062043.901    48427900.981 9 -41397569.502 9
 86  6 13  2 19 53.0800000  0  4G 6G13G 9G11
  23067669.820    23067673.224    49791656.804 9 -40360667.764 8
  20606162.712    20606164.239    -8200596.990 8   2752986.616 8
  20341761.976    20341762.219    22684091.190 9 -61365501.170 8
  23065169.296    23065171.310    48444336.896 9 -41384762.301 8
 86  6 13  2 19 59.0800000  0  4G 6G13G 9G11
  23071884.190    23071887.166    49813798.633 9 -40343414.401 8
  20605968.389    20605969.213    -8201620.267 9   2752189.251 8
  20343421.070    20343421.968    22692813.403 7 -61358704.653 7
  23068297.107    23068299.634    48460775.018 9 -41371953.381 8
 86  6 13  2 20  5.0800000  0  3G13G 9G11
  20605776.793    20605778.279    -8202626.768 9   2751404.963 9
  20345085.112    20345088.161    22701560.937 9 -61351888.392 7
  23071426.176    23071427.828    48477215.368 9 -41359142.715 9
 86  6 13  2 20 11.0800000  0  3G13G 9G11
  20605588.469    20605590.565    -8203616.505 5   2750633.742 5
  20346756.107    20346755.607    22710333.773 6 -61345052.409 5
  23074554.889    23074557.582    48493657.869 4 -41346330.383 8
 86  6 13  2 20 17.0800000  0  3G13G 9G11
  20605403.502    20605404.325    -8204589.532 8   2749875.540 6
  20348428.365    20348430.756    22719131.791 9 -61338196.820 7
  23077684.577    23077685.901    48510102.524 9 -41333516.375 8
 86  6 13  2 20 23.0800000  0  4G12G13G 9G11
                  22011613.122   -25958600.457 9
  20605222.107    20605221.726    -8205545.919 9   2749130.313 7
  20350108.181    20350108.138    22727955.165 8 -61331321.463 8
  23080813.710    23080816.032    48526549.319 9 -41320700.687 9
 86  6 13  2 20 29.0800000  0  4G12G13G 9G11
                  22008665.690   -25974124.892 9
  20605043.208    20605043.747    -8206485.603 8   2748398.086 7
  20351791.915    20351792.461    22736803.691 8 -61324426.513 8
  23083943.436    23083946.641    48542998.214 9 -41307883.375 8
 86  6 13  2 20 35.0800000  0  4G12G13G 9G11
                  22005738.131   -25989634.742 9
  20604865.580    20604868.459    -8207408.574 8   2747678.886 9
  20353480.857    20353481.163    22745677.531 8 -61317511.828 9
  23087074.783    23087076.619    48559449.213 9 -41295064.424 8
 86  6 13  2 20 41.0800000  0  4G12G13G 9G11
  22002789.650    22002791.193   -26005129.489 8  33082231.724 9
  20604693.561    20604695.768    -8208314.814 8   2746972.720 9
  20355174.117    20355174.610    22754576.618 8 -61310577.487 7
  23090205.138    23090206.915    48575902.297 9 -41282243.831 8
 86  6 13  2 20 47.0800000  0  4G12G13G 9G11
  21999843.757    21999844.644   -26020609.324 9  33070169.468 9
  20604525.512    20604526.459    -8209204.428 9   2746279.514 7
  20356872.555    20356872.653    22763500.878 7 -61303623.509 8
  23093336.238    23093339.448    48592357.431 9 -41269421.656 9
 86  6 13  2 20 53.0800000  0  4G12G13G 9G11
  21996900.792    21996903.198   -26036074.230 9  33058119.397 8
  20604359.457    20604359.606    -8210077.387 9   2745599.296 8
  20358576.068    20358576.023    22772450.419 9 -61296649.845 8
  23096468.807    23096471.092    48608814.605 9 -41256597.884 9
 86  6 13  2 20 59.0800000  0  4G12G13G 9G11
  21993961.267    21993963.828   -26051524.228 9  33046080.445 9
  20604195.983    20604197.462    -8210933.741 9   2744932.010 7
  20360283.502    20360284.114    22781425.095 8 -61289656.596 8
  23099600.773    23099602.432    48625273.808 9 -41243772.542 9
 86  6 13  2 21  5.0800000  0  4G12G13G 9G11
  21991023.888    21991025.488   -26066959.321 9  33034053.098 9
  20604037.082    20604037.717    -8211773.458 9   2744277.687 8
  20361996.390    20361996.008    22790424.961 9 -61282643.718 8
  23102732.893    23102734.657    48641735.039 9 -41230945.610 9
 86  6 13  2 21 11.0800000  0  4G12G13G 9G11
  21988088.421    21988090.583   -26082379.439 9  33022037.426 8
  20603879.922    20603880.844    -8212596.572 8   2743636.303 7
  20363712.522    20363714.632    22799450.032 9 -61275611.201 7
  23105864.737    23105868.507    48658198.318 9 -41218117.083 9
 86  6 13  2 21 17.0800000  0  4G12G13G 9G11
  21985157.720    21985159.326   -26097784.552 9  33010033.451 9
  20603726.292    20603727.595    -8213403.062 9   2743007.866 8
  20365435.315    20365436.780    22808500.331 8 -61268559.023 9
  23108998.775    23109000.723    48674663.675 9 -41205286.944 8
 86  6 13  2 21 23.0800000  0  4G12G13G 9G11
  21982229.105    21982231.179   -26113174.662 9  32998041.148 9
  20603575.874    20603577.521    -8214192.983 9   2742392.349 9
  20367162.753    20367163.146    22817575.713 8 -61261487.292 9
  23112132.316    23112134.787    48691131.002 9 -41192455.255 8
 86  6 13  2 21 29.0800000  0  4G12G13G 9G11
  21979303.025    21979304.739   -26128549.741 9  32986060.578 8
  20603428.774    20603430.381    -8214966.271 9   2741789.783 8
  20368894.794    20368894.022    22826676.301 8 -61254395.918 8
  23115266.811    23115269.008    48707600.311 9 -41179622.033 9
 86  6 13  2 21 35.0800000  0  4G12G13G 9G11
  21976381.304    21976382.001   -26143909.727 9  32974091.761 9
  20603284.378    20603287.117    -8215723.045 9   2741200.095 8
  20370629.897    20370631.936    22835802.095 9 -61247284.925 8
  23118401.201    23118403.108    48724071.608 9 -41166787.266 8
 86  6 13  2 21 41.0800000  0  4G12G13G 9G11
  21973460.226    21973461.839   -26159254.637 9  32962134.684 9
  20603144.216    20603144.922    -8216463.301 9   2740623.272 8
  20372371.979    20372373.127    22844953.097 8 -61240154.282 8
  23121535.774    23121538.137    48740544.856 9 -41153950.970 9
 86  6 13  2 21 47.0800000  0  4G12G13G 9G11
  21970543.847    21970545.028   -26174584.456 9  32950189.383 9
  20603005.972    20603007.419    -8217187.100 9   2740059.273 8
  20374118.308    20374119.069    22854129.176 9 -61233004.087 8
  23124670.613    23124673.814    48757019.934 9 -41141113.253 9
 86  6 13  2 21 53.0800000  0  4G12G13G 9G11
  21967629.468    21967630.966   -26189899.063 9  32938255.921 9
  20602871.768    20602873.290    -8217894.354 9   2739508.171 8
  20375869.002    20375869.549    22863330.367 8 -61225834.330 8
  23127806.480    23127808.465    48773496.930 9 -41128274.036 8
 86  6 13  2 21 59.0800000  0  4G12G13G 9G11
  21964717.999    21964719.053   -26205198.599 9  32926334.208 8
  20602740.194    20602741.703    -8218585.068 9   2738969.953 7
  20377625.367    20377625.730    22872556.661 7 -61218645.012 8
  23130941.815    23130944.023    48789975.852 9 -41115433.324 9
 86  6 13  2 22  5.0800000  0  4G12G13G 9G11
  21961809.891    21961811.054   -26220482.855 9  32914424.405 9
  20602612.789    20602613.269    -8219259.263 9   2738444.608 8
  20379385.804    20379385.378    22881808.070 8 -61211436.124 8
  23134078.171    23134081.093    48806456.681 9 -41102591.125 9
 86  6 13  2 22 11.0800000  0  4G12G13G 9G11
  21958903.739    21958904.791   -26235751.847 9  32902526.490 9
  20602486.456    20602488.891    -8219916.902 9   2737932.159 7
  20381151.296    20381151.648    22891084.627 9 -61204207.646 8
  23137214.919    23137217.069    48822939.341 9 -41089747.505 9
 86  6 13  2 22 17.0800000  0  4G12G13G 9G11
  21956000.455    21956002.626   -26251005.633 9  32890640.424 8
  20602364.817    20602365.951    -8220558.133 8   2737432.502 9
  20382920.480    20382921.596    22900386.273 7 -61196959.608 8
  23140352.476    23140354.382    48839423.855 9 -41076902.430 9
 86  6 13  2 22 23.0800000  0  4G12G13G 9G11
  21953101.145    21953102.595   -26266244.105 9  32878766.291 9
  20602246.274    20602247.859    -8221182.894 8   2736945.690 8
  20384695.910    20384696.562    22909713.041 9 -61189692.002 8
  23143488.193    23143491.868    48855910.254 9 -41064055.900 9
 86  6 13  2 22 29.0800000  0  4G12G13G 9G11
  21950204.157    21950205.253   -26281467.309 9  32866904.060 8
  20602130.174    20602131.570    -8221791.153 9   2736471.711 8
  20386475.088    20386475.936    22919064.878 8 -61182404.856 8
  23146626.846    23146628.905    48872398.522 9 -41051207.896 9
 86  6 13  2 22 35.0800000  0  4G12G13G 9G11
  21947310.074    21947312.261   -26296675.269 9  32855053.703 9
  20602017.968    20602018.733    -8222383.001 9   2736010.529 8
  20388258.755    20388260.598    22928441.721 7 -61175098.239 8
  23149764.815    23149766.975    48888888.634 8 -41038358.467 9
 86  6 13  2 22 41.0800000  0  4G12G13G 9G11
  21944418.998    21944420.144   -26311867.902 9  32843215.293 9
  20601907.958    20601909.457    -8222958.381 9   2735562.187 8
  20390048.548    20390049.510    22937843.684 7 -61167772.039 7
  23152903.203    23152906.077    48905380.547 9 -41025507.632 8
 86  6 13  2 22 47.0800000  0  4G12G13G 9G11
  21941530.665    21941532.721   -26327045.232 9  32831388.807 8
  20601802.310    20601803.757    -8223517.371 9   2735126.614 9
  20391842.831    20391843.238    22947270.745 9 -61160426.275 8
  23156041.704    23156044.474    48921874.175 9 -41012655.453 8
 86  6 13  2 22 53.0800000  0  4G12G13G 9G11
  21938645.662    21938647.625   -26342207.134 9  32819574.342 8
  20601698.047    20601699.619    -8224059.954 9   2734703.820 8
  20393640.354    20393642.232    22956722.874 9 -61153060.980 9
  23159180.282    23159182.459    48938369.636 9 -40999801.855 8
 86  6 13  2 22 59.0800000  0  4G12G13G 9G11
  21935763.832    21935763.914   -26357353.591 9  32807771.911 9
  20601598.891    20601600.012    -8224586.238 9   2734293.728 8
  20395444.337    20395446.301    22966200.059 9 -61145676.158 8
  23162319.232    23162322.300    48954866.904 9 -40986946.850 9
 86  6 13  2 23  5.0800000  0  4G12G13G 9G11
  21932883.862    21932885.595   -26372484.650 9  32795981.477 9
  20601501.182    20601503.035    -8225096.111 9   2733896.431 8
  20397252.850    20397253.798    22975702.303 9 -61138271.815 8
  23165459.453    23165462.120    48971365.942 9 -40974090.473 8
 86  6 13  2 23 11.0800000  0  4G12G13G 9G11
  21930007.450    21930008.712   -26387600.263 9  32784203.077 9
  20601407.725    20601408.878    -8225589.546 9   2733511.935 8
  20399066.192    20399066.858    22985229.498 9 -61130848.033 8
  23168599.327    23168602.268    48987866.774 9 -40961232.679 9
 86  6 13  2 23 17.0800000  0  4G12G13G 9G11
  21927133.748    21927136.169   -26402700.425 9  32772436.730 8
  20601316.294    20601317.894    -8226066.661 9   2733140.164 8
  20400883.804    20400884.584    22994781.809 8 -61123404.681 8
  23171740.520    23171742.396    49004369.269 9 -40948373.589 9
 86  6 13  2 23 23.0800000  0  4G12G13G 9G11
  21924263.044    21924265.076   -26417785.034 9  32760682.489 9
  20601229.031    20601229.745    -8226527.440 9   2732781.111 9
  20402705.478    20402707.846    23004359.195 8 -61115941.785 9
  23174880.404    23174883.220    49020873.499 8 -40935513.167 9
 86  6 13  2 23 29.0800000  0  4G12G13G 9G11
  21921395.882    21921397.472   -26432854.070 9  32748940.388 9
  20601145.431    20601145.430    -8226971.900 9   2732434.785 8
  20404533.018    20404534.943    23013961.549 9 -61108459.437 8
  23178021.559    23178024.343    49037379.460 9 -40922651.378 9
 86  6 13  2 23 35.0800000  0  4G12G13G 9G11
  21918531.744    21918533.410   -26447907.601 9  32737210.362 9
  20601063.365    20601064.973    -8227400.037 9   2732101.175 9
  20406365.054    20406366.230    23023588.766 8 -61100957.717 8
  23181162.578    23181165.748    49053887.127 9 -40909788.277 9
 86  6 13  2 23 41.0800000  0  4G12G13G 9G11
  21915669.706    21915671.077   -26462945.477 9  32725492.550 8
  20600985.002    20600986.025    -8227811.828 9   2731780.295 7
  20408201.575    20408203.516    23033241.027 8 -61093436.476 7
  23184304.324    23184306.454    49070396.458 9 -40896923.869 9
 86  6 13  2 23 47.0800000  0  4G12G13G 9G11
  21912811.512    21912812.840   -26477967.795 9  32713786.840 9
  20600909.289    20600911.214    -8228207.331 9   2731472.102 8
  20410042.655    20410044.463    23042918.267 8 -61085895.765 8
  23187445.993    23187447.908    49086907.376 9 -40884058.227 9
 86  6 13  2 23 53.0800000  0  4G12G13G 9G11
  21909955.626    21909957.597   -26492974.480 9  32702093.323 9
  20600837.119    20600838.008    -8228586.546 9   2731176.621 8
  20411890.576    20411891.350    23052620.504 8 -61078335.596 8
  23190588.328    23190591.395    49103419.957 8 -40871191.286 9
 86  6 13  2 23 59.0800000  0  4G12G13G 9G11
  21907103.040    21907104.573   -26507965.556 9  32690411.969 9
  20600767.988    20600770.576    -8228949.421 9   2730893.862 8
  20413741.498    20413742.716    23062347.667 8 -61070755.987 8
  23193730.772    23193734.451    49119934.169 9 -40858323.072 9
 86  6 13  2 24  5.0800000  0  4G12G13G 9G11
  21904253.589    21904254.607   -26522940.956 9  32678742.827 9
  20600702.360    20600703.195    -8229295.995 9   2730623.809 8
  20415596.533    20415597.496    23072099.769 8 -61063156.951 8
  23196873.577    23196876.455    49136450.085 9 -40845453.534 9
 86  6 13  2 24 11.0800000  0  4G12G13G 9G11
  21901406.179    21901407.552   -26537900.660 9  32667085.921 9
  20600639.806    20600640.812    -8229626.380 9   2730366.361 8
  20417456.791    20417458.985    23081876.789 8 -61055538.501 8
  23200017.097    23200019.640    49152967.588 9 -40832582.766 9
 86  6 13  2 24 17.0800000  0  4G12G13G 9G11
  21898563.038    21898564.852   -26552844.678 9  32655441.232 9
  20600579.913    20600580.935    -8229940.507 9   2730121.593 7
  20419322.102    20419324.400    23091678.841 9 -61047900.536 8
  23203160.786    23203162.683    49169486.630 9 -40819710.789 8
 86  6 13  2 24 23.0800000  0  4G12G13G 9G11
  21895722.122    21895724.035   -26567772.980 9  32643808.795 9
  20600522.608    20600524.294    -8230238.359 9   2729889.505 8
  20421192.487    20421193.852    23101505.714 8 -61040243.232 9
  23206304.211    23206306.976    49186007.282 8 -40806837.557 9
 86  6 13  2 24 29.0800000  0  4G12G13G 9G11
  21892883.910    21892885.799   -26582685.575 9  32632188.593 9
  20600470.134    20600470.174    -8230519.888 9   2729670.131 8
  20423066.869    20423068.533    23111357.586 9 -61032566.453 9
  23209448.683    23209450.820    49202529.504 9 -40793963.111 9
 86  6 13  2 24 35.0800000  0  4G12G13G 9G11
  21890049.993    21890050.914   -26597582.407 9  32620580.670 8
  20600418.517    20600420.576    -8230785.278 9   2729463.336 8
  20424946.698    20424945.804    23121234.357 8 -61024870.281 8
  23212592.680    23212595.142    49219053.303 9 -40781087.430 9
 86  6 13  2 24 41.0800000  0  4G12G13G 9G11
  21887217.676    21887218.987   -26612463.405 9  32608985.091 9
  20600371.995    20600373.519    -8231034.470 9   2729269.162 8
  20426830.156    20426831.210    23131136.079 9 -61017154.652 8
  23215737.574    23215739.767    49235578.654 9 -40768210.545 9
 86  6 13  2 24 47.0800000  0  4G12G13G 9G11
  21884389.677    21884389.904   -26627328.537 9  32597401.870 8
  20600327.946    20600328.438    -8231267.504 9   2729087.579 8
  20428719.661    20428721.281    23141062.635 8 -61009419.674 9
  23218881.561    23218884.846    49252105.569 9 -40755332.437 9
 86  6 13  2 24 53.0800000  0  4G12G13G 9G11
  21881563.248    21881564.623   -26642177.775 9  32585831.040 9
  20600286.448    20600288.552    -8231484.288 9   2728918.655 8
  20430613.079    20430614.207    23151014.088 9 -61001665.300 8
  23222028.670    23222031.041    49268634.006 9 -40742453.144 9
 86  6 13  2 24 59.0800000  0  4G12G13G 9G11
  21878740.698    21878741.020   -26657011.109 9  32574272.609 9
  20600247.493    20600248.179    -8231684.921 9   2728762.319 9
  20432512.054    20432512.561    23160990.402 8 -60993891.557 9
  23225172.530    23225175.590    49285163.891 9 -40729572.722 9
 86  6 13  2 25  5.0800000  0  4G12G13G 9G11
  21875920.784    21875922.697   -26671828.487 9  32562726.601 9
  20600212.670    20600213.338    -8231869.407 9   2728618.568 9
  20434413.970    20434416.500    23170991.524 8 -60986098.480 8
  23228319.237    23228321.844    49301695.245 9 -40716691.155 9
 86  6 13  2 25 11.0800000  0  4G12G13G 9G11
  21873104.312    21873105.487   -26686629.945 9  32551193.004 9
  20600181.012    20600182.050    -8232037.717 9   2728487.417 8
  20436322.877    20436324.585    23181017.591 8 -60978285.956 9
  23231464.646    23231467.476    49318228.137 9 -40703808.393 9
 86  6 13  2 25 17.0800000  0  4G12G13G 9G11
  21870290.724    21870292.664   -26701415.441 9  32539671.833 8
  20600151.409    20600153.949    -8232189.931 9   2728368.812 9
  20438235.504    20438237.995    23191068.415 7 -60970454.139 8
  23234611.485    23234614.083    49334762.547 9 -40690924.437 9
 86  6 13  2 25 23.0800000  0  4G12G13G 9G11
  21867480.031    21867480.655   -26716184.958 9  32528163.124 9
  20600125.779    20600126.767    -8232326.115 9   2728262.703 8
  20440152.959    20440153.954    23201144.206 9 -60962602.878 8
  23237758.276    23237761.046    49351298.390 9 -40678039.380 8
 86  6 13  2 25 29.0800000  0  4G12G13G 9G11
  21864672.392    21864673.698   -26730938.479 9  32516666.886 9
  20600102.964    20600104.671    -8232446.202 9   2728169.126 8
  20442075.228    20442076.838    23211244.702 8 -60954732.373 9
  23240904.811    23240908.205    49367835.654 9 -40665153.204 9
 86  6 13  2 25 35.0800000  0  4G12G13G 9G11
  21861868.080    21861870.131   -26745675.979 9  32505183.116 9
  20600083.716    20600083.631    -8232550.106 8   2728088.164 7
  20444001.641    20444003.420    23221370.071 7 -60946842.475 8
  23244053.082    23244054.649    49384374.438 9 -40652265.847 9
 86  6 13  2 25 41.0800000  0  4G12G13G 9G11
  21859066.457    21859068.399   -26760397.407 9  32493711.869 8
  20600066.589    20600067.507    -8232637.906 9   2728019.751 9
  20445933.096    20445934.745    23231520.187 9 -60938933.297 8
  23247200.485    23247202.896    49400914.594 8 -40639377.425 9
 86  6 13  2 25 47.0800000  0  4G12G13G 9G11
  21856268.272    21856269.244   -26775102.767 9  32482253.154 9
  20600052.405    20600054.334    -8232709.683 9   2727963.824 8
  20447869.558    20447871.695    23241695.074 7 -60931004.830 8
  23250347.857    23250350.359    49417456.126 9 -40626487.929 9
 86  6 13  2 25 53.0800000  0  4G12G13G 9G11
  21853473.362    21853474.504   -26789792.025 9  32470806.987 9
  20600042.138    20600043.407    -8232765.433 9   2727920.379 8
  20449810.394    20449811.348    23251894.712 8 -60923057.046 8
  23253495.938    23253498.518    49433999.067 9 -40613597.326 9
 86  6 13  2 25 59.0800000  0  4G12G13G 9G11
  21850680.848    21850682.559   -26804465.059 9  32459373.451 9
  20600035.086    20600035.904    -8232805.092 9   2727889.476 8
  20451756.614    20451757.841    23262119.202 7 -60915089.928 7
  23256643.568    23256646.756    49450543.478 8 -40600705.576 9
 86  6 13  2 26  5.0800000  0  4G12G13G 9G11
  21847892.027    21847894.082   -26819122.056 9  32447952.413 9
  20600029.420    20600031.336    -8232828.731 9   2727871.051 8
  20453706.960    20453708.285    23272368.444 7 -60907103.513 7
  23259792.667    23259795.786    49467089.271 9 -40587812.771 8
 86  6 13  2 26 11.0800000  0  4G12G13G 9G11
  21845105.553    21845108.114   -26833762.935 9  32436543.946 9
  20600029.099    20600030.113    -8232836.391 9   2727865.090 9
  20455661.849    20455663.092    23282642.425 8 -60899097.808 7
  23262942.092    23262944.328    49483636.353 9 -40574918.941 9
 86  6 13  2 26 17.0800000  0  4G12G13G 9G11
  21842322.667    21842323.856   -26848387.643 9  32425148.073 9
  20600030.273    20600031.575    -8232828.032 9   2727871.609 8
  20457621.355    20457622.968    23292941.217 9 -60891072.781 8
  23266090.268    23266092.258    49500184.811 9 -40562024.043 9
 86  6 13  2 26 23.0800000  0  4G12G13G 9G11
  21839542.362    21839544.796   -26862996.037 9  32413764.911 8
  20600034.450    20600035.977    -8232803.682 8   2727890.588 9
  20459586.519    20459587.041    23303264.730 8 -60883028.495 8
  23269239.883    23269242.814    49516734.580 9 -40549128.125 8
 86  6 13  2 26 29.0800000  0  4G12G13G 9G11
  21836766.185    21836768.051   -26877588.299 9  32402394.314 9
  20600042.182    20600044.620    -8232763.394 9   2727921.980 8
  20461553.546    20461555.896    23313613.093 8 -60874964.834 8
  23272389.297    23272391.862    49533285.625 9 -40536231.213 9
 86  6 13  2 26 35.0800000  0  4G12G13G 9G11
  21833992.777    21833994.534   -26892164.324 9  32391036.380 9
  20600053.338    20600054.298    -8232707.136 9   2727965.822 8
  20463528.556    20463530.824    23323986.010 8 -60866882.041 8
  23275539.686    23275542.322    49549837.903 9 -40523333.343 9
 86  6 13  2 26 41.0800000  0  4G12G13G 9G11
  21831221.087    21831223.661   -26906724.053 9  32379691.138 9
  20600067.121    20600068.098    -8232634.902 9   2728022.099 8
  20465507.717    20465508.999    23334383.707 8 -60858779.943 8
  23278690.113    23278692.396    49566391.512 9 -40510434.434 9
 86  6 13  2 26 47.0800000  0  4G12G13G 9G11
  21828453.358    21828456.521   -26921267.520 9  32368358.572 9
  20600084.085    20600084.748    -8232546.814 9   2728090.743 8
  20467492.028    20467492.975    23344806.046 8 -60850658.648 8
  23281839.947    23281842.331    49582946.385 8 -40497534.547 8
 86  6 13  2 26 53.0800000  0  4G12G13G 9G11
  21825690.002    21825691.539   -26935794.646 9  32357038.730 9
  20600103.826    20600105.015    -8232442.797 8   2728171.797 8
  20469479.231    20469479.894    23355253.029 8 -60842518.146 9
  23284989.992    23284992.127    49599502.554 9 -40484633.628 9
 86  6 13  2 26 59.0800000  0  4G12G13G 9G11
  21822928.407    21822930.380   -26950305.484 9  32345731.590 9
  20600126.915    20600126.622    -8232322.882 9   2728265.234 8
  20471472.097    20471472.269    23365724.605 8 -60834358.474 9
  23288140.953    23288143.994    49616059.904 9 -40471731.820 9
 86  6 13  2 27  5.0800000  0  4G12G13G 9G11
  21820170.415    21820171.671   -26964799.921 9  32334437.230 8
  20600152.506    20600153.719    -8232187.043 9   2728371.096 7
  20473468.716    20473470.938    23376220.839 8 -60826179.606 8
  23291291.569    23291294.468    49632618.457 9 -40458829.052 9
 86  6 13  2 27 11.0800000  0  4G12G13G 9G11
  21817414.878    21817416.717   -26979277.902 9  32323155.688 9
  20600180.827    20600181.624    -8232035.278 9   2728489.354 8
  20475471.891    20475473.412    23386741.866 8 -60817981.401 8
  23294442.205    23294445.313    49649178.266 9 -40445925.310 9
 86  6 13  2 27 17.0800000  0  4G12G13G 9G11
  21814663.185    21814665.783   -26993739.524 9  32311886.890 9
  20600213.056    20600214.996    -8231867.587 9   2728620.022 8
  20477478.580    20477480.392    23397287.541 9 -60809763.995 8
  23297594.940    23297596.818    49665739.252 8 -40433020.651 9
 86  6 13  2 27 23.0800000  0  4G12G13G 9G11
  21811914.841    21811915.491   -27008184.665 9  32300630.945 9
  20600247.535    20600248.253    -8231683.968 9   2728763.115 9
  20479489.022    20479491.290    23407857.760 9 -60801527.464 9
  23300745.804    23300748.056    49682301.422 9 -40420115.069 9
 86  6 13  2 27 29.0800000  0  4G12G13G 9G11
  21809168.567    21809170.544   -27022613.317 9  32289387.840 9
  20600285.374    20600286.990    -8231484.448 9   2728918.589 9
  20481505.387    20481507.734    23418452.687 8 -60793271.685 8
  23303898.158    23303901.287    49698864.800 9 -40407208.553 9
 86  6 13  2 27 35.0800000  0  4G12G13G 9G11
  21806426.862    21806426.809   -27037025.559 9  32278157.532 9
  20600327.449    20600328.536    -8231269.127 9   2729086.362 8
  20483526.016    20483528.177    23429072.203 8 -60784996.739 8
  23307050.568    23307053.052    49715429.375 9 -40394301.098 8
 86  6 13  2 27 41.0800000  0  4G12G13G 9G11
  21803686.330    21803688.115   -27051421.209 9  32266940.141 9
  20600370.874    20600371.474    -8231038.029 9   2729266.439 8
  20485552.428    20485553.393    23439716.314 9 -60776702.628 8
  23310202.855    23310205.437    49731995.165 8 -40381392.698 8
 86  6 13  2 27 47.0800000  0  4G12G13G 9G11
  21800950.372    21800951.961   -27065800.312 9  32255735.648 8
  20600417.762    20600417.926    -8230791.168 9   2729458.801 8
  20487582.383    20487583.333    23450385.097 8 -60768389.298 8
  23313355.265    23313357.039    49748562.039 9 -40368483.444 9
 86  6 13  2 27 53.0800000  0  4G12G13G 9G11
  21798216.877    21798218.525   -27080162.834 9  32244544.076 9
  20600468.486    20600468.199    -8230528.516 9   2729663.476 8
  20489617.317    20489617.415    23461078.317 9 -60760056.923 7
  23316507.830    23316510.041    49765130.001 9 -40355573.360 9
 86  6 13  2 27 59.0800000  0  4G12G13G 9G11
  21795487.497    21795488.576   -27094508.813 9  32233365.397 8
  20600520.572    20600522.793    -8230250.104 8   2729880.417 8
  20491656.465    20491657.557    23471796.109 8 -60751705.397 8
  23319660.545    23319663.703    49781699.081 9 -40342662.398 9
 86  6 13  2 28  5.0800000  0  4G12G13G 9G11
  21792760.988    21792763.195   -27108838.153 9  32222199.680 9
  20600576.606    20600576.525    -8229955.903 9   2730109.666 7
  20493701.221    20493702.484    23482538.494 8 -60743334.703 9
  23322813.908    23322816.370    49798269.236 9 -40329750.604 8
 86  6 13  2 28 11.0800000  0  4G12G13G 9G11
  21790036.760    21790038.707   -27123150.906 9  32211046.880 9
  20600636.407    20600636.683    -8229645.939 9   2730351.198 8
  20495750.231    20495750.135    23493305.441 9 -60734944.887 8
  23325968.283    23325969.960    49814840.435 9 -40316837.982 9
 86  6 13  2 28 17.0800000  0  4G12G13G 9G11
  21787315.771    21787317.970   -27137447.002 9  32199907.078 9
  20600697.044    20600698.842    -8229320.231 9   2730604.995 9
  20497803.751    20497804.433    23504096.918 8 -60726535.951 8
  23329121.039    23329123.776    49831412.765 9 -40303924.479 8
 86  6 13  2 28 23.0800000  0  4G12G13G 9G11
  21784599.095    21784601.044   -27151726.434 9  32188780.252 8
  20600762.935    20600763.497    -8228978.793 9   2730871.051 8
  20499861.408    20499862.606    23514912.906 8 -60718107.905 7
  23332275.365    23332278.022    49847986.205 9 -40291010.122 9
 86  6 13  2 28 29.0800000  0  4G12G13G 9G11
  21781885.165    21781886.905   -27165989.145 9  32177666.455 9
  20600829.752    20600831.211    -8228621.604 9   2731149.378 9
  20501924.228    20501924.859    23525753.372 9 -60709660.790 8
  23335429.437    23335432.102    49864560.752 9 -40278094.894 8
 86  6 13  2 28 35.0800000  0  4G12G13G 9G11
  21779174.028    21779175.844   -27180235.173 9  32166565.651 9
  20600902.351    20600902.481    -8228248.712 9   2731439.955 8
  20503992.302    20503992.894    23536618.389 8 -60701194.543 8
  23338583.316    23338585.479    49881136.277 9 -40265178.910 9
 86  6 13  2 28 41.0800000  0  4G12G13G 9G11
  21776465.826    21776468.353   -27194464.417 9  32155477.923 9
  20600975.838    20600976.423    -8227860.112 9   2731742.763 9
  20506064.326    20506064.350    23547507.857 8 -60692709.259 8
  23341738.016    23341739.841    49897712.823 9 -40252262.136 9
 86  6 13  2 28 47.0800000  0  4G12G13G 9G11
  21773761.704    21773764.349   -27208676.944 9  32144403.245 9
  20601053.072    20601052.220    -8227455.850 9   2732057.772 8
  20508140.621    20508142.253    23558421.782 9 -60684204.895 8
  23344892.563    23344894.961    49914290.348 9 -40239344.581 9
 86  6 13  2 28 53.0800000  0  4G12G13G 9G11
  21771060.732    21771062.005   -27222872.631 9  32133341.678 8
  20601131.957    20601132.731    -8227035.911 8   2732384.990 8
  20510222.378    20510223.481    23569360.182 8 -60675681.472 9
  23348047.254    23348049.627    49930868.922 9 -40226426.228 9
 86  6 13  2 28 59.0800000  0  4G12G13G 9G11
  21768361.846    21768364.146   -27237051.534 9  32122293.178 9
  20601214.811    20601215.972    -8226600.305 9   2732724.437 9
  20512308.684    20512310.244    23580323.014 9 -60667139.013 8
  23351202.669    23351204.672    49947448.447 9 -40213507.117 9
 86  6 13  2 29  5.0800000  0  4G12G13G 9G11
  21765667.632    21765669.239   -27251213.562 9  32111257.833 9
  20601299.911    20601301.874    -8226149.063 9   2733076.058 7
  20514399.284    20514401.427    23591310.327 9 -60658577.469 7
  23354357.283    23354359.824    49964028.961 9 -40200587.250 8
 86  6 13  2 29 11.0800000  0  4G12G13G 9G11
  21762975.679    21762977.034   -27265358.638 9  32100235.700 8
  20601390.106    20601390.276    -8225682.115 9   2733439.907 7
  20516495.207    20516494.227    23602322.066 9 -60649996.904 8
  23357512.975    23357515.084    49980610.458 9 -40187666.611 9
 86  6 13  2 29 17.0800000  0  4G12G13G 9G11
  21760287.226    21760289.445   -27279486.871 9  32089226.692 9
  20601482.474    20601482.245    -8225199.614 8   2733815.892 9
  20518595.104    20518596.079    23613358.211 8 -60641397.322 8
  23360668.362    23360670.800    49997192.893 9 -40174745.244 9
 86  6 13  2 29 23.0800000  0  4G12G13G 9G11
  21757601.804    21757603.253   -27293598.146 9  32078230.894 9
  20601576.639    20601577.196    -8224701.484 9   2734204.036 8
  20520699.414    20520700.641    23624418.722 9 -60632778.742 8
  23363823.949    23363827.321    50013776.247 9 -40161823.151 8
 86  6 13  2 29 29.0800000  0  4G12G13G 9G11
  21754919.352    21754921.964   -27307692.509 9  32067248.274 8
  20601674.039    20601674.896    -8224187.704 9   2734604.396 9
  20522809.765    20522811.115    23635503.686 9 -60624141.109 8
  23366980.023    23366983.031    50030360.543 9 -40148900.336 8
 86  6 13  2 29 35.0800000  0  4G12G13G 9G11
  21752240.179    21752242.834   -27321770.022 9  32056278.783 8
  20601775.028    20601775.500    -8223658.368 9   2735016.856 7
  20524923.459    20524924.758    23646613.026 9 -60615484.477 8
  23370136.058    23370139.143    50046945.742 9 -40135976.814 7
 86  6 13  2 29 41.0800000  0  4G12G13G 9G11
  21749565.224    21749566.631   -27335830.657 9  32045322.450 9
  20601878.568    20601879.768    -8223113.474 8   2735441.450 7
  20527042.167    20527042.685    23657746.821 8 -60606808.801 8
  23373292.150    23373294.009    50063531.835 9 -40123052.594 9
 86  6 13  2 29 47.0800000  0  4G12G13G 9G11
  21746892.493    21746894.467   -27349874.270 9  32034379.380 9
  20601986.071    20601984.784    -8222553.052 9   2735878.150 8
  20529165.874    20529166.802    23668904.918 8 -60598114.183 8
  23376449.159    23376450.498    50080118.792 9 -40110127.688 9
 86  6 13  2 29 53.0800000  0  4G12G13G 9G11
  21744223.336    21744225.402   -27363900.898 9  32023449.539 9
  20602095.440    20602094.767    -8221977.082 9   2736326.960 8
  20531293.220    20531294.575    23680087.310 9 -60589400.625 8
  23379605.165    23379607.788    50096706.616 9 -40097202.113 9
 86  6 13  2 29 59.0800000  0  4G12G13G 9G11
  21741557.838    21741559.370   -27377910.448 9  32012533.007 9
  20602207.708    20602208.473    -8221385.587 9   2736787.864 7
  20533425.463    20533427.149    23691294.096 9 -60580668.075 8
  23382762.252    23382763.917    50113295.325 9 -40084275.865 9
 86  6 13  2 30  5.0800000  0  4G12G13G 9G11
  21738894.840    21738896.888   -27391902.902 9  32001629.802 9
  20602322.467    20602324.037    -8220778.495 9   2737260.926 7
  20535561.796    20535564.866    23702525.262 9 -60571916.527 8
  23385918.400    23385920.454    50129884.894 9 -40071348.934 8
 86  6 13  2 30 11.0800000  0  4G12G13G 9G11
  21736235.387    21736237.390   -27405878.157 9  31990739.989 9
  20602441.509    20602443.095    -8220155.908 9   2737746.061 8
  20537704.652    20537705.607    23713780.755 9 -60563146.018 9
  23389076.192    23389078.585    50146475.336 9 -40058421.320 9
 86  6 13  2 30 17.0800000  0  4G12G13G 9G11
  21733579.306    21733580.987   -27419836.327 9  31979863.508 9
  20602562.403    20602563.709    -8219517.896 9   2738243.213 8
  20539850.747    20539852.154    23725060.580 8 -60554356.542 8
  23392233.085    23392235.431    50163066.566 9 -40045493.097 9
 86  6 13  2 30 23.0800000  0  4G12G13G 9G11
  21730926.073    21730928.773   -27433777.259 9  31969000.437 9
  20602686.775    20602688.810    -8218864.357 9   2738752.467 8
  20542002.477    20542003.928    23736364.743 8 -60545548.112 8
  23395390.674    23395392.562    50179658.655 9 -40032564.197 9
 86  6 13  2 30 29.0800000  0  4G12G13G 9G11
  21728276.602    21728278.961   -27447701.049 9  31958150.735 9
  20602815.007    20602815.480    -8218195.428 9   2739273.715 7
  20544157.411    20544159.194    23747693.125 9 -60536720.797 8
  23398548.103    23398550.436    50196251.508 9 -40019634.718 9
 86  6 13  2 30 35.0800000  0  4G12G13G 9G11
  21725630.295    21725632.970   -27461607.702 9  31947314.381 9
  20602945.175    20602944.762    -8217511.092 9   2739806.965 8
  20546318.415    20546319.876    23759045.753 9 -60527874.600 8
  23401705.227    23401708.254    50212845.116 9 -40006704.629 8
 86  6 13  2 30 41.0800000  0  4G12G13G 9G11
  21722987.438    21722989.040   -27475497.178 9  31936491.416 9
  20603077.128    20603078.566    -8216811.270 9   2740352.291 8
  20548483.333    20548484.344    23770422.662 9 -60519009.482 8
  23404862.589    23404866.703    50229439.534 9 -39993773.919 9
 86  6 13  2 30 47.0800000  0  4G12G13G 9G11
  21720347.414    21720350.221   -27489369.467 9  31925681.847 9
  20603213.574    20603214.251    -8216096.070 9   2740909.583 7
  20550652.639    20550654.757    23781823.796 9 -60510125.484 7
  23408020.969    23408023.522    50246034.754 9 -39980842.586 9
 86  6 13  2 30 53.0800000  0  4G12G13G 9G11
  21717711.171    21717713.241   -27503224.505 9  31914885.713 8
  20603352.991    20603353.236    -8215365.383 9   2741478.949 8
  20552827.062    20552828.271    23793249.214 9 -60501222.567 8
  23411180.509    23411182.190    50262630.768 9 -39967910.642 8
 86  6 13  2 30 59.0800000  0  4G12G13G 9G11
  21715077.993    21715079.386   -27517062.233 9  31904103.065 9
  20603494.630    20603495.333    -8214619.227 8   2742060.382 8
  20555006.287    20555007.575    23804698.750 8 -60492300.854 9
  23414338.021    23414340.251    50279227.520 9 -39954978.112 8
 86  6 13  2 31  5.0800000  0  4G12G13G 9G11
  21712448.068    21712450.706   -27530882.704 9  31893333.874 9
  20603640.137    20603641.063    -8213857.716 9   2742653.755 8
  20557188.729    20557190.623    23816172.570 9 -60483360.212 8
  23417495.926    23417499.760    50295824.996 9 -39942045.010 9
 86  6 13  2 31 11.0800000  0  4G12G13G 9G11
  21709820.792    21709822.777   -27544685.797 9  31882578.221 9
  20603787.911    20603788.425    -8213080.793 9   2743259.162 8
  20559377.717    20559379.907    23827670.525 9 -60474400.780 8
  23420654.422    23420657.402    50312423.178 9 -39929111.380 9
 86  6 13  2 31 17.0800000  0  4G12G13G 9G11
  21707197.355    21707199.714   -27558471.548 9  31871836.072 9
  20603938.203    20603938.671    -8212288.548 9   2743876.497 8
  20561571.178    20561570.862    23839192.728 8 -60465422.436 8
  23423814.199    23423815.785    50329022.056 9 -39916177.189 9
 86  6 13  2 31 23.0800000  0  4G12G13G 9G11
  21704577.743    21704580.331   -27572239.928 9  31861107.464 9
  20604092.222    20604092.823    -8211480.948 9   2744505.798 9
  20563767.059    20563768.874    23850739.066 9 -60456425.289 9
  23426971.645    23426974.682    50345621.637 9 -39903242.449 9
 86  6 13  2 31 29.0800000  0  4G12G13G 9G11
  21701961.084    21701962.289   -27585990.935 9  31850392.404 8
  20604249.033    20604249.376    -8210657.969 9   2745147.084 9
  20565969.130    20565969.151    23862309.596 8 -60447409.290 8
  23430130.179    23430133.139    50362221.920 9 -39890307.175 9
 86  6 13  2 31 35.0800000  0  4G12G13G 9G11
  21699347.198    21699350.097   -27599724.571 9  31839690.867 9
  20604408.283    20604409.048    -8209819.657 8   2745800.310 8
  20568175.919    20568176.945    23873904.282 8 -60438374.477 8
  23433289.593    23433292.778    50378822.850 9 -39877371.396 8
 86  6 13  2 31 41.0800000  0  4G12G13G 9G11
  21696737.608    21696739.380   -27613440.770 9  31829002.926 9
  20604570.577    20604572.176    -8208966.058 9   2746465.458 8
  20570385.945    20570387.000    23885523.111 8 -60429320.860 8
  23436449.368    23436451.667    50395424.409 9 -39864435.118 9
 86  6 13  2 31 47.0800000  0  4G12G13G 9G11
  21694131.189    21694132.671   -27627139.548 9  31818328.547 9
  20604736.392    20604736.664    -8208097.175 9   2747142.512 8
  20572601.176    20572603.020    23897165.962 8 -60420248.511 7
  23439608.456    23439611.722    50412026.575 9 -39851498.368 8
 86  6 13  2 31 53.0800000  0  4G12G13G 9G11
  21691527.409    21691528.745   -27640820.772 9  31807667.865 9
  20604903.970    20604905.671    -8207212.992 9   2747831.484 8
  20574822.482    20574822.239    23908832.993 9 -60411157.320 7
  23442768.459    23442770.355    50428629.345 9 -39838561.146 9
 86  6 13  2 31 59.0800000  0  4G12G13G 9G11
  21688927.731    21688929.166   -27654484.387 9  31797020.882 9
  20605075.566    20605076.291    -8206313.520 9   2748532.373 7
  20577047.961    20577048.354    23920524.171 9 -60402047.315 8
  23445927.386    23445929.939    50445232.818 9 -39825623.386 8
 86  6 13  2 32  5.0800000  0  4G12G13G 9G11
  21686330.539    21686331.242   -27668130.449 9  31786387.599 8
  20605248.988    20605250.855    -8205398.809 9   2749245.137 8
  20579276.104    20579278.013    23932239.463 8 -60392918.520 8
  23449086.817    23449090.117    50461836.860 9 -39812685.170 9
 86  6 13  2 32 11.0800000  0  4G12G13G 9G11
  21683737.106    21683738.858   -27681758.997 9  31775767.949 9
  20605426.067    20605427.965    -8204468.904 9   2749969.747 8
  20581510.135    20581512.339    23943978.842 8 -60383770.955 7
  23452247.011    23452248.878    50478441.489 9 -39799746.518 8
 86  6 13  2 32 17.0800000  0  4G12G13G 9G11
  21681146.687    21681149.164   -27695369.948 9  31765162.008 8
  20605606.007    20605607.304    -8203523.863 9   2750706.146 7
  20583748.578    20583749.775    23955742.309 8 -60374604.620 7
  23455407.149    23455408.649    50495046.719 9 -39786807.373 8
 86  6 13  2 32 23.0800000  0  4G12G13G 9G11
  21678560.193    21678561.997   -27708963.311 9  31754569.779 8
  20605789.627    20605789.683    -8202563.582 6   2751454.416 8
  20585991.862    20585992.865    23967529.722 9 -60365419.625 8
  23458566.858    23458569.387    50511652.526 9 -39773867.794 9
 86  6 13  2 32 29.0800000  0  4G12G13G 9G11
  21675976.696    21675977.883   -27722539.157 9  31743991.201 8
  20605975.390    20605976.314    -8201588.065 9   2752214.547 9
  20588239.116    20588240.999    23979341.152 9 -60356215.918 8
  23461726.680    23461728.839    50528258.915 9 -39760927.751 8
 86  6 13  2 32 35.0800000  0  4G12G13G 9G11
  21673397.096    21673399.155   -27736097.335 9  31733426.392 9
  20606163.321    20606164.756    -8200597.324 8   2752986.562 8
  20590492.446    20590492.880    23991176.697 9 -60346993.419 8
  23464886.598    23464888.560    50544865.841 9 -39747987.303 9
 86  6 13  2 32 41.0800000  0  4G12G13G 9G11
  21670821.088    21670821.236   -27749637.870 9  31722875.334 9
  20606354.480    20606356.408    -8199591.349 9   2753770.444 7
  20592748.404    20592750.850    24003036.163 9 -60337752.285 7
  23468047.079    23468050.057    50561473.339 9 -39735046.401 8
 86  6 13  2 32 47.0800000  0  4G12G13G 9G11
  21668246.906    21668248.275   -27763160.791 9  31712337.988 8
  20606549.555    20606549.428    -8198570.157 8   2754566.178 8
  20595010.195    20595010.949    24014919.730 8 -60328492.364 8
  23471207.598    23471210.066    50578081.363 9 -39722105.085 8
 86  6 13  2 32 53.0800000  0  4G12G13G 9G11
  21665676.081    21665678.700   -27776665.968 9  31701814.480 9
  20606746.563    20606747.775    -8197533.905 8   2755373.648 8
  20597276.054    20597277.739    24026827.306 9 -60319213.737 8
  23474369.280    23474370.399    50594689.850 9 -39709163.415 9
 86  6 13  2 32 59.0800000  0  4G12G13G 9G11
  21663110.020    21663112.701   -27790153.393 9  31691304.791 9
  20606945.737    20606947.148    -8196482.546 9   2756192.886 8
  20599546.695    20599547.619    24038758.817 9 -60309916.460 9
  23477529.054    23477531.396    50611298.777 9 -39696221.404 8
 86  6 13  2 33  5.0800000  0  4G12G13G 9G11
  21660546.484    21660548.834   -27803623.067 9  31680808.950 9
  20607149.481    20607150.058    -8195416.042 9   2757023.936 8
  20601821.771    20601822.163    24050714.307 9 -60300600.494 8
  23480689.289    23480692.596    50627908.241 9 -39683278.966 9
 86  6 13  2 33 11.0800000  0  4G12G13G 9G11
  21657987.495    21657989.223   -27817074.865 9  31670327.032 9
  20607355.036    20607355.910    -8194334.425 9   2757866.761 7
  20604101.076    20604102.928    24062693.724 8 -60291265.885 8
  23483850.360    23483853.408    50644518.234 8 -39670336.126 8
 86  6 13  2 33 17.0800000  0  4G12G13G 9G11
  21655430.397    21655433.164   -27830508.862 9  31659858.991 9
  20607562.983    20607565.364    -8193237.627 9   2758721.415 8
  20606385.256    20606385.786    24074697.102 9 -60281912.603 8
  23487011.300    23487013.096    50661128.683 9 -39657392.927 9
 86  6 13  2 33 23.0800000  0  4G12G13G 9G11
  21652877.571    21652879.966   -27843925.064 9  31649404.804 9
  20607774.815    20607775.982    -8192125.766 9   2759587.798 7
  20608674.669    20608673.787    24086724.362 9 -60272540.721 8
  23490171.665    23490174.758    50677739.545 8 -39644449.406 8
 86  6 13  2 33 29.0800000  0  4G12G13G 9G11
  21650328.028    21650329.999   -27857323.487 9  31638964.467 8
  20607990.495    20607990.508    -8190998.909 9   2760465.867 8
  20610967.511    20610968.486    24098775.553 9 -60263150.181 9
  23493333.099    23493336.394    50694350.824 9 -39631505.549 9
 86  6 13  2 33 35.0800000  0  4G12G13G 9G11
  21647781.978    21647783.428   -27870704.029 9  31628538.079 9
  20608206.729    20608206.751    -8189857.068 9   2761355.623 7
  20613265.203    20613266.265    24110850.609 9 -60253741.052 8
  23496494.725    23496496.031    50710962.493 9 -39618561.406 9
 86  6 13  2 33 41.0800000  0  4G12G13G 9G11
  21645238.675    21645241.061   -27884066.598 9  31618125.690 8
  20608426.439    20608428.254    -8188700.112 9   2762257.151 9
  20615567.091    20615567.884    24122949.678 9 -60244313.212 8
  23499655.216    23499657.174    50727574.634 9 -39605616.888 8
 86  6 13  2 33 47.0800000  0  4G12G13G 9G11
  21642699.776    21642701.377   -27897411.277 9  31607727.242 9
  20608650.194    20608649.604    -8187528.090 9   2763170.420 8
  20617873.787    20617875.014    24135072.539 9 -60234866.833 7
  23502816.517    23502819.249    50744187.176 9 -39592672.053 8
 86  6 13  2 33 53.0800000  0  4G12G13G 9G11
  21640163.860    21640166.119   -27910737.995 9  31597342.786 9
  20608876.421    20608877.136    -8186341.057 9   2764095.374 8
  20620185.836    20620187.345    24147219.249 9 -60225401.860 8
  23505977.970    23505980.478    50760800.116 9 -39579726.914 9
 86  6 13  2 33 59.0800000  0  4G12G13G 9G11
  21637631.135    21637633.171   -27924046.831 9  31586972.264 9
  20609104.580    20609106.810    -8185139.058 9   2765032.010 7
  20622502.183    20622502.845    24159389.749 8 -60215918.358 9
  23509139.997    23509141.511    50777413.488 8 -39566781.446 9
 86  6 13  2 34  5.0800000  0  4G12G13G 9G11
  21635101.830    21635104.541   -27937337.676 9  31576615.764 8
  20609336.514    20609337.335    -8183922.083 9   2765980.295 8
  20624822.526    20624822.921    24171584.133 9 -60206416.250 9
  23512301.125    23512304.078    50794027.269 9 -39553835.648 9
 86  6 13  2 34 11.0800000  0  4G12G13G 9G11
  21632576.225    21632578.065   -27950610.492 9  31566273.311 9
  20609570.738    20609572.678    -8182690.174 9   2766940.219 7
  20627148.170    20627148.408    24183802.252 8 -60196895.639 8
  23515462.675    23515465.383    50810641.352 9 -39540889.619 9
 86  6 13  2 34 17.0800000  0  4G12G13G 9G11
  21630054.361    21630054.995   -27963865.217 9  31555944.962 9
  20609808.339    20609809.966    -8181443.242 8   2767911.865 9
  20629477.594    20629478.117    24196044.329 9 -60187356.353 8
  23518624.901    23518625.787    50827255.793 8 -39527943.307 8
 86  6 13  2 34 23.0800000  0  4G12G13G 9G11
  21627535.548    21627537.076   -27977101.890 9  31545630.665 9
  20610049.181    20610049.437    -8180181.346 9   2768895.154 9
  20631810.279    20631812.542    24208310.090 9 -60177798.620 7
  23521785.477    23521789.245    50843870.562 8 -39514996.748 9
 86  6 13  2 34 29.0800000  0  4G12G13G 9G11
  21625019.821    21625021.614   -27990320.542 9  31535330.418 9
  20610291.314    20610291.494    -8178904.596 9   2769890.032 7
  20634150.177    20634151.036    24220599.712 9 -60168222.290 8
  23524947.637    23524949.701    50860485.654 9 -39502049.929 9
 86  6 13  2 34 35.0800000  0  4G12G13G 9G11
  21622508.964    21622509.966   -28003520.992 9  31525044.358 8
  20610537.318    20610537.386    -8177612.879 9   2770896.559 7
  20636492.721    20636493.433    24232913.095 9 -60158627.465 8
  23528110.028    23528111.709    50877101.076 9 -39489102.903 9
 86  6 13  2 34 41.0800000  0  4G12G13G 9G11
  21619998.791    21620001.116   -28016703.276 9  31514772.442 9
  20610785.766    20610786.543    -8176306.188 9   2771914.775 8
  20638840.495    20638841.244    24245250.168 9 -60149014.158 7
  23531271.461    23531274.846    50893716.791 9 -39476155.552 9
 86  6 13  2 34 47.0800000  0  4G12G13G 9G11
  21617494.638    21617496.115   -28029867.400 9  31504514.685 9
  20611038.020    20611037.978    -8174984.552 9   2772944.618 8
  20641193.468    20641193.981    24257611.007 9 -60139382.335 7
  23534434.345    23534435.817    50910332.836 9 -39463207.989 8
 86  6 13  2 34 53.0800000  0  4G12G13G 9G11
  21614992.921    21614994.566   -28043013.394 9  31494271.067 9
  20611292.322    20611292.128    -8173648.054 9   2773986.046 8
  20643549.562    20643550.153    24269995.589 9 -60129732.006 8
  23537595.580    23537598.465    50926949.188 8 -39450260.199 9
 86  6 13  2 34 59.0800000  0  4G12G13G 9G11
  21612495.038    21612495.601   -28056141.301 9  31484041.521 9
  20611549.108    20611549.686    -8172296.724 9   2775039.036 8
  20645910.434    20645910.536    24282403.906 9 -60120063.198 9
  23540756.568    23540760.251    50943565.781 8 -39437312.206 8
 86  6 13  2 35  5.0800000  0  4G12G13G 9G11
  21610000.740    21610001.689   -28069250.987 9  31473826.185 8
  20611809.651    20611810.571    -8170930.574 9   2776103.564 7
  20648276.916    20648277.841    24294835.872 9 -60110375.962 8
  23543920.789    23543921.636    50960182.632 8 -39424364.022 8
 86  6 13  2 35 11.0800000  0  4G12G13G 9G11
  21607509.181    21607509.919   -28082342.452 9  31463625.045 8
  20612071.424    20612071.456    -8169549.598 9   2777179.660 9
  20650647.087    20650647.535    24307291.486 8 -60100670.291 7
  23547081.105    23547084.306    50976799.727 8 -39411415.654 9
 86  6 13  2 35 17.0800000  0  4G12G13G 9G11
  21605021.131    21605022.862   -28095415.605 9  31453438.178 9
  20612337.859    20612337.904    -8168153.708 9   2778267.366 8
  20653020.637    20653021.779    24319770.824 9 -60090946.132 8
  23550243.609    23550247.096    50993417.067 8 -39398467.082 9
 86  6 13  2 35 23.0800000  0  4G12G13G 9G11
  21602536.667    21602537.119   -28108470.452 9  31443265.570 8
  20612605.093    20612606.294    -8166742.985 9   2779366.635 7
  20655400.598    20655400.850    24332273.843 9 -60081203.529 8
  23553405.769    23553408.582    51010034.663 8 -39385518.313 8
 86  6 13  2 35 29.0800000  0  4G12G13G 9G11
  21600056.022    21600058.780   -28121506.958 9  31433107.253 8
  20612876.939    20612878.716    -8165317.331 9   2780477.529 9
  20657783.591    20657783.770    24344800.496 9 -60071442.501 7
  23556568.511    23556570.971    51026652.507 9 -39372569.350 9
 86  6 13  2 35 35.0800000  0  4G12G13G 9G11
  21597578.528    21597580.341   -28134525.178 9  31422963.192 9
  20613151.921    20613151.954    -8163876.964 9   2781599.896 8
  20660172.111    20660172.953    24357350.852 9 -60061663.001 8
  23559730.462    23559733.344    51043270.519 9 -39359620.261 9
 86  6 13  2 35 41.0800000  0  4G12G13G 9G11
  21595104.679    21595106.654   -28147525.034 9  31412833.431 8
  20613428.569    20613429.380    -8162421.823 9   2782733.774 8
  20662565.527    20662564.328    24369924.806 8 -60051865.116 7
  23562892.658    23562896.019    51059888.758 9 -39346670.990 9
 86  6 13  2 35 47.0800000  0  4G12G13G 9G11
  21592634.355    21592636.070   -28160506.538 9  31402717.979 8
  20613707.643    20613708.977    -8160951.947 9   2783879.134 8
  20664962.168    20664962.936    24382522.341 9 -60042048.865 7
  23566054.473    23566057.954    51076507.212 9 -39333721.550 9
 86  6 13  2 35 53.0800000  0  4G12G13G 9G11
  21590167.378    21590169.590   -28173469.671 9  31392616.834 9
  20613990.822    20613991.654    -8159467.220 9   2785036.064 8
  20667364.367    20667364.978    24395143.586 9 -60032214.126 8
  23569217.742    23569220.396    51093125.766 8 -39320772.027 9
 86  6 13  2 35 59.0800000  0  4G12G13G 9G11
  21587704.355    21587705.826   -28186414.369 9  31382530.053 9
  20614275.335    20614276.123    -8157967.752 9   2786204.493 9
  20669770.684    20669769.840    24407788.386 9 -60022361.043 8
  23572380.377    23572383.271    51109744.489 8 -39307822.388 9
 86  6 13  2 36  5.0800000  0  4G12G13G 9G11
  21585244.875    21585247.694   -28199340.695 9  31372457.596 8
  20614564.048    20614564.997    -8156453.628 9   2787384.327 7
  20672181.698    20672181.349    24420456.629 9 -60012489.677 8
  23575541.125    23575545.378    51126363.267 8 -39294872.697 9
 86  6 13  2 36 11.0800000  0  4G12G13G 9G11
  21582788.474    21582790.087   -28212248.464 9  31362399.594 8
  20614854.565    20614857.199    -8154924.754 9   2788575.648 8
  20674596.401    20674597.424    24433148.465 9 -60002599.940 8
  23578705.469    23578707.658    51142982.240 8 -39281922.855 8
 86  6 13  2 36 17.0800000  0  4G12G13G 9G11
  21580336.005    21580337.981   -28225137.763 9  31352355.992 8
  20615148.030    20615149.132    -8153381.267 9   2789778.375 8
  20677016.290    20677015.693    24445863.805 9 -59992691.885 8
  23581866.668    23581870.731    51159601.364 8 -39268972.892 9
 86  6 13  2 36 23.0800000  0  4G12G13G 9G11
  21577886.319    21577888.682   -28238008.557 9  31342326.804 9
  20615444.550    20615446.852    -8151823.134 9   2790992.501 8
  20679440.262    20679439.884    24458602.647 9 -59982765.524 7
  23585029.666    23585033.156    51176220.599 9 -39256022.848 9
 86  6 13  2 36 29.0800000  0  4G12G13G 9G11
  21575441.164    21575442.505   -28250860.880 9  31332312.005 8
  20615742.633    20615745.682    -8150250.375 9   2792218.032 8
  20681867.930    20681869.150    24471365.054 9 -59972820.792 7
  23588192.684    23588196.099    51192839.852 9 -39243072.786 9
 86  6 13  2 36 35.0800000  0  4G12G13G 9G11
  21572998.264    21573001.066   -28263694.676 9  31322311.647 8
  20616045.290    20616047.115    -8148662.965 9   2793454.972 8
  20684301.125    20684302.090    24484150.894 9 -59962857.799 7
  23591354.309    23591358.752    51209459.158 8 -39230122.684 9
 86  6 13  2 36 41.0800000  0  4G12G13G 9G11
  21570559.656    21570561.701   -28276509.922 9  31312325.747 9
  20616350.853    20616351.502    -8147060.964 9   2794703.284 8
  20686738.695    20686740.486    24496960.169 9 -59952876.548 7
  23594517.872    23594520.441    51226078.567 9 -39217172.498 9
 86  6 13  2 36 47.0800000  0  4G12G13G 9G11
  21568124.670    21568126.603   -28289306.576 9  31302354.322 9
  20616659.176    20616658.973    -8145444.388 9   2795962.958 8
  20689181.271    20689182.830    24509792.909 9 -59942877.014 8
  23597680.404    23597683.239    51242698.083 8 -39204222.239 9
 86  6 13  2 36 53.0800000  0  4G12G13G 9G11
  21565693.863    21565694.400   -28302084.606 9  31292397.428 9
  20616968.439    20616969.977    -8143813.133 9   2797234.067 8
  20691628.489    20691627.701    24522649.093 9 -59932859.216 9
  23600842.075    23600845.929    51259317.669 9 -39191271.918 9
 86  6 13  2 36 59.0800000  0  4G12G13G 9G11
  21563265.434    21563266.900   -28314843.998 9  31282455.041 9
  20617282.291    20617284.277    -8142167.247 9   2798516.573 8
  20694077.585    20694078.880    24535528.677 9 -59922823.181 8
  23604005.506    23604008.142    51275937.321 9 -39178321.548 9
 86  6 13  2 37  5.0800000  0  4G12G13G 9G11
  21560840.274    21560842.816   -28327584.821 9  31272527.131 9
  20617597.928    20617599.699    -8140506.823 9   2799810.414 8
  20696533.845    20696535.357    24548431.596 9 -59912768.959 7
  23607168.554    23607171.838    51292556.917 8 -39165371.222 9
 86  6 13  2 37 11.0800000  0  4G12G13G 9G11
  21558419.963    21558421.120   -28340307.036 9  31262613.718 9
  20617916.256    20617918.607    -8138831.836 9   2801115.602 8
  20698993.223    20698993.889    24561358.042 9 -59902696.406 7
  23610329.872    23610334.278    51309176.548 8 -39152420.865 9
 86  6 13  2 37 17.0800000  0  4G12G13G 9G11
  21556001.859    21556004.048   -28353010.482 9  31252714.933 8
  20618238.385    20618239.070    -8137142.249 9   2802432.177 7
  20701457.659    20701457.343    24574307.775 9 -59892605.712 9
  23613492.069    23613496.867    51325796.186 9 -39139470.503 9
 86  6 13  2 37 23.0800000  0  4G12G13G 9G11
  21553588.197    21553591.016   -28365695.153 9  31242830.771 9
  20618562.264    20618564.203    -8135437.978 9   2803760.181 8
  20703926.570    20703927.037    24587281.035 8 -59882496.678 7
  23616656.291    23616658.956    51342415.825 8 -39126520.159 9
 86  6 13  2 37 29.0800000  0  4G12G13G 9G11
  21551178.243    21551180.011   -28378361.053 9  31232961.237 8
  20618889.327    20618890.341    -8133719.165 9   2805099.504 8
  20706399.285    20706399.166    24600277.547 9 -59872369.524 7
  23619817.745    23619822.190    51359035.411 9 -39113569.827 9
 86  6 13  2 37 35.0800000  0  4G12G13G 9G11
  21548771.474    21548773.066   -28391008.231 9  31223106.312 9
  20619219.377    20619220.748    -8131985.882 9   2806450.124 8
  20708877.663    20708879.029    24613297.334 9 -59862224.256 7
  23622980.686    23622983.628    51375654.961 8 -39100619.540 9
 86  6 13  2 37 41.0800000  0  4G12G13G 9G11
  21546368.274    21546370.766   -28403636.655 9  31213265.973 8
  20619551.533    20619553.455    -8130238.030 9   2807812.087 9
  20711359.048    20711358.775    24626340.403 9 -59852060.819 7
  23626144.562    23626147.557    51392274.505 9 -39087669.254 9
 86  6 13  2 37 47.0800000  0  4G12G13G 9G11
  21543969.469    21543970.701   -28416246.229 9  31203440.330 9
  20619887.970    20619888.790    -8128475.720 9   2809185.317 9
  20713845.845    20713847.396    24639406.899 8 -59841879.133 7
  23629306.495    23629308.826    51408893.980 8 -39074719.023 9
 86  6 13  2 37 53.0800000  0  4G12G13G 9G11
  21541572.796    21541574.582   -28428837.008 9  31193629.340 8
  20620226.583    20620227.338    -8126698.902 9   2810569.857 8
  20716336.931    20716338.115    24652496.713 9 -59831679.285 7
  23632468.846    23632471.448    51425513.487 8 -39061768.760 9
 86  6 13  2 37 59.0800000  0  4G12G13G 9G11
  21539180.808    21539182.436   -28441408.949 9  31183833.026 9
  20620566.088    20620567.907    -8124907.598 9   2811965.688 9
  20718831.624    20718832.318    24665609.762 9 -59821461.324 8
  23635631.130    23635634.629    51442132.914 8 -39048818.570 8
 86  6 13  2 38  5.0800000  0  4G12G13G 9G11
  21536792.308    21536794.254   -28453961.995 9  31174051.434 8
  20620910.316    20620910.469    -8123101.900 9   2813372.729 8
  20721331.691    20721332.591    24678746.050 9 -59811225.262 8
  23638794.118    23638796.463    51458752.249 9 -39035868.442 9
 86  6 13  2 38 11.0800000  0  4G12G13G 9G11
  21534406.873    21534407.856   -28466496.140 9  31164284.571 9
  20621256.656    20621257.599    -8121281.775 8   2814791.002 8
  20723836.433    20723835.952    24691905.672 9 -59800971.008 7
  23641956.296    23641959.820    51475371.515 9 -39022918.372 8
 86  6 13  2 38 17.0800000  0  4G12G13G 9G11
  21532024.237    21532026.283   -28479011.378 9  31154532.439 8
  20621606.309    20621606.648    -8119447.269 9   2816220.488 8
  20726344.114    20726346.237    24705088.471 8 -59790698.708 8
  23645119.278    23645122.367    51491990.641 8 -39009968.416 9
 86  6 13  2 38 23.0800000  0  4G12G13G 9G11
  21529646.326    21529648.913   -28491507.688 9  31144795.058 9
  20621957.651    20621958.711    -8117598.417 8   2817661.153 8
  20728858.414    20728858.046    24718294.613 9 -59780408.212 7
  23648281.494    23648284.001    51508609.659 8 -38997018.532 9
 86  6 13  2 38 29.0800000  0  4G12G13G 9G11
  21527271.893    21527273.956   -28503985.026 9  31135072.458 9
  20622311.477    20622312.674    -8115735.219 9   2819113.004 8
  20731376.201    20731375.296    24731523.834 9 -59770099.738 8
  23651444.198    23651447.182    51525228.575 8 -38984068.745 9
 86  6 13  2 38 35.0800000  0  4G12G13G 9G11
  21524901.576    21524904.034   -28516443.331 9  31125364.686 9
  20622669.630    20622669.816    -8113857.645 9   2820576.036 8
  20733897.277    20733898.154    24744776.314 9 -59759773.132 7
  23654607.082    23654609.095    51541847.385 9 -38971119.026 9
 86  6 13  2 38 41.0800000  0  4G12G13G 9G11
  21522534.947    21522536.767   -28528882.659 9  31115671.708 8
  20623029.341    20623030.342    -8111965.646 9   2822050.329 8
  20736423.169    20736423.600    24758052.033 9 -59749428.421 7
  23657769.356    23657772.276    51558465.996 9 -38958169.463 9
 86  6 13  2 38 47.0800000  0  4G12G13G 9G11
  21520171.319    21520173.125   -28541302.954 9  31105993.561 8
  20623392.222    20623392.263    -8110059.330 9   2823535.780 9
  20738954.203    20738953.651    24771350.830 8 -59739065.714 8
  23660930.792    23660933.961    51575084.412 9 -38945220.055 9
 86  6 13  2 38 53.0800000  0  4G12G13G 9G11
  21517811.549    21517812.554   -28553704.150 9  31096330.290 9
  20623757.804    20623758.517    -8108138.671 9   2825032.397 8
  20741489.471    20741488.869    24784672.860 8 -59728684.917 8
  23664093.371    23664096.803    51591702.714 8 -38932270.738 9
 86  6 13  2 38 59.0800000  0  4G12G13G 9G11
  21515455.216    21515456.690   -28566086.315 9  31086681.858 9
  20624125.247    20624126.370    -8106203.710 8   2826540.166 8
  20744029.041    20744029.022    24798017.956 9 -59718286.151 8
  23667256.312    23667258.549    51608320.797 9 -38919321.592 9
 86  6 13  2 39  5.0800000  0  4G12G13G 9G11
  21513102.578    21513104.602   -28578449.422 9  31077048.272 8
  20624496.936    20624497.402    -8104254.389 9   2828059.120 9
  20746572.587    20746572.227    24811386.189 9 -59707869.339 7
  23670418.053    23670421.171    51624938.697 9 -38906372.579 9
 86  6 13  2 39 11.0800000  0  4G12G13G 9G11
  21510753.618    21510754.922   -28590793.463 9  31067429.535 8
  20624871.207    20624870.804    -8102290.715 9   2829589.248 7
  20749120.907    20749120.823    24824777.601 9 -59697434.484 8
  23673580.422    23673584.084    51641556.437 8 -38893423.695 9
 86  6 13  2 39 17.0800000  0  4G12G13G 9G11
  21508408.489    21508409.977   -28603118.312 9  31057825.758 8
  20625247.225    20625246.751    -8100312.744 9   2831130.532 8
  20751672.833    20751675.192    24838192.162 9 -59686981.584 7
  23676743.097    23676745.233    51658174.010 9 -38880474.945 9
 86  6 13  2 39 23.0800000  0  4G12G13G 9G11
  21506066.652    21506067.439   -28615424.023 9  31048236.899 9
  20625625.263    20625626.353    -8098320.612 9   2832682.836 9
  20754229.777    20754231.173    24851629.653 9 -59676510.818 9
  23679904.933    23679907.164    51674791.311 9 -38867526.402 9
 86  6 13  2 39 29.0800000  0  4G12G13G 9G11
  21503728.130    21503731.060   -28627710.581 9  31038662.962 8
  20626008.239    20626007.766    -8096314.253 9   2834246.228 8
  20756791.774    20756791.881    24865090.183 9 -59666022.095 7
  23683068.352    23683070.532    51691408.393 9 -38854578.037 9
 86  6 13  2 39 35.0800000  0  4G12G13G 9G11
  21501393.941    21501395.930   -28639977.894 9  31029104.009 9
  20626392.195    20626391.827    -8094293.647 9   2835820.741 8
  20759357.589    20759358.710    24878573.747 9 -59655515.424 8
  23686229.959    23686232.423    51708025.270 9 -38841629.819 9
 86  6 13  2 39 41.0800000  0  4G12G13G 9G11
  21499062.964    21499065.384   -28652225.946 9  31019560.092 8
  20626779.333    20626780.702    -8092258.843 9   2837406.297 8
  20761928.025    20761928.498    24892080.355 8 -59644990.803 8
  23689391.049    23689394.631    51724641.910 9 -38828681.797 9
 86  6 13  2 39 47.0800000  0  4G12G13G 9G11
  21496735.710    21496737.609   -28664454.761 9  31010031.138 8
  20627168.932    20627170.661    -8090209.850 9   2839002.913 7
  20764503.227    20764503.275    24905609.946 9 -59634448.257 7
  23692553.515    23692555.924    51741258.257 9 -38815734.005 9
 86  6 13  2 39 53.0800000  0  4G12G13G 9G11
  21494413.144    21494415.252   -28676664.321 9  31000517.195 8
  20627562.142    20627562.150    -8088146.644 9   2840610.613 8
  20767081.746    20767081.835    24919162.617 9 -59623887.747 8
  23695715.617    23695717.719    51757874.353 9 -38802786.410 9
 86  6 13  2 39 59.0800000  0  4G12G13G 9G11
  21492093.216    21492094.726   -28688854.586 9  30991018.288 9
  20627957.443    20627958.819    -8086069.273 9   2842229.350 8
  20769664.838    20769665.449    24932738.308 9 -59613309.290 8
  23698877.509    23698879.517    51774490.188 9 -38789839.007 9
 86  6 13  2 40  5.0800000  0  4G12G13G 9G11
  21489777.249    21489779.872   -28701025.527 9  30981534.444 9
  20628354.963    20628356.104    -8083977.673 9   2843859.173 8
  20772252.108    20772252.876    24946336.955 8 -59602712.938 8
  23702039.173    23702041.653    51791105.795 9 -38776891.785 9
 86  6 13  2 40 11.0800000  0  4G12G13G 9G11
  21487464.025    21487466.231   -28713177.111 9  30972065.674 8
  20628755.506    20628756.543    -8081871.874 9   2845500.048 8
  20774844.478    20774845.759    24959958.550 9 -59592098.716 7
  23705201.410    23705202.553    51807721.102 9 -38763944.801 9
 86  6 13  2 40 17.0800000  0  4G12G13G 9G11
  21485156.203    21485157.217   -28725309.363 9  30962611.977 9
  20629159.253    20629159.579    -8079751.988 9   2847151.904 8
  20777442.023    20777442.173    24973603.014 8 -59581466.668 8
  23708363.159    23708365.963    51824336.062 9 -38750998.087 9
 86  6 13  2 40 23.0800000  0  4G12G13G 9G11
  21482850.239    21482852.522   -28737422.253 9  30953173.371 7
  20629565.870    20629566.129    -8077618.045 9   2848814.720 8
  20780043.121    20780042.280    24987270.433 9 -59570816.728 8
  23711524.767    23711527.788    51840950.654 9 -38738051.652 9
 86  6 13  2 40 29.0800000  0  4G12G13G 9G11
  21480549.454    21480551.743   -28749515.761 9  30943749.854 9
  20629974.340    20629975.237    -8075469.957 9   2850488.557 9
  20782648.048    20782647.541    25000960.846 9 -59560148.889 8
  23714685.819    23714687.906    51857564.881 9 -38725105.506 9
 86  6 13  2 40 35.0800000  0  4G12G13G 9G11
  21478252.129    21478253.576   -28761589.896 9  30934341.444 8
  20630385.060    20630387.300    -8073307.837 9   2852173.325 8
  20785257.100    20785257.349    25014673.914 9 -59549463.389 7
  23717847.617    23717850.004    51874178.737 9 -38712159.659 9
 86  6 13  2 40 41.0800000  0  4G12G13G 9G11
  21475957.971    21475959.617   -28773644.630 9  30924948.151 9
  20630798.882    20630800.313    -8071131.665 9   2853869.044 8
  20787870.933    20787871.470    25028409.882 9 -59538760.034 8
  23721009.682    23721011.477    51890792.216 9 -38699214.086 9
 86  6 13  2 40 47.0800000  0  4G12G13G 9G11
  21473668.329    21473670.804   -28785679.897 9  30915570.008 9
  20631216.537    20631217.920    -8068941.385 9   2855575.760 8
  20790489.574    20790490.035    25042168.766 8 -59528038.828 8
  23724171.096    23724173.808    51907405.349 9 -38686268.793 8
 86  6 13  2 40 53.0800000  0  4G12G13G 9G11
  21471382.120    21471382.887   -28797695.653 9  30906207.087 8
  20631636.313    20631636.831    -8066737.059 9   2857293.419 8
  20793111.213    20793111.376    25055950.417 9 -59517299.883 9
  23727331.864    23727334.871    51924018.062 9 -38673323.833 9
 86  6 13  2 40 59.0800000  0  4G12G13G 9G11
  21469098.439    21469100.309   -28809691.875 9  30896859.387 9
  20632057.688    20632057.825    -8064518.679 9   2859022.027 9
  20795738.462    20795739.128    25069754.988 9 -59506543.080 7
  23730493.087    23730496.454    51940630.424 9 -38660379.144 9
 86  6 13  2 41  5.0800000  0  4G12G13G 9G11
  21466819.716    21466820.287   -28821668.550 9  30887526.918 9
  20632482.991    20632483.940    -8062286.280 9   2860761.550 8
  20798369.497    20798370.628    25083582.375 9 -59495768.493 7
  23733654.761    23733656.791    51957242.409 9 -38647434.740 8
 86  6 13  2 41 11.0800000  0  4G12G13G 9G11
  21464543.171    21464545.722   -28833625.641 9  30878209.703 9
  20632910.185    20632910.989    -8060039.779 9   2862512.081 7
  20801005.910    20801006.000    25097432.552 9 -59484976.158 8
  23736814.956    23736817.754    51973854.010 9 -38634490.637 9
 86  6 13  2 41 17.0800000  0  4G12G13G 9G11
  21462271.689    21462272.826   -28845563.237 9  30868907.686 9
  20633340.581    20633341.545    -8057779.297 9   2864273.491 8
  20803645.691    20803646.388    25111305.515 8 -59474166.062 7
  23739975.857    23739979.528    51990465.208 9 -38621546.856 9
 86  6 13  2 41 23.0800000  0  4G12G13G 9G11
  21460004.404    21460006.192   -28857481.237 9  30859620.939 8
  20633773.577    20633774.146    -8055504.743 9   2866045.873 9
  20806289.313    20806289.710    25125201.224 9 -59463338.236 8
  23743137.559    23743140.138    52007076.009 9 -38608603.376 8
 86  6 13  2 41 29.0800000  0  4G12G13G 9G11
  21457740.591    21457741.775   -28869379.593 9  30850349.491 9
  20634208.931    20634210.176    -8053216.218 9   2867829.133 8
  20808938.287    20808938.726    25139119.587 9 -59452492.759 8
  23746297.571    23746300.303    52023686.411 9 -38595660.216 9
 86  6 13  2 41 35.0800000  0  4G12G13G 9G11
  21455479.840    21455481.994   -28881258.381 9  30841093.290 8
  20634645.729    20634647.246    -8050913.759 9   2869623.266 8
  20811590.755    20811591.133    25153060.772 8 -59441629.510 8
  23749458.225    23749461.681    52040296.323 9 -38582717.426 9
 86  6 13  2 41 41.0800000  0  4G12G13G 9G11
  21453222.918    21453225.418   -28893117.541 9  30831852.392 9
  20635087.871    20635088.335    -8048597.331 9   2871428.275 7
  20814248.168    20814249.394    25167024.675 9 -59430748.545 8
  23752618.687    23752621.761    52056905.752 9 -38569775.027 9
 86  6 13  2 41 47.0800000  0  4G12G13G 9G11
  21450969.738    21450971.786   -28904956.964 9  30822626.879 9
  20635531.227    20635532.116    -8046267.020 9   2873244.104 9
  20816910.108    20816911.159    25181011.247 9 -59419849.922 7
  23755780.074    23755782.360    52073514.729 9 -38556832.971 8
 86  6 13  2 41 53.0800000  0  4G12G13G 9G11
  21448721.042    21448723.150   -28916776.688 9  30813416.704 9
  20635977.582    20635978.971    -8043922.833 9   2875070.743 9
  20819575.942    20819576.420    25195020.480 8 -59408933.644 8
  23758939.906    23758943.133    52090123.217 9 -38543891.302 8
 86  6 13  2 41 59.0800000  0  4G12G13G 9G11
  21446475.901    21446476.484   -28928576.691 9  30804221.898 8
  20636425.603    20636427.533    -8041564.702 9   2876908.252 8
  20822245.919    20822246.369    25209052.474 9 -59397999.625 8
  23762100.386    23762103.246    52106731.258 9 -38530949.958 9
 86  6 13  2 42  5.0800000  0  4G12G13G 9G11
  21444233.825    21444236.544   -28940356.975 9  30795042.461 8
  20636877.781    20636878.512    -8039192.626 9   2878756.618 8
  20824920.589    20824921.537    25223107.076 9 -59387047.987 7
  23765261.210    23765264.137    52123338.789 9 -38518009.038 8
 86  6 13  2 42 11.0800000  0  4G12G13G 9G11
  21441995.944    21441996.656   -28952117.500 9  30785878.422 9
  20637330.430    20637332.155    -8036806.713 9   2880615.779 8
  20827599.041    20827599.031    25237184.317 9 -59376078.697 8
  23768420.698    23768424.386    52139945.751 9 -38505068.550 8
 86  6 13  2 42 17.0800000  0  4G12G13G 9G11
  21439761.910    21439763.736   -28963858.251 9  30776729.781 8
  20637787.958    20637789.573    -8034406.957 9   2882485.722 8
  20830282.503    20830283.249    25251284.145 8 -59365091.830 8
  23771581.294    23771584.241    52156552.208 9 -38492128.457 8
 86  6 13  2 42 23.0800000  0  4G12G13G 9G11
  21437530.958    21437533.660   -28975579.165 9  30767596.613 9
  20638248.005    20638248.391    -8031993.305 9   2884366.488 8
  20832969.968    20832970.309    25265406.573 9 -59354087.349 8
  23774741.528    23774743.962    52173158.171 9 -38479188.757 8
 86  6 13  2 42 29.0800000  0  4G12G13G 9G11
  21435304.257    21435306.635   -28987280.138 9  30758478.971 9
  20638709.297    20638709.826    -8029565.857 9   2886258.004 8
  20835661.300    20835663.095    25279551.613 9 -59343065.246 8
  23777901.759    23777904.206    52189763.588 9 -38466249.479 8
 86  6 13  2 42 35.0800000  0  4G12G13G 9G11
  21433081.772    21433083.980   -28998961.262 9  30749376.796 9
  20639173.729    20639174.362    -8027124.591 8   2888160.290 8
  20838357.546    20838358.185    25293719.155 8 -59332025.615 8
  23781060.637    23781063.537    52206368.432 9 -38453310.639 9
 86  6 13  2 42 41.0800000  0  4G12G13G 9G11
  21430862.973    21430864.305   -29010622.559 9  30740290.072 8
  20639641.157    20639642.015    -8024669.506 9   2890073.348 8
  20841056.862    20841059.105    25307909.253 9 -59320968.394 8
  23784220.375    23784223.946    52222972.731 9 -38440372.232 8
 86  6 13  2 42 47.0800000  0  4G12G13G 9G11
  21428647.681    21428649.533   -29022263.995 9  30731218.826 9
  20640111.266    20640112.783    -8022200.681 9   2891997.110 8
  20843761.870    20843762.363    25322121.860 8 -59309893.639 8
  23787380.454    23787383.196    52239576.435 9 -38427434.280 8
 86  6 13  2 42 53.0800000  0  4G12G13G 9G11
  21426435.574    21426438.015   -29033885.604 9  30722163.036 9
  20640583.309    20640584.380    -8019718.093 9   2893931.582 9
  20846471.457    20846472.344    25336357.058 9 -59298801.273 8
  23790540.020    23790541.878    52256179.579 9 -38414496.766 9
 86  6 13  2 42 59.0800000  0  4G12G13G 9G11
  21424228.518    21424229.682   -29045487.325 9  30713122.738 9
  20641058.362    20641058.854    -8017221.744 9   2895876.803 8
  20849184.965    20849185.463    25350614.715 8 -59287691.414 9
  23793698.402    23793701.915    52272782.125 9 -38401559.724 8
 86  6 13  2 43  5.0800000  0  4G12G13G 9G11
  21422024.251    21422026.900   -29057069.037 9  30704098.036 9
  20641535.751    20641536.380    -8014711.618 9   2897832.751 7
  20851901.226    20851902.280    25364894.914 8 -59276563.995 8
  23796858.502    23796861.524    52289384.099 9 -38388623.111 8
 86  6 13  2 43 11.0800000  0  4G12G13G 9G11
  21419823.567    21419825.394   -29068630.846 9  30695088.842 9
  20642017.501    20642017.586    -8012187.856 9   2899799.318 8
  20854623.722    20854624.570    25379197.510 9 -59265419.120 8
  23800018.028    23800019.122    52305985.452 9 -38375687.014 8
 86  6 13  2 43 17.0800000  0  4G12G13G 9G11
  21417627.599    21417629.845   -29080172.671 9  30686095.208 9
  20642498.863    20642500.341    -8009650.343 9   2901776.595 9
  20857349.763    20857350.960    25393522.543 9 -59254256.756 7
  23803176.486    23803179.842    52322586.200 9 -38362751.358 8
 86  6 13  2 43 23.0800000  0  4G12G13G 9G11
  21415435.408    21415437.685   -29091694.524 9  30677117.142 9
  20642984.305    20642986.625    -8007099.190 9   2903764.520 8
  20860079.673    20860080.547    25407869.990 9 -59243076.934 8
  23806336.013    23806337.916    52339186.288 9 -38349816.229 9
 86  6 13  2 43 29.0800000  0  4G12G13G 9G11
  21413246.102    21413247.798   -29103196.366 9  30668154.668 9
  20643472.260    20643473.604    -8004534.275 9   2905763.148 8
  20862813.919    20862816.123    25422239.759 9 -59231879.714 8
  23809493.956    23809496.970    52355785.700 9 -38336881.623 9
 86  6 13  2 43 35.0800000  0  4G12G13G 9G11
  21411061.393    21411063.500   -29114678.108 9  30659207.869 9
  20643963.488    20643965.224    -8001955.642 9   2907772.476 8
  20865552.019    20865553.168    25436632.007 9 -59220664.979 9
  23812653.425    23812654.889    52372384.478 9 -38323947.514 8
 86  6 13  2 43 41.0800000  0  4G12G13G 9G11
  21408880.109    21408881.806   -29126139.761 9  30650276.703 9
  20644456.515    20644458.359    -7999363.362 9   2909792.442 8
  20868295.487    20868296.296    25451046.633 9 -59209432.804 8
  23815811.846    23815814.889    52388982.633 9 -38311013.897 9
 86  6 13  2 43 47.0800000  0  4G12G13G 9G11
  21406703.630    21406705.432   -29137581.320 9  30641361.208 9
  20644952.253    20644953.817    -7996757.468 9   2911823.003 8
  20871044.198    20871043.247    25465483.618 9 -59198183.215 7
  23818969.199    23818971.744    52405580.061 9 -38298080.838 8
 86  6 13  2 43 53.0800000  0  4G12G13G 9G11
  21404529.860    21404532.609   -29149002.723 9  30632461.415 9
  20645451.243    20645452.578    -7994137.854 9   2913864.265 8
  20873794.514    20873795.248    25479942.979 9 -59186916.186 8
  23822128.019    23822131.610    52422176.844 9 -38285148.280 9
 86  6 13  2 43 59.0800000  0  4G12G13G 9G11
  21402360.644    21402361.905   -29160404.053 9  30623577.268 9
  20645951.830    20645954.160    -7991504.708 9   2915916.065 8
  20876549.718    20876552.484    25494424.631 9 -59175631.776 8
  23825286.002    23825289.301    52438772.915 9 -38272216.282 8
 86  6 13  2 44  5.0800000  0  4G12G13G 9G11
  21400194.502    21400196.528   -29171785.161 9  30614708.872 8
  20646455.651    20646457.419    -7988858.008 9   2917978.436 8
  20879309.841    20879310.854    25508928.603 9 -59164329.976 8
  23828443.734    23828446.877    52455368.266 9 -38259284.838 8
 86  6 13  2 44 11.0800000  0  4G12G13G 9G11
  21398032.358    21398034.437   -29183146.083 9  30605856.217 8
  20646962.334    20646963.457    -7986197.736 9   2920051.379 7
  20882074.123    20882075.546    25523454.856 9 -59153010.828 8
  23831602.193    23831604.909    52471962.915 8 -38246353.946 9
 86  6 13  2 44 17.0800000  0  4G12G13G 9G11
  21395874.713    21395876.031   -29194486.804 9  30597019.290 9
  20647470.809    20647471.790    -7983523.896 9   2922134.889 8
  20884843.523    20884844.898    25538003.376 9 -59141674.328 8
  23834760.499    23834762.816    52488556.838 9 -38233423.618 8
 86  6 13  2 44 23.0800000  0  4G12G13G 9G11
  21393720.181    21393722.514   -29205807.319 9  30588198.111 9
  20647982.086    20647982.849    -7980836.540 9   2924228.935 8
  20887615.556    20887616.811    25552574.157 9 -59130320.470 9
  23837916.669    23837920.115    52505149.973 9 -38220493.901 9
 86  6 13  2 44 29.0800000  0  4G12G13G 9G11
  21391569.516    21391571.152   -29217107.621 9  30579392.680 9
  20648496.656    20648496.830    -7978135.670 9   2926333.504 7
  20890392.682    20890393.863    25567167.094 9 -59118949.366 8
  23841074.401    23841078.211    52521742.366 9 -38207564.780 9
 86  6 13  2 44 35.0800000  0  4G12G13G 9G11
  21389423.665    21389425.026   -29228387.671 9  30570603.043 9
  20649012.315    20649013.335    -7975421.302 9   2928448.600 8
  20893173.986    20893175.838    25581782.220 8 -59107560.955 8
  23844232.020    23844234.123    52538333.981 9 -38194636.244 8
 86  6 13  2 44 41.0800000  0  4G12G13G 9G11
  21387281.375    21387282.037   -29239647.416 9  30561829.222 9
  20649532.075    20649532.996    -7972693.385 9   2930574.257 7
  20895959.440    20895961.452    25596419.681 9 -59096155.149 8
  23847389.180    23847391.206    52554924.853 8 -38181708.306 8
 86  6 13  2 44 47.0800000  0  4G12G13G 9G11
  21385141.607    21385143.606   -29250886.882 9  30553071.193 9
  20650053.663    20650055.161    -7969951.911 9   2932710.465 7
  20898749.817    20898749.266    25611079.317 9 -59084732.057 8
  23850546.505    23850549.340    52571514.988 9 -38168780.923 8
 86  6 13  2 44 53.0800000  0  4G12G13G 9G11
  21383006.714    21383008.388   -29262106.053 9  30544328.982 9
  20650577.722    20650579.507    -7967196.919 9   2934857.215 8
  20901543.237    20901543.809    25625761.167 9 -59073291.657 9
  23853703.159    23853705.791    52588104.343 9 -38155854.147 9
 86  6 13  2 44 59.0800000  0  4G12G13G 9G11
  21380876.113    21380879.070   -29273304.869 9  30535602.639 8
  20651105.239    20651104.546    -7964428.466 9   2937014.447 9
  20904341.111    20904340.598    25640465.165 9 -59061834.000 8
  23856859.826    23856862.514    52604692.939 9 -38142927.984 7
 86  6 13  2 45  5.0800000  0  4G12G13G 9G11
  21378749.296    21378751.113   -29284483.275 9  30526892.201 9
  20651634.186    20651634.844    -7961646.553 9   2939182.177 8
  20907143.248    20907144.417    25655191.272 9 -59050359.122 8
  23860015.727    23860019.733    52621280.712 8 -38130002.445 8
 86  6 13  2 45 11.0800000  0  4G12G13G 9G11
  21376625.780    21376627.065   -29295641.320 9  30518197.622 9
  20652165.842    20652166.407    -7958851.241 8   2941360.340 8
  20909950.477    20909950.687    25669939.509 9 -59038866.998 8
  23863172.696    23863175.027    52637867.712 9 -38117077.518 8
 86  6 13  2 45 17.0800000  0  4G12G13G 9G11
  21374506.449    21374507.878   -29306778.948 9  30509518.950 9
  20652700.445    20652701.847    -7956042.487 9   2943548.986 8
  20912761.117    20912762.615    25684709.773 9 -59027357.701 8
  23866329.495    23866331.282    52654453.891 8 -38104153.228 8
 86  6 13  2 45 23.0800000  0  4G12G13G 9G11
  21372390.647    21372392.497   -29317896.104 9  30500856.241 9
  20653237.073    20653238.268    -7953220.362 9   2945748.031 9
  20915575.705    20915576.672    25699502.223 9 -59015831.117 8
  23869484.406    23869488.445    52671039.231 9 -38091229.596 9
 86  6 13  2 45 29.0800000  0  4G12G13G 9G11
  21370278.960    21370281.110   -29328992.806 9  30492209.458 8
  20653777.114    20653777.779    -7950384.858 9   2947957.514 8
  20918395.103    20918394.858    25714316.755 9 -59004287.326 8
  23872639.935    23872643.120    52687623.757 8 -38078306.582 9
 86  6 13  2 45 35.0800000  0  4G12G13G 9G11
  21368171.273    21368173.865   -29340068.996 9  30483578.668 9
  20654319.552    20654320.498    -7947535.917 9   2950177.478 8
  20921217.792    20921218.882    25729153.321 9 -58992726.380 8
  23875796.904    23875799.503    52704207.414 9 -38065384.278 7
 86  6 13  2 45 41.0800000  0  4G12G13G 9G11
  21366066.953    21366068.864   -29351124.676 9  30474963.851 9
  20654864.069    20654864.547    -7944673.542 9   2952407.888 8
  20924045.914    20924046.068    25744011.931 9 -58981148.239 7
  23878952.674    23878955.076    52720790.194 9 -38052462.625 7
 86  6 13  2 45 47.0800000  0  4G12G13G 9G11
  21363967.397    21363969.203   -29362159.820 9  30466365.045 8
  20655411.738    20655413.559    -7941797.804 9   2954648.726 8
  20926877.220    20926877.313    25758892.514 9 -58969552.981 8
  23882107.260    23882110.341    52737372.103 8 -38039541.666 8
 86  6 13  2 45 53.0800000  0  4G12G13G 9G11
  21361870.840    21361873.495   -29373174.448 9  30457782.219 9
  20655960.970    20655962.574    -7938908.738 9   2956899.935 8
  20929713.555    20929714.540    25773795.140 9 -58957940.551 9
  23885263.257    23885264.460    52753953.139 9 -38026621.399 8
 86  6 13  2 45 59.0800000  0  4G12G13G 9G11
  21359778.843    21359781.665   -29384168.595 9  30449215.356 9
  20656512.802    20656514.342    -7936006.436 9   2959161.483 8
  20932553.272    20932554.281    25788719.758 9 -58946310.982 8
  23888417.130    23888421.066    52770533.314 8 -38013701.774 8
 86  6 13  2 46  5.0800000  0  4G12G13G 9G11
  21357690.323    21357692.562   -29395142.301 9  30440664.422 9
  20657067.334    20657069.588    -7933090.865 9   2961433.352 8
  20935398.223    20935398.170    25803666.258 9 -58934664.375 8
  23891572.772    23891575.519    52787112.532 8 -38000782.903 8
 86  6 13  2 46 11.0800000  0  4G12G13G 9G11
  21355606.999    21355608.815   -29406095.384 9  30432129.556 8
  20657625.628    20657625.521    -7930161.963 8   2963715.616 9
  20938246.464    20938247.119    25818634.793 8 -58923000.571 8
  23894727.052    23894729.661    52803690.867 7 -37987864.723 8
 86  6 13  2 46 17.0800000  0  4G12G13G 9G11
  21353525.565    21353527.876   -29417027.839 9  30423610.758 9
  20658185.494    20658186.556    -7927219.756 9   2966008.245 9
  20941098.353    20941099.868    25833625.212 8 -58911319.731 8
  23897882.330    23897885.051    52820268.366 8 -37974947.205 8
 86  6 13  2 46 23.0800000  0  4G12G13G 9G11
  21351449.943    21351451.856   -29427939.630 9  30415108.070 9
  20658747.806    20658749.321    -7924264.242 9   2968311.244 9
  20943955.749    20943955.754    25848637.660 9 -58899621.734 9
  23901036.801    23901038.945    52836844.940 9 -37962030.391 9
 86  6 13  2 46 29.0800000  0  4G12G13G 9G11
  21349377.312    21349379.174   -29438830.797 9  30406621.450 9
  20659311.794    20659313.506    -7921295.466 9   2970624.563 8
  20946816.758    20946817.535    25863671.935 9 -58887906.721 8
  23904190.125    23904193.561    52853420.509 8 -37949114.379 8
 86  6 13  2 46 35.0800000  0  4G12G13G 9G11
  21347308.813    21347310.701   -29449701.366 9  30398150.883 8
  20659880.132    20659881.191    -7918313.533 9   2972948.162 8
  20949681.599    20949682.609    25878728.033 9 -58876174.689 9
  23907345.823    23907347.815    52869995.123 8 -37936199.097 8
 86  6 13  2 46 41.0800000  0  4G12G13G 9G11
  21345243.949    21345245.749   -29460551.277 9  30389696.399 9
  20660449.867    20660450.229    -7915318.370 9   2975282.045 8
  20952549.816    20952551.816    25893806.009 9 -58864425.628 8
  23910499.047    23910500.750    52886568.780 9 -37923284.574 7
 86  6 13  2 46 47.0800000  0  4G12G13G 9G11
  21343184.230    21343185.814   -29471380.458 9  30381258.087 9
  20661022.795    20661023.515    -7912310.014 9   2977626.218 9
  20955422.563    20955425.344    25908905.761 9 -58852659.596 7
  23913652.545    23913655.347    52903141.507 8 -37910370.778 8
 86  6 13  2 46 53.0800000  0  4G12G13G 9G11
  21341126.479    21341128.009   -29482188.934 9  30372835.907 9
  20661597.589    20661598.742    -7909288.489 9   2979980.663 9
  20958300.509    20958302.738    25924027.381 8 -58840876.522 8
  23916804.651    23916808.765    52919713.246 9 -37897457.747 9
 86  6 13  2 46 59.0800000  0  4G12G13G 9G11
  21339073.570    21339076.291   -29492976.619 9  30364429.913 9
  20662175.108    20662175.917    -7906253.868 9   2982345.306 9
  20961183.379    20961184.506    25939170.737 9 -58829076.508 8
  23919958.984    23919961.534    52936284.036 9 -37884545.440 8
 86  6 13  2 47  5.0800000  0  4G12G13G 9G11
  21337024.598    21337026.374   -29503743.437 9  30356040.193 9
  20662754.482    20662755.832    -7903205.994 9   2984720.274 8
  20964068.680    20964071.811    25954335.919 8 -58817259.490 8
  23923111.827    23923114.299    52952853.905 8 -37871633.874 9
 86  6 13  2 47 11.0800000  0  4G12G13G 9G11
  21334979.710    21334982.337   -29514489.514 9  30347666.631 9
  20663338.033    20663338.284    -7900144.960 9   2987105.487 9
  20966958.715    20966959.852    25969522.850 9 -58805425.522 8
  23926266.257    23926267.575    52969422.704 7 -37858723.128 8
 86  6 13  2 47 17.0800000  0  4G12G13G 9G11
  21332938.599    21332940.534   -29525214.814 9  30339309.252 8
  20663921.401    20663923.645    -7897070.730 8   2989500.992 8
  20969852.946    20969853.900    25984731.470 8 -58793574.641 8
  23929417.681    23929421.456    52985990.500 7 -37845813.176 7
 86  6 13  2 47 23.0800000  0  4G12G13G 9G11
  21330901.621    21330903.559   -29535919.293 9  30330968.103 8
  20664510.242    20664511.063    -7893983.311 9   2991906.779 8
  20972751.502    20972751.851    25999961.909 9 -58781706.772 8
  23932570.112    23932573.272    53002557.313 7 -37832903.983 8
 86  6 13  2 47 29.0800000  0  4G12G13G 9G11
  21328868.894    21328871.028   -29546602.951 9  30322643.173 9
  20665098.762    20665100.209    -7890882.843 9   2994322.728 9
  20975653.235    20975655.417    26015214.006 9 -58769822.032 9
  23935722.656    23935725.848    53019123.097 8 -37819995.599 8
 86  6 13  2 47 35.0800000  0  4G12G13G 9G11
  21326839.574    21326841.828   -29557265.789 9  30314334.479 8
  20665692.131    20665693.117    -7887769.228 9   2996748.910 8
  20978560.630    20978560.149    26030487.740 9 -58757920.429 9
  23938875.256    23938878.163    53035687.896 8 -37807087.974 9
 86  6 13  2 47 41.0800000  0  4G12G13G 9G11
  21324815.043    21324816.638   -29567907.724 9  30306042.061 8
  20666287.541    20666288.309    -7884642.546 9   2999185.297 9
  20981471.148    20981471.898    26045783.214 9 -58746001.883 7
  23942026.020    23942029.804    53052251.597 8 -37794181.209 9
 86  6 13  2 47 47.0800000  0  4G12G13G 9G11
  21322794.348    21322795.351   -29578528.756 8  30297765.939 8
  20666884.858    20666886.782    -7881502.752 9   3001631.883 9
  20984385.296    20984386.938    26061100.330 8 -58734066.470 8
  23945178.436    23945181.972    53068814.259 8 -37781275.238 8
 86  6 13  2 47 53.0800000  0  4G12G13G 9G11
  21320775.787    21320778.424   -29589128.752 9  30289506.200 9
  20667484.344    20667486.166    -7878349.930 9   3004088.641 8
  20987303.740    20987306.315    26076439.112 9 -58722114.171 9
  23948330.535    23948333.113    53085375.927 8 -37768370.029 8
 86  6 13  2 47 59.0800000  0  4G12G13G 9G11
  21318762.828    21318765.163   -29599707.722 9  30281262.846 9
  20668087.150    20668088.406    -7875184.086 9   3006555.523 8
  20990227.172    20990228.481    26091799.572 9 -58710145.001 8
  23951481.791    23951483.920    53101936.514 8 -37755465.681 9
